GFSCGP_925_rhum_000.txt.gz
RH
94 92 95 82 70 61 59 52 61 44 36 36 42 45 37 32 28 29 41 47 52 55 53 52 47 42 42 42 44 45 46 54 48 61 71 72 72 76 81 82 80 79 81 84
94 90 69 72 70 62 48 50 52 50 39 37 42 42 37 36 28 30 44 50 50 54 59 58 52 46 45 44 41 42 45 52 61 66 75 76 79 67 51 47 49 50 48 47
78 82 62 68 67 63 53 56 56 58 46 41 45 47 41 29 32 41 44 46 50 54 59 62 61 54 48 47 44 42 41 42 46 57 60 61 44 44 45 48 48 48 45 42
86 75 75 69 80 69 88 50 45 45 49 58 42 63 47 32 37 44 49 54 56 59 58 61 60 59 53 51 46 45 45 44 44 42 43 46 54 58 59 55 51 46 44 41
86 88 91 79 70 69 72 46 48 44 50 48 46 55 49 35 42 45 51 52 57 61 63 64 63 58 54 49 48 48 47 48 49 49 50 51 54 55 52 48 44 42 40 39
67 64 75 80 68 58 50 48 44 52 53 67 52 50 53 42 40 43 46 49 57 63 64 64 58 54 54 52 49 48 48 53 50 49 51 51 51 50 47 46 45 43 41 40
66 82 58 57 55 45 49 49 77 65 70 72 49 56 49 34 33 38 45 49 58 64 66 65 64 62 57 55 54 52 51 56 54 51 50 50 50 49 48 45 42 39 37 36
86 95 57 39 60 69 58 55 69 71 74 63 53 57 40 35 48 40 42 46 59 66 66 65 66 62 61 60 56 51 49 51 50 49 48 47 45 42 38 34 30 26 27 29
81 77 37 33 34 54 56 54 46 61 60 72 62 48 38 42 49 49 49 52 61 65 65 67 66 62 64 61 56 52 49 50 50 50 48 42 37 32 26 20 13 10 11 15
56 57 43 34 29 30 42 42 53 63 66 70 62 51 50 34 41 51 54 55 60 62 65 69 69 69 68 60 54 51 50 51 49 46 42 36 28 20 12 8 8 11 13 15
46 50 54 39 44 43 39 45 52 55 63 64 65 51 40 35 39 53 53 51 59 63 66 71 72 72 67 58 54 51 48 47 44 44 36 28 18 10 10 10 11 12 14 17
50 60 60 48 45 40 36 41 45 61 57 63 61 53 34 42 42 52 51 52 53 58 66 74 76 75 64 57 51 48 47 44 41 39 29 17 11 10 10 12 15 17 17 16
59 65 82 68 55 54 47 44 43 52 56 64 60 52 35 42 46 47 49 50 52 58 73 80 85 77 69 58 50 46 43 40 37 29 19 12 12 13 14 15 15 15 16 17
53 63 62 72 54 60 62 52 48 46 62 59 58 42 33 37 40 41 41 43 54 68 73 86 88 79 67 56 49 45 42 36 32 21 14 15 16 17 18 18 17 18 19 22
50 56 50 47 54 55 55 55 54 51 46 53 46 49 34 34 35 36 39 46 61 72 73 85 87 81 66 55 50 46 40 30 22 16 18 21 20 19 20 20 20 21 22 23
52 55 42 40 41 36 43 48 57 50 51 43 52 48 34 43 44 51 51 51 61 68 70 87 86 76 68 55 50 45 37 23 16 19 22 21 21 23 25 24 23 22 25 26
44 46 47 51 44 40 38 42 64 54 47 51 57 41 41 54 53 47 48 52 56 63 70 92 81 73 59 52 48 41 28 18 19 19 19 23 27 29 28 25 25 28 30 30
44 45 47 50 49 45 33 47 40 49 50 49 57 56 53 55 50 48 50 58 63 59 86 86 76 64 52 49 42 31 21 20 18 19 24 28 31 31 29 29 31 31 34 36
46 53 67 59 59 47 52 53 61 53 65 57 61 58 54 50 50 50 60 65 64 72 87 76 63 55 50 42 30 22 22 19 21 27 31 30 33 34 34 32 33 37 39 38
55 58 52 88 76 62 46 47 45 48 69 62 60 63 62 59 66 65 59 74 82 81 72 66 59 51 41 29 24 22 22 24 28 31 32 32 34 33 31 35 41 41 41 48
62 68 64 75 73 66 48 48 42 58 58 68 60 57 60 64 61 64 81 80 76 70 64 57 51 43 33 27 24 26 25 28 30 32 30 30 28 32 36 40 42 43 48 56
56 73 77 83 75 70 53 53 56 61 63 60 58 56 57 56 59 76 84 85 76 71 64 55 46 37 30 26 27 28 28 31 31 31 31 30 31 33 37 43 46 49 55 60
62 60 66 68 69 62 58 55 64 58 61 60 57 54 51 54 59 67 80 85 80 68 59 51 45 34 27 30 29 29 30 31 32 32 31 31 32 36 44 50 52 60 61 63
65 65 70 67 68 62 60 59 56 54 56 56 54 54 53 54 56 60 78 87 83 65 54 45 34 29 30 31 30 30 31 32 33 35 34 33 39 48 48 53 56 62 64 65
69 71 76 78 76 67 60 57 58 60 61 59 60 59 58 59 61 69 83 87 76 61 47 37 34 31 30 30 29 29 32 33 34 36 37 40 46 50 55 59 61 63 64 67
84 75 78 75 72 70 69 60 61 65 66 75 68 68 68 72 73 80 88 88 73 51 42 37 32 30 29 30 31 30 31 34 38 43 46 48 57 59 63 66 67 68 68 67

GFSCGP_925_rhum_003.txt.gz
RH
85 89 95 76 71 61 55 53 52 56 40 39 43 42 35 33 33 33 42 48 49 51 54 58 51 46 44 44 48 55 58 61 60 64 72 85 86 66 55 50 46 45 42 40
81 92 74 71 73 61 59 59 59 51 42 40 44 42 35 37 34 31 42 49 48 51 52 57 58 52 49 48 46 45 52 66 72 74 83 67 62 55 51 49 47 44 41 38
79 79 61 68 82 74 63 63 60 60 49 43 46 44 40 32 34 43 48 49 49 51 54 56 57 60 55 52 48 45 44 43 53 57 44 46 49 52 54 51 47 44 40 37
85 73 69 73 76 72 84 52 52 50 58 65 42 53 46 36 36 46 50 51 53 56 57 58 59 60 62 56 50 47 45 45 46 44 46 51 63 63 62 49 43 39 36 34
89 84 76 82 74 68 75 60 59 51 53 50 49 50 43 37 39 45 49 54 57 58 58 61 62 65 59 53 51 50 48 49 48 47 47 47 51 50 43 38 35 33 30 26
89 71 74 69 66 64 49 57 62 52 50 61 51 47 47 40 34 45 47 50 57 59 60 61 64 62 61 57 52 49 48 52 48 44 44 41 41 40 37 33 31 32 31 28
89 86 85 84 65 55 51 71 98 96 74 64 53 54 43 38 34 37 42 46 56 59 61 61 61 64 66 61 58 54 50 50 45 42 42 40 36 31 28 25 24 18 20 20
97 99 73 77 81 73 74 72 78 76 69 59 56 56 36 33 39 40 41 43 58 61 62 60 63 67 68 62 57 54 52 51 46 42 37 32 27 21 14 9 8 14 14 18
79 84 52 56 51 58 78 80 48 62 63 68 62 50 38 37 44 47 47 50 59 61 63 63 65 69 70 63 57 52 51 51 48 40 33 26 18 12 7 5 4 6 10 15
69 69 52 35 40 35 56 46 74 59 66 71 64 55 48 35 37 52 51 50 60 62 63 64 65 74 73 60 56 53 49 48 44 36 28 19 12 6 4 5 7 8 10 12
52 58 58 39 44 48 52 75 57 53 61 64 60 48 40 36 36 48 50 51 56 60 63 64 71 78 67 57 53 52 47 46 41 31 21 13 8 7 7 8 10 12 14 16
48 60 66 49 48 40 40 48 49 57 61 63 58 51 34 41 44 49 50 51 54 58 63 67 77 72 61 55 50 49 45 42 35 24 15 11 8 8 9 12 14 16 16 18
54 65 77 62 54 57 49 42 44 52 54 62 58 50 35 43 49 51 50 50 50 58 69 73 78 65 59 54 48 45 40 38 28 18 12 10 10 10 14 17 18 17 17 18
49 63 69 71 63 61 64 53 49 44 57 58 55 42 34 36 45 47 45 48 50 58 72 77 76 68 60 53 48 44 37 33 22 15 12 11 12 16 21 20 18 19 20 20
48 57 52 50 51 52 54 54 51 50 43 47 45 49 40 35 44 43 38 43 58 70 77 80 77 67 60 54 49 43 34 27 19 14 14 16 21 24 20 20 21 21 22 23
54 56 45 45 48 48 56 55 51 48 50 50 48 50 39 45 50 54 53 55 62 70 76 81 75 67 62 55 49 43 33 22 16 17 19 24 25 24 23 23 23 23 25 24
57 50 53 57 44 40 45 46 60 51 54 44 53 40 46 56 55 54 56 55 58 64 71 82 75 69 61 53 48 41 26 18 18 21 25 25 27 28 26 24 24 26 29 29
60 62 56 55 46 53 40 48 49 52 46 43 48 48 52 58 54 52 54 54 57 59 69 85 75 68 55 52 44 30 20 20 21 24 23 28 32 29 26 25 27 29 36 40
49 50 63 60 56 46 55 55 57 51 55 60 64 63 60 54 52 52 61 67 70 64 79 82 71 58 54 46 33 23 22 22 22 24 28 31 31 30 28 27 31 35 41 41
54 51 52 87 64 47 42 47 47 49 57 64 60 64 60 57 59 57 64 74 80 84 80 74 62 54 44 32 25 23 23 22 25 29 32 30 29 29 30 32 36 37 39 47
60 64 62 72 66 61 50 49 46 57 49 65 60 62 64 58 56 64 76 79 78 73 68 62 53 44 34 28 25 25 24 25 28 30 29 27 27 29 31 34 35 38 43 55
57 68 69 78 71 56 53 51 54 58 63 59 58 56 57 57 68 73 78 81 75 70 64 54 46 38 32 28 26 26 25 28 28 28 29 28 27 29 32 37 39 48 56 58
55 50 61 61 62 66 60 56 64 57 60 59 60 59 57 60 64 79 82 84 77 71 63 53 46 37 30 30 29 26 28 29 30 31 28 27 27 30 35 44 54 56 57 62
66 67 73 68 68 64 65 61 57 54 58 61 58 59 57 58 62 65 80 88 82 73 61 52 42 33 34 33 29 28 30 32 31 30 30 29 32 44 43 48 56 63 64 65
68 68 78 85 76 67 59 58 64 68 67 67 64 59 60 61 63 66 79 87 85 71 57 46 36 34 33 30 29 31 32 31 31 32 31 33 38 46 56 60 64 65 66 69
83 74 75 73 72 70 68 67 66 69 71 70 68 69 71 71 74 77 84 86 79 63 47 42 38 32 30 32 31 31 32 33 34 34 41 43 57 60 61 65 66 70 70 68

GFSCGP_925_rhum_006.txt.gz
RH
65 91 95 70 73 48 38 43 48 39 33 38 38 36 28 26 25 24 23 28 31 33 37 41 43 41 42 45 50 59 67 66 63 66 66 63 59 55 54 54 50 47 46 45
68 93 67 76 62 57 44 48 48 35 36 36 38 40 33 26 25 23 24 28 31 35 34 39 41 41 42 42 44 51 62 69 73 74 64 58 56 55 54 54 52 49 45 44
80 77 61 82 62 60 50 50 42 42 43 41 38 38 31 25 25 26 24 28 30 33 35 36 40 43 44 47 49 50 55 57 54 52 53 54 56 53 51 50 47 46 44 40
59 58 81 75 70 58 57 43 45 51 63 57 38 46 32 24 26 29 32 33 34 36 36 38 40 43 49 56 56 54 53 54 55 52 51 49 46 47 48 44 44 41 41 34
77 81 89 84 68 49 49 47 49 54 60 55 47 45 30 28 27 31 33 33 36 37 38 42 44 50 54 58 58 55 53 53 53 51 47 43 43 44 43 39 36 35 34 32
52 83 80 56 54 50 48 49 52 46 52 64 41 41 31 24 22 26 33 35 38 39 40 42 49 51 56 61 58 53 50 52 51 48 46 45 41 36 35 32 27 24 22 24
81 90 90 55 80 63 50 61 98 92 83 60 38 41 28 24 24 24 32 35 37 40 42 45 47 48 53 57 58 52 49 48 47 45 42 40 38 34 28 24 21 19 17 21
99 99 96 63 63 81 62 53 53 63 59 46 43 42 25 25 26 24 25 31 36 40 40 43 45 50 54 57 54 51 49 48 44 40 36 32 31 27 23 22 20 18 18 20
96 99 80 67 60 55 85 81 39 44 46 44 37 34 28 28 30 31 28 34 40 42 42 44 48 51 53 53 51 51 51 49 42 36 30 26 24 22 21 19 19 20 21 20
63 96 70 67 67 62 64 52 69 50 58 54 40 39 30 25 27 32 31 36 40 42 43 44 46 51 52 52 53 51 48 44 39 32 26 23 19 18 18 18 19 21 20 22
53 54 74 60 75 76 65 83 66 44 43 42 40 33 24 26 26 29 29 31 38 44 43 44 46 54 53 52 52 48 48 43 35 28 23 20 18 18 18 18 19 20 21 23
57 40 85 65 46 43 47 52 50 56 54 43 39 32 25 26 29 30 30 32 38 39 42 43 49 55 51 48 48 45 45 40 33 25 20 19 20 19 18 19 20 21 21 23
43 44 63 75 58 46 56 48 49 38 37 43 43 35 26 30 34 35 32 35 38 41 45 46 52 51 46 45 44 42 40 36 28 23 20 19 20 20 20 22 23 23 24 25
44 44 38 51 47 42 53 46 47 48 50 41 37 30 28 30 35 36 34 33 36 42 46 48 52 48 45 43 41 38 37 33 27 22 21 21 22 25 24 26 26 26 27 27
52 47 44 44 42 39 42 48 43 46 42 43 35 35 27 24 31 31 32 32 34 39 48 51 53 47 46 43 41 39 35 32 24 22 22 27 29 28 29 28 29 28 30 30
49 53 40 44 48 41 42 40 44 44 40 35 32 33 25 25 28 31 30 32 37 42 48 52 53 50 47 44 42 40 34 28 24 22 25 29 29 30 30 31 30 30 31 31
52 47 46 49 41 42 52 42 41 38 33 32 38 30 29 36 34 33 36 39 41 44 48 54 55 53 49 46 43 39 30 25 23 24 26 29 30 30 31 31 29 30 31 32
52 48 49 57 43 64 36 39 32 36 32 30 30 33 31 31 36 40 38 38 42 46 50 56 58 57 52 48 43 34 26 24 25 25 26 29 31 31 30 29 28 29 31 32
45 78 78 59 79 38 36 44 39 43 39 35 35 33 39 42 41 48 48 48 49 48 49 56 61 58 51 47 39 29 26 24 24 25 27 30 31 31 29 28 30 31 32 35
63 82 86 78 57 49 37 42 36 34 32 38 35 41 45 42 44 42 51 54 59 63 65 64 59 52 47 39 30 28 25 23 24 27 30 32 33 32 28 31 33 35 36 35
64 60 86 60 71 40 38 41 42 39 39 48 41 43 45 42 42 52 57 62 60 62 64 58 52 46 39 30 29 26 25 24 29 32 33 33 31 30 30 34 36 38 38 36
60 55 54 65 87 85 46 47 44 47 51 47 46 46 47 50 54 56 59 62 59 60 59 52 46 39 32 31 28 26 24 29 32 34 33 30 29 31 34 41 41 40 36 35
46 42 44 42 45 58 53 50 51 45 47 47 47 47 47 52 53 57 61 62 60 59 55 49 44 38 35 31 28 25 26 32 34 32 30 29 30 32 36 38 40 40 36 37
55 57 48 52 59 57 54 51 47 43 47 48 47 47 46 49 54 57 58 62 61 62 58 52 46 40 35 33 32 29 33 36 34 30 28 29 31 38 39 38 38 40 40 42
52 54 56 68 64 57 53 48 49 52 52 53 51 50 50 50 54 54 59 63 66 66 61 54 47 40 36 34 30 34 35 34 32 30 29 32 34 38 39 38 40 48 52 59
55 52 50 47 49 46 47 51 51 53 55 53 54 58 61 58 58 62 62 67 70 67 59 51 44 41 34 31 32 34 30 36 36 32 31 35 42 41 38 39 42 47 57 63

GFSCGP_925_rhum_009.txt.gz
RH
55 84 87 67 60 69 51 57 45 38 29 32 36 34 26 23 22 22 19 19 23 26 30 34 34 35 38 44 49 53 52 54 56 59 58 55 53 52 50 47 44 42 41 39
71 90 56 46 57 64 59 50 43 35 32 34 32 33 26 24 25 22 19 19 23 28 29 32 33 32 34 38 47 52 59 61 56 55 54 52 51 49 49 48 42 39 36 37
76 72 49 46 66 76 63 65 44 43 36 34 35 41 35 28 24 22 20 19 23 27 29 31 32 35 37 41 46 50 50 51 53 54 54 52 50 46 43 41 41 39 34 30
66 58 71 50 67 79 72 54 37 40 46 51 36 41 25 24 24 24 21 22 26 27 27 30 32 37 43 48 48 47 48 48 47 45 44 42 40 39 39 38 37 35 34 28
78 74 81 63 71 71 72 46 40 45 46 59 55 49 30 23 24 25 22 25 27 28 31 33 36 42 47 51 50 47 47 47 45 42 39 37 37 37 36 34 30 27 27 26
60 61 67 58 63 81 63 52 55 50 50 62 41 42 29 26 23 21 24 26 30 30 33 35 40 45 52 54 50 46 43 42 41 40 39 38 35 33 33 29 25 22 20 22
87 95 84 74 94 92 72 77 92 79 76 52 31 37 29 21 20 19 26 28 30 32 35 38 41 43 49 51 48 43 41 40 40 38 37 37 35 31 28 24 22 19 18 19
99 97 90 72 92 92 83 76 56 63 57 44 34 43 28 21 20 18 23 27 30 34 35 38 39 43 48 48 44 42 40 38 36 34 32 31 30 27 23 22 20 18 18 18
87 91 76 84 72 65 81 77 39 41 34 37 38 30 24 23 25 22 24 28 33 34 36 37 40 44 48 47 44 43 41 38 35 32 28 25 24 23 22 20 19 20 18 17
91 98 88 92 75 83 70 41 56 40 50 46 36 30 29 26 25 26 24 29 33 34 36 37 39 43 44 45 46 45 42 38 34 28 26 23 20 18 18 18 18 19 19 19
92 95 94 92 82 87 90 68 54 36 37 38 39 32 21 22 22 26 24 27 32 35 36 38 38 43 44 46 47 44 41 36 31 27 24 22 19 18 18 18 18 18 19 19
79 93 100 74 46 50 63 62 45 45 48 37 36 32 20 21 24 24 24 26 30 35 35 36 38 45 45 46 44 42 41 35 30 25 21 21 21 20 19 19 19 19 19 20
55 67 100 94 61 64 74 50 47 42 36 39 37 33 21 23 28 26 25 26 31 36 36 36 39 44 43 43 42 41 39 34 27 23 21 21 22 22 21 21 21 21 21 22
50 48 49 49 45 59 73 61 45 44 46 40 35 30 25 26 28 29 28 28 32 35 37 37 42 42 41 41 40 38 36 31 27 23 22 23 24 24 24 24 24 24 24 24
55 50 37 31 33 40 45 52 52 51 44 43 32 31 24 22 25 26 27 29 32 36 38 39 43 42 40 40 38 36 34 30 26 23 23 26 27 26 26 27 26 26 26 28
50 57 41 43 40 35 40 39 42 44 42 39 32 32 22 20 20 24 26 28 31 34 37 39 43 42 41 40 38 37 33 30 25 23 24 26 26 26 26 28 27 26 28 29
59 62 46 48 40 43 50 37 37 38 35 34 39 31 24 27 26 26 26 28 30 32 36 41 44 44 43 41 40 38 32 27 24 24 24 25 26 26 26 26 26 26 27 27
56 56 49 60 42 64 34 32 30 33 33 31 31 27 27 27 26 25 27 30 34 37 41 43 44 47 46 43 41 35 28 26 26 25 24 25 25 25 25 25 25 26 27 28
55 61 66 67 68 49 39 34 34 36 36 28 28 26 27 31 39 43 38 34 37 38 39 45 49 50 48 44 39 30 29 27 25 24 24 24 24 25 25 25 25 28 29 32
64 62 75 72 59 62 35 35 29 29 41 24 27 29 31 40 45 43 45 45 49 50 53 55 54 50 47 42 34 31 29 25 22 25 26 26 26 27 25 26 27 31 34 34
97 96 96 96 87 48 33 34 31 38 41 35 30 30 38 41 40 44 45 48 50 54 55 53 51 48 42 35 32 31 26 23 26 29 27 26 26 25 25 29 34 38 36 35
82 89 94 96 92 82 36 41 40 46 41 35 35 36 39 47 47 46 49 54 54 55 55 50 46 41 33 32 32 28 25 27 28 28 27 26 26 25 28 35 39 38 36 33
65 44 44 45 52 47 38 46 42 40 41 40 41 41 44 47 49 52 55 54 54 53 50 47 42 36 34 32 30 27 26 28 28 27 26 25 24 27 30 36 36 36 33 32
41 43 40 41 49 46 44 45 41 38 40 41 41 42 41 46 49 51 52 55 54 53 50 47 43 40 36 33 31 26 28 29 29 26 25 24 27 32 34 34 34 34 34 38
43 44 46 49 56 52 48 44 44 44 44 45 43 42 43 46 48 48 51 54 55 57 55 51 47 43 38 35 30 29 30 30 29 26 24 26 30 34 37 35 34 36 39 45
47 42 46 42 41 39 45 44 44 48 49 48 52 55 54 47 53 52 54 56 60 61 58 54 49 43 39 34 28 29 32 32 30 28 29 31 35 37 36 35 38 38 42 45

GFSCGP_925_rhum_012.txt.gz
RH
54 76 86 77 70 66 61 58 67 46 43 43 41 39 37 31 30 31 28 23 30 36 37 34 36 40 47 50 53 57 58 59 61 66 56 54 51 48 45 42 38 36 36 35
69 84 59 54 57 64 62 74 76 51 41 42 38 40 33 32 29 28 28 25 32 40 40 37 34 37 46 54 59 60 57 56 57 55 54 52 50 48 43 39 37 32 28 26
76 65 56 51 54 64 63 67 78 71 46 49 40 46 39 30 27 28 28 24 32 37 41 41 41 40 46 51 52 59 60 56 55 52 51 48 47 43 42 40 36 33 26 20
64 51 52 59 59 55 67 54 64 74 82 73 44 66 43 34 33 32 29 27 35 36 39 40 44 45 48 49 49 50 50 52 52 50 50 47 41 40 39 36 33 31 27 24
78 67 58 64 76 54 65 55 67 70 81 80 61 57 47 31 38 33 29 28 35 36 39 44 50 50 52 50 49 48 46 44 42 40 39 39 38 36 34 30 26 23 24 22
71 56 58 60 55 66 53 68 84 79 76 90 81 58 48 36 32 30 28 33 36 37 42 47 48 52 55 50 46 44 42 42 40 38 38 36 36 34 28 25 22 19 20 20
92 87 66 75 86 61 66 88 96 100 99 92 46 60 44 24 24 24 27 35 37 40 45 52 58 60 56 51 45 42 41 40 38 38 37 34 31 28 24 21 19 18 18 19
86 84 87 79 86 75 81 92 100 97 98 57 38 54 41 24 23 27 29 34 38 42 47 52 56 56 55 50 42 41 39 38 36 34 32 30 26 24 22 20 20 18 18 17
97 95 80 69 63 74 80 99 84 83 40 50 49 34 28 29 27 30 34 37 41 42 48 50 55 54 53 46 42 40 38 35 32 29 26 24 23 21 20 19 18 18 18 18
93 100 82 82 76 82 86 75 98 83 58 68 55 46 42 37 36 29 37 40 43 43 47 49 52 53 49 46 44 40 37 33 30 27 24 21 19 18 17 18 18 18 18 19
93 98 96 81 95 90 97 97 82 66 58 56 58 45 32 32 32 33 34 37 42 44 45 48 52 49 47 46 46 41 37 32 28 25 22 20 19 19 18 19 19 18 18 19
90 97 100 99 74 74 77 82 59 56 60 55 49 45 26 30 29 32 31 35 39 42 44 48 52 49 48 48 45 41 36 31 27 23 22 21 21 20 20 20 20 20 20 20
94 99 100 99 94 94 92 77 57 56 51 56 48 47 29 34 33 28 33 38 40 44 48 49 54 54 50 48 44 42 37 31 26 22 21 22 23 23 22 23 23 22 22 22
86 81 99 98 73 82 89 72 57 59 62 49 42 40 33 37 38 34 34 38 43 45 45 48 54 57 48 46 43 41 36 29 25 22 22 24 25 25 24 24 25 25 24 25
83 93 88 61 62 62 64 65 61 60 55 51 38 36 32 36 39 37 36 40 44 46 46 49 57 56 48 44 41 38 34 29 25 23 24 26 26 26 25 26 26 25 25 27
52 76 65 49 43 50 63 60 58 54 48 47 46 43 27 27 32 36 39 40 42 44 47 50 54 53 48 42 39 35 32 27 24 24 26 27 26 25 25 26 26 26 26 26
62 72 64 58 43 45 54 48 54 54 49 48 54 41 30 30 30 35 37 39 42 44 48 52 55 54 45 41 38 35 32 27 24 25 25 25 26 26 25 25 25 25 25 27
68 71 66 63 47 71 40 34 35 41 40 40 38 35 32 34 35 42 35 38 44 45 49 53 58 51 44 40 38 34 29 26 26 25 24 25 24 24 24 24 25 25 27 29
52 65 78 75 75 54 44 35 37 43 43 35 39 37 41 49 51 55 53 49 52 53 56 56 51 46 43 41 34 28 27 27 25 24 24 24 24 25 25 25 25 26 31 35
71 78 90 92 78 76 42 36 32 34 53 41 37 36 50 49 63 65 57 58 63 63 60 58 50 46 43 36 31 29 28 26 24 24 25 25 26 26 26 25 26 32 38 40
91 93 96 90 91 75 38 36 32 49 51 44 38 42 50 61 58 57 57 63 62 61 56 51 49 47 40 34 31 30 26 24 26 24 26 26 26 25 25 26 31 38 40 38
83 97 96 97 99 93 40 42 46 52 41 38 48 52 62 60 57 59 63 66 64 64 55 50 45 37 34 32 31 27 25 26 25 27 27 26 25 24 26 30 35 37 37 35
84 75 78 79 75 50 44 51 43 44 46 49 59 57 55 59 62 64 66 66 64 57 51 44 37 34 33 32 30 26 27 27 27 27 25 25 24 25 31 34 36 36 35 35
55 53 55 51 54 53 51 46 42 44 52 53 54 54 55 62 63 65 64 64 60 53 51 42 37 36 34 31 28 27 28 27 27 26 25 23 25 32 34 37 37 35 35 39
51 52 53 60 58 54 49 48 52 55 53 54 54 55 58 59 63 64 66 66 64 57 50 44 42 39 35 35 28 29 29 27 28 26 25 28 32 36 39 39 37 38 41 43
53 50 57 57 49 48 54 54 54 56 57 59 60 66 64 64 66 66 71 68 65 63 55 53 49 40 37 32 28 30 28 27 28 28 31 34 39 42 42 39 41 43 45 48

GFSCGP_925_rhum_015.txt.gz
RH
63 85 84 82 78 72 66 74 77 70 53 57 55 56 47 39 38 41 35 32 45 47 45 38 40 47 51 55 56 59 63 65 64 64 59 54 46 45 42 39 35 32 30 24
76 87 67 62 67 75 78 88 84 67 60 60 58 55 44 40 38 39 38 37 48 50 48 48 46 54 59 62 62 62 64 67 65 63 58 54 45 41 36 32 29 25 21 19
84 68 56 61 66 76 78 88 80 74 62 64 66 68 51 40 36 35 35 35 43 46 49 52 56 57 57 64 60 61 63 61 58 56 51 47 41 39 36 34 30 25 23 18
79 58 61 68 71 66 82 60 61 66 72 89 68 82 62 45 40 37 37 43 46 48 47 51 58 59 55 56 59 58 54 54 53 52 47 44 44 42 39 35 30 26 23 21
80 71 71 71 66 60 70 52 57 59 72 80 79 88 64 43 42 38 42 46 45 46 45 53 61 59 56 53 52 54 54 52 49 47 46 42 39 38 34 29 26 23 22 21
71 61 66 61 53 53 63 69 71 75 80 96 88 86 66 50 41 36 37 44 44 47 50 59 62 58 56 50 47 44 43 44 47 46 40 36 35 32 27 24 22 21 21 20
97 93 72 69 79 71 76 84 86 91 96 88 67 98 79 40 36 32 34 44 44 48 58 65 68 67 59 49 45 42 40 40 39 38 37 36 32 27 24 21 19 19 19 17
96 90 88 75 76 73 84 80 91 87 84 73 78 96 60 43 32 31 36 41 46 53 60 66 69 68 58 50 44 41 39 39 37 34 32 29 27 24 22 20 19 19 18 18
99 93 70 67 63 62 76 90 64 96 86 99 89 61 36 33 39 41 45 46 50 58 61 66 68 65 57 48 44 40 37 35 34 31 28 25 23 21 20 19 19 19 18 18
81 96 65 71 68 70 72 63 94 100 99 94 75 51 47 39 44 45 47 49 52 56 60 63 65 66 55 46 42 38 35 32 28 26 24 22 20 19 19 21 20 18 17 18
71 96 91 95 97 83 91 93 79 93 87 90 88 61 41 38 38 46 47 48 52 56 57 62 64 61 52 47 41 37 34 30 27 24 21 20 19 20 21 22 21 19 18 17
88 99 99 88 80 72 60 80 72 93 99 90 58 51 34 37 37 41 45 47 49 52 55 60 62 60 57 50 42 38 32 28 26 22 22 21 20 22 22 23 21 19 18 19
94 99 94 96 94 84 80 78 66 70 98 78 58 50 38 40 39 37 46 48 50 54 58 62 62 60 58 54 44 37 32 28 24 22 22 22 23 24 24 23 21 20 20 20
90 98 99 98 95 83 83 72 80 93 98 66 51 48 44 41 40 41 49 49 51 52 55 61 61 60 59 53 45 39 32 27 23 22 23 24 25 26 24 22 22 21 20 20
91 100 98 94 86 78 76 80 91 98 72 60 44 41 45 45 43 42 50 51 52 53 56 61 61 61 59 53 47 40 31 26 22 23 24 26 27 26 24 23 22 19 21 24
87 99 95 93 73 73 81 84 69 61 57 49 52 48 33 40 44 44 53 50 51 52 53 59 59 58 58 53 47 35 28 26 24 25 27 28 26 24 24 22 22 22 23 25
72 83 93 69 76 71 82 70 67 59 52 48 57 46 35 41 41 44 52 49 52 55 56 60 58 57 55 49 41 33 28 24 24 26 27 26 26 24 23 22 23 24 24 27
70 78 73 79 59 72 43 38 52 57 52 51 45 41 35 46 61 60 48 51 52 53 56 59 59 57 50 43 37 31 27 25 25 26 26 26 24 22 22 23 24 24 28 34
62 72 82 81 84 58 47 37 43 51 51 47 50 44 52 56 54 64 65 60 61 64 67 69 58 52 45 39 34 30 27 26 27 25 25 24 23 22 23 24 24 27 34 38
72 77 81 94 81 75 46 38 34 36 56 45 38 50 51 50 54 70 67 70 72 68 59 55 51 45 39 34 31 28 27 27 26 25 24 23 24 24 24 25 27 32 36 35
90 87 90 89 94 81 51 37 36 48 49 49 43 51 54 56 57 69 71 72 66 61 58 52 46 40 33 31 30 29 28 26 26 23 24 24 24 25 24 27 32 35 36 36
87 96 98 93 97 89 43 37 36 48 44 59 68 66 72 71 70 73 70 69 65 65 58 49 45 39 33 32 30 27 26 27 24 26 24 25 25 24 27 33 34 36 37 36
93 81 88 83 76 56 52 49 46 49 54 61 68 66 66 70 72 70 72 68 66 60 50 43 39 36 35 32 28 28 28 26 26 25 25 24 23 28 34 35 38 38 38 41
68 67 66 68 57 53 53 48 46 52 62 64 63 63 63 70 68 71 69 65 61 54 46 39 37 37 35 30 29 31 28 26 24 25 24 24 30 38 36 39 39 40 44 46
67 68 66 64 61 54 53 49 60 61 60 63 64 63 66 66 70 67 66 63 60 57 44 39 39 36 31 28 29 29 27 25 26 25 27 31 36 39 41 41 43 48 49 51
56 57 65 68 56 52 56 60 58 60 64 62 64 71 70 65 70 71 74 68 62 59 47 45 41 36 36 30 30 29 27 26 26 27 31 36 41 43 44 46 48 48 53 54

GFSCGP_925_rhum_018.txt.gz
RH
64 86 87 80 81 80 83 78 84 73 60 72 68 63 52 49 50 49 46 45 41 48 45 40 40 43 50 53 53 50 46 73 70 64 60 57 49 47 50 42 34 31 28 22
78 88 63 64 69 81 84 92 89 70 59 63 74 74 58 47 46 44 42 45 44 51 53 53 57 58 60 62 66 69 69 68 65 62 57 55 49 42 36 30 28 23 21 20
77 64 59 67 75 84 83 89 83 83 66 59 58 66 62 54 45 43 40 42 44 48 55 61 75 69 68 68 70 75 68 66 62 60 56 48 39 32 29 26 23 22 21 20
74 65 67 70 78 76 91 70 72 74 79 87 64 86 67 54 53 47 40 48 48 51 52 61 75 76 70 68 68 71 67 64 62 60 54 45 38 36 32 28 26 23 22 20
86 83 80 79 70 63 77 60 66 71 81 86 74 86 64 56 58 52 42 49 48 50 53 65 70 70 66 64 66 65 62 61 57 56 51 39 35 36 35 29 25 23 22 20
73 63 65 63 55 60 66 68 68 74 75 96 66 72 63 68 55 48 42 44 46 50 55 67 68 68 66 62 59 58 57 55 53 48 40 37 36 36 33 28 24 22 21 19
98 95 76 69 70 62 65 78 91 98 97 83 58 68 61 60 53 40 38 47 52 51 62 72 73 70 64 58 57 57 54 54 50 45 41 37 36 30 25 23 21 21 20 19
97 98 96 73 71 78 76 74 89 91 99 72 58 82 74 52 41 38 41 40 51 56 63 69 68 66 61 54 49 49 50 50 46 41 37 33 29 25 22 21 20 20 20 19
98 95 72 70 60 60 86 94 61 79 80 89 84 76 64 53 45 44 41 48 56 61 68 71 70 64 60 53 47 43 42 40 38 35 31 27 25 24 22 21 21 21 19 19
83 97 74 75 69 68 75 62 91 95 98 96 87 93 66 50 48 54 54 56 59 64 70 73 67 64 58 51 45 41 39 35 32 29 27 25 23 22 21 22 22 19 19 18
79 85 91 87 96 76 85 94 75 66 75 99 81 78 60 39 42 54 53 55 63 68 73 72 68 64 59 49 42 38 35 32 28 26 24 22 20 21 23 23 22 20 18 17
69 89 96 86 61 64 74 71 72 80 76 70 90 74 36 44 42 53 57 60 60 63 68 71 69 66 60 51 43 37 32 28 25 23 21 20 21 22 24 24 22 20 18 17
75 100 97 95 88 90 98 82 68 65 89 94 97 69 42 47 55 54 54 58 61 66 71 72 71 66 59 54 44 37 31 27 24 22 21 22 23 24 26 24 21 19 17 18
87 100 98 90 100 88 99 80 72 70 73 72 93 78 56 48 47 57 60 60 62 65 68 72 70 66 60 53 44 35 31 26 24 23 23 24 26 27 25 23 21 19 19 21
94 100 100 97 94 97 73 70 73 82 79 88 70 69 46 44 42 52 58 62 63 66 70 70 68 66 62 55 45 36 29 24 23 24 25 26 28 27 25 22 20 20 22 23
95 98 100 99 89 94 88 72 77 76 89 93 86 94 36 48 50 61 62 60 61 63 66 66 65 66 63 56 48 35 28 25 24 24 26 28 28 25 24 22 21 21 22 23
97 100 100 100 89 88 97 78 75 75 79 88 98 76 43 44 43 58 66 55 57 60 64 66 65 64 60 56 43 34 27 25 25 26 29 28 26 24 23 22 21 21 24 31
86 84 80 94 90 80 48 69 71 81 80 79 71 41 42 48 68 65 58 58 58 57 63 65 63 63 58 50 40 31 27 26 26 28 28 27 25 23 22 21 22 23 30 35
64 73 90 93 90 62 45 45 66 73 66 55 53 49 58 62 54 62 75 58 60 62 64 64 62 59 50 44 36 30 27 26 27 28 27 25 24 22 22 22 23 30 34 36
79 74 84 96 92 75 49 39 36 38 58 45 50 57 59 56 58 62 78 74 75 70 65 61 54 49 44 36 31 28 28 28 28 27 26 24 23 22 22 24 29 34 36 37
93 88 92 89 93 83 58 42 39 52 50 47 45 56 55 50 59 76 75 72 64 59 53 48 45 42 38 33 31 30 30 29 27 26 24 24 23 23 24 30 34 37 38 38
85 93 93 91 95 91 50 38 39 46 57 63 65 67 80 81 79 76 72 70 64 60 50 44 42 40 34 32 31 30 29 28 25 25 24 24 24 24 31 34 37 38 39 42
89 80 90 85 82 61 52 47 49 51 61 65 77 75 75 78 77 74 75 69 62 54 49 43 41 38 33 32 31 29 28 26 26 25 25 23 24 33 36 40 39 40 44 47
74 70 80 72 62 56 51 49 52 54 64 71 72 71 68 76 72 74 70 66 56 49 46 42 41 38 34 30 29 31 28 27 25 24 24 26 32 42 40 41 42 47 51 54
78 73 69 72 59 54 54 50 63 70 70 72 72 68 69 68 71 68 68 65 58 50 44 40 39 36 34 31 32 30 28 25 25 24 27 32 39 42 43 44 47 51 53 58
62 75 73 76 58 52 54 64 66 67 72 71 70 73 70 64 68 67 68 64 56 51 44 42 37 33 32 32 31 29 26 24 23 26 32 41 44 44 46 49 48 45 59 60

GFSCGP_925_rhum_021.txt.gz
RH
66 87 92 76 86 85 91 92 88 75 61 72 77 74 64 59 56 52 59 52 51 45 42 42 40 40 43 46 44 45 56 75 76 70 64 61 58 56 54 53 49 48 31 22
81 95 75 66 72 78 85 89 86 75 65 67 69 71 60 54 56 54 48 51 47 44 50 49 48 52 55 54 55 52 55 75 71 67 63 62 52 48 41 32 27 24 22 21
89 67 59 66 74 81 86 91 76 81 69 66 67 59 43 41 47 51 49 45 43 46 52 57 72 68 68 70 68 65 64 72 68 63 58 52 44 35 28 24 22 21 22 22
86 66 64 70 78 78 85 72 74 77 85 89 65 75 54 51 51 52 48 48 50 51 47 57 82 82 77 75 78 70 68 69 64 59 57 52 42 33 26 23 23 22 22 22
88 91 76 79 73 69 72 62 76 81 90 93 79 92 67 50 48 48 57 50 53 52 52 65 78 79 76 76 80 71 69 65 59 58 57 51 40 30 27 25 24 23 22 20
76 68 73 74 61 63 64 72 77 76 86 93 69 82 57 41 48 54 55 51 49 55 54 66 81 78 78 76 76 70 65 61 59 58 55 53 36 31 28 25 24 22 21 20
98 95 80 74 77 64 70 88 97 97 95 83 62 74 58 42 50 46 46 47 50 54 66 81 83 81 78 76 73 68 64 60 58 55 49 38 32 32 29 26 24 23 21 21
98 98 97 81 79 79 83 87 94 90 93 82 47 60 51 46 35 32 38 48 53 57 65 73 78 77 74 72 69 66 62 59 53 46 39 36 36 32 28 24 22 22 22 21
96 94 90 83 68 78 100 98 72 85 84 95 80 70 65 50 55 52 43 45 59 61 66 73 75 72 69 66 62 62 59 54 48 43 40 36 30 25 22 22 22 23 21 20
81 97 79 80 70 80 90 68 96 99 96 94 76 84 62 63 58 40 56 52 58 62 69 74 72 67 63 60 58 57 55 52 44 38 33 28 25 23 22 22 23 22 20 18
77 90 86 94 95 87 91 95 91 73 85 91 90 73 74 59 51 52 55 56 62 67 71 74 69 64 61 54 51 50 47 42 35 30 26 24 23 22 23 25 24 22 19 18
73 92 96 79 69 62 64 69 77 88 84 73 72 60 45 53 47 54 64 69 72 74 75 70 70 66 59 54 47 41 37 33 29 26 24 23 22 23 25 25 23 20 19 18
78 99 96 98 82 83 99 73 64 68 81 72 72 42 44 47 52 56 69 73 74 81 78 76 71 64 59 54 46 39 33 29 26 23 22 21 23 25 26 25 22 21 19 20
68 100 98 89 96 88 97 89 80 78 88 72 66 57 52 59 64 63 68 72 80 79 77 76 71 66 60 53 44 36 30 26 23 22 22 23 25 27 26 24 22 20 21 22
93 100 99 96 95 99 97 78 78 93 74 72 52 70 73 62 66 64 67 72 77 79 80 77 73 69 62 52 43 36 29 24 23 23 24 26 27 27 26 23 21 21 21 22
96 99 100 96 91 96 100 95 80 76 65 59 62 85 56 56 59 62 69 69 73 76 77 75 70 68 60 51 43 34 29 25 24 25 26 28 28 27 25 22 21 21 20 28
99 100 100 100 95 98 100 86 76 69 64 65 92 66 63 60 59 53 64 62 68 71 74 74 70 66 60 51 40 33 28 26 25 26 28 29 27 26 23 21 21 20 28 33
96 99 99 100 99 97 85 81 56 58 66 73 76 80 71 66 62 62 59 59 64 68 72 71 70 67 61 46 38 32 27 26 27 29 30 28 26 24 22 21 20 27 33 34
77 82 96 99 97 69 55 93 88 89 86 82 85 74 65 66 65 62 71 60 67 70 70 69 68 64 54 44 37 31 29 28 29 31 29 27 25 23 22 22 27 33 35 36
83 80 93 92 94 82 50 49 68 68 91 65 64 68 65 68 60 56 78 78 81 79 72 70 61 55 48 40 35 30 31 30 30 29 27 25 23 22 22 26 34 36 36 37
93 92 96 88 87 84 60 49 53 79 55 48 61 66 67 61 75 83 72 70 67 67 61 57 53 48 42 37 33 33 30 30 29 27 26 24 24 22 26 34 36 37 37 38
83 81 88 85 94 89 52 42 46 48 58 62 61 63 83 88 80 75 70 66 61 59 52 48 45 42 37 34 32 32 31 29 27 26 25 24 23 28 34 36 38 38 40 42
91 78 83 78 80 61 54 51 52 55 62 66 72 79 79 79 78 73 69 61 55 52 48 46 42 40 35 33 32 31 30 28 27 25 25 23 28 35 38 39 40 41 43 50
81 76 82 76 63 67 53 51 56 62 69 81 80 77 71 79 75 72 62 58 54 49 47 41 39 38 35 32 31 31 28 28 25 24 23 29 38 39 41 42 42 46 51 58
81 78 77 77 66 59 56 52 66 75 75 76 75 73 73 72 72 66 61 57 53 49 46 41 40 38 35 32 31 30 29 26 24 23 29 35 39 42 44 46 48 51 54 62
75 77 78 77 61 56 53 61 70 74 77 73 72 73 70 66 68 64 63 55 51 50 44 42 38 36 36 33 31 29 26 24 22 26 33 43 43 46 48 51 50 48 60 64

GFSCGP_925_rhum_024.txt.gz
RH
69 87 95 82 82 78 91 90 90 70 59 72 72 71 62 56 65 66 60 54 61 57 45 39 34 35 41 42 46 51 70 83 83 84 76 69 69 66 66 64 54 49 34 25
82 96 73 70 70 76 79 87 83 65 58 74 76 73 58 54 54 55 61 56 56 55 49 47 45 46 46 47 49 52 75 82 79 77 71 69 63 60 55 50 36 27 22 23
90 67 65 72 78 79 77 87 84 80 67 64 70 67 42 35 37 39 41 43 47 53 53 51 57 56 55 58 58 55 73 80 75 73 66 64 54 46 37 27 24 22 23 24
90 70 73 77 81 80 90 72 76 82 89 88 67 80 45 42 36 39 38 44 48 54 53 51 60 74 68 62 66 63 66 76 72 67 63 63 50 36 29 24 22 23 24 24
82 89 92 90 73 73 75 65 78 83 91 94 83 93 67 50 52 48 60 63 56 55 51 54 62 63 68 72 75 73 68 73 69 63 60 54 44 36 25 24 23 23 23 22
73 73 74 74 63 65 65 75 78 81 88 94 70 88 56 44 40 37 32 42 50 53 56 54 63 76 78 83 82 76 71 70 65 60 56 52 47 30 25 25 24 23 22 22
94 88 80 75 83 72 75 100 97 98 97 86 66 80 60 39 38 38 35 48 55 56 61 78 90 90 91 90 82 75 71 65 60 57 52 51 43 33 26 25 24 23 23 22
99 92 86 85 75 80 83 86 94 93 94 82 59 71 59 46 39 36 34 50 52 60 68 77 80 84 88 90 81 74 69 63 58 55 52 47 38 30 27 26 24 23 23 22
99 94 86 75 74 65 98 98 73 94 95 97 82 69 52 52 46 52 46 38 40 63 76 79 84 83 86 86 80 73 68 63 59 54 47 39 32 29 27 25 23 23 22 20
78 96 80 82 80 77 92 78 98 98 96 94 78 72 63 52 47 54 53 56 50 68 75 81 86 84 82 80 76 71 66 60 53 45 40 36 32 28 24 23 24 23 21 19
71 90 87 92 96 86 98 100 100 95 96 86 77 65 57 58 57 64 59 52 58 70 73 83 85 77 73 70 69 65 60 52 46 39 34 28 24 23 23 24 23 22 20 18
70 95 96 81 67 65 68 78 80 88 87 85 85 59 53 64 65 64 63 70 66 70 77 82 78 71 66 63 59 57 51 45 39 33 28 24 23 23 25 24 23 21 19 18
74 98 98 91 85 81 100 87 69 66 80 86 87 51 28 35 51 71 79 87 90 89 86 81 73 68 62 57 51 47 43 37 31 27 24 23 24 25 26 25 22 20 19 20
67 98 95 92 83 96 98 94 98 91 94 72 70 58 43 43 74 76 74 85 92 92 86 80 72 65 58 52 45 40 35 30 27 24 24 24 26 27 26 24 22 20 20 21
84 99 94 95 92 100 100 96 100 98 78 83 57 54 43 64 71 87 77 91 93 91 82 76 73 65 56 49 41 35 30 27 25 23 24 26 28 27 26 23 21 21 20 23
92 97 98 97 86 96 98 97 96 88 77 73 64 63 45 62 75 84 84 82 90 83 78 73 68 62 55 47 40 34 29 25 24 24 26 28 28 28 25 23 22 20 23 30
98 100 100 93 99 95 100 91 90 88 72 69 86 60 46 51 79 77 70 71 74 79 78 74 69 61 54 45 37 34 27 25 25 27 29 29 29 26 24 22 21 22 29 33
95 100 100 99 100 98 91 82 70 75 66 64 61 60 70 77 70 70 70 71 75 77 77 74 69 63 53 42 36 31 28 27 28 30 31 30 28 25 23 21 21 29 34 34
73 88 100 100 98 94 62 90 73 78 75 60 60 55 60 67 66 66 68 62 70 76 73 73 68 61 48 40 35 32 31 30 30 32 31 28 26 24 22 21 29 34 36 35
89 87 98 100 98 93 58 56 70 70 95 73 70 66 68 68 77 63 78 77 80 76 75 74 66 54 46 40 35 32 34 32 33 31 30 27 24 22 21 29 34 36 36 36
98 97 96 96 87 81 62 56 70 87 63 56 73 68 75 79 75 82 74 75 74 75 70 63 58 51 43 38 34 36 34 33 32 30 27 25 23 21 30 35 37 37 37 37
90 88 90 84 93 88 53 54 60 55 57 62 60 69 76 81 81 77 72 71 67 67 60 53 48 44 40 37 34 35 34 32 30 27 25 24 24 32 36 37 38 38 38 40
90 74 81 77 77 59 57 54 55 61 66 66 68 75 81 82 80 74 69 63 58 55 52 48 45 42 38 36 32 35 34 30 28 26 24 25 33 37 39 39 40 42 42 45
80 78 85 75 64 69 67 55 59 68 74 85 82 81 75 82 73 67 60 57 54 50 47 44 41 40 40 34 33 32 30 28 26 24 27 37 38 39 41 43 44 45 46 52
80 79 79 81 72 68 62 56 71 80 79 79 78 76 74 67 66 61 59 56 51 47 44 41 41 42 41 34 32 30 28 26 24 26 33 37 40 43 45 47 47 46 49 65
84 80 79 76 64 60 55 70 73 75 78 74 73 75 71 62 63 57 57 52 49 48 45 44 43 41 37 33 31 29 26 23 22 30 39 42 43 47 48 47 46 46 49 64

GFSCGP_925_rhum_027.txt.gz
RH
70 80 88 82 81 75 87 90 80 70 60 65 63 62 53 46 49 50 47 47 45 51 44 43 39 37 34 34 37 42 50 74 87 94 91 87 84 83 84 81 67 64 55 44
83 91 66 56 70 74 77 83 81 60 54 61 64 68 55 53 51 46 43 42 46 43 45 44 44 40 36 37 44 49 67 82 89 87 83 82 75 69 66 61 53 49 33 25
88 70 67 73 77 75 82 88 71 63 64 61 65 61 37 31 33 37 41 40 38 40 41 44 44 47 39 46 51 53 74 84 86 83 80 74 68 60 44 38 34 27 23 24
91 70 74 83 83 78 88 70 70 76 84 78 64 71 39 33 30 28 32 33 37 38 38 40 43 49 53 45 53 56 74 82 82 80 76 72 62 49 38 35 29 24 24 25
82 84 93 82 72 74 77 65 73 76 88 83 72 88 55 48 47 42 36 36 35 38 42 44 46 46 48 56 58 64 75 79 77 74 74 71 66 50 36 28 25 24 24 24
76 70 74 78 71 66 65 77 78 81 89 95 68 78 55 41 36 34 33 32 41 46 46 46 45 48 65 64 71 73 74 77 73 69 70 68 61 42 30 27 25 24 23 23
81 86 74 69 76 72 72 100 94 96 98 82 61 80 55 40 38 36 34 32 30 38 42 53 63 70 83 88 85 82 76 75 69 64 62 60 52 42 30 26 24 24 23 23
93 88 82 78 73 80 88 89 89 90 87 72 64 78 55 43 35 33 34 33 34 39 50 58 63 71 78 90 90 81 77 73 66 59 55 50 47 34 30 27 25 25 25 23
95 91 82 85 76 67 97 97 70 86 75 94 66 57 45 40 44 45 49 52 49 42 53 61 68 74 82 91 87 79 76 70 62 58 53 50 47 37 28 25 25 25 24 22
78 97 77 81 71 74 88 74 96 98 93 86 78 76 57 46 39 65 65 63 60 52 51 67 74 78 87 90 86 79 73 68 61 57 55 52 40 28 26 24 24 24 23 21
80 87 81 94 96 76 95 99 99 90 89 78 66 55 42 38 64 74 73 68 72 69 54 64 76 85 90 88 82 74 70 64 57 54 46 35 30 27 24 24 24 24 22 20
74 90 98 84 62 64 64 78 80 96 83 90 74 53 55 66 69 75 76 72 80 81 70 81 86 80 80 78 71 65 61 55 50 42 35 30 26 24 24 24 24 23 21 19
76 95 98 84 82 67 95 87 91 95 98 93 86 54 32 46 55 71 79 76 83 86 86 82 77 76 72 69 61 54 48 44 40 34 29 25 24 24 25 24 23 21 20 21
64 90 87 80 82 89 99 98 96 98 97 76 77 58 42 37 39 47 78 82 86 87 82 78 74 68 62 58 51 44 40 37 32 28 25 25 25 26 26 24 22 21 21 20
81 99 94 90 82 92 98 96 97 98 85 91 58 55 43 40 42 73 80 74 82 91 84 76 71 62 53 48 43 39 36 33 29 26 26 27 27 27 26 24 22 22 21 23
81 98 100 96 82 83 99 97 96 95 91 79 68 66 43 59 67 68 66 81 85 86 83 75 67 56 49 44 39 36 34 30 27 28 28 28 28 27 25 24 22 21 24 30
96 100 100 93 78 94 100 95 96 94 84 77 90 64 50 54 56 59 69 88 76 82 79 71 62 55 48 41 38 36 33 29 28 29 30 30 29 26 25 23 21 25 30 33
87 100 100 97 98 98 89 78 80 82 75 70 65 57 58 64 78 78 72 78 68 78 76 68 59 51 44 38 36 33 32 31 30 32 32 30 28 26 24 22 24 30 34 34
82 83 100 100 96 80 66 75 85 82 87 68 68 62 62 64 73 78 75 69 75 77 72 65 58 49 42 38 35 34 34 33 33 34 32 30 27 25 22 23 31 35 35 35
85 80 98 98 99 96 61 63 74 73 84 67 60 60 60 72 83 70 79 81 80 77 73 65 55 46 41 39 35 35 38 37 37 34 31 28 25 22 22 30 35 36 36 36
99 95 96 96 100 81 62 65 72 73 60 60 66 64 76 74 76 77 74 76 77 75 67 58 51 44 41 38 35 38 38 39 34 31 28 25 22 22 30 35 36 37 38 36
88 96 96 94 93 90 54 66 69 54 64 63 65 73 77 82 78 77 72 74 72 69 61 53 47 43 40 37 35 38 40 36 31 27 25 23 25 31 35 37 39 40 38 36
93 75 78 77 73 59 58 56 53 64 70 70 75 73 77 76 75 71 67 62 59 55 52 48 45 43 41 37 35 40 38 30 28 25 25 29 33 37 39 40 42 42 40 42
79 80 86 76 61 71 69 63 62 78 78 87 82 78 75 78 70 66 61 58 55 52 48 45 43 42 42 37 36 34 31 28 26 26 30 35 37 41 43 44 45 45 47 54
80 83 81 81 73 71 66 64 71 80 81 82 77 74 71 67 67 62 59 54 51 48 46 44 43 43 43 37 33 30 28 27 26 31 39 43 44 44 45 46 47 50 52 64
85 80 83 78 63 62 60 68 74 77 80 78 72 71 67 62 62 57 55 50 48 47 45 44 43 42 39 33 31 29 27 26 25 33 40 43 44 46 47 48 45 44 44 58

GFSCGP_925_rhum_030.txt.gz
RH
61 68 69 53 48 46 57 59 60 52 45 48 47 42 37 32 32 33 31 29 28 29 26 30 31 32 34 33 34 35 39 48 58 67 71 87 82 86 81 89 88 86 72 63
69 76 48 48 52 57 60 64 58 47 42 48 45 46 38 34 33 30 28 25 23 22 22 23 28 30 32 33 34 36 43 53 63 68 71 76 84 86 81 84 78 69 64 70
61 56 53 57 57 62 62 70 67 61 46 41 47 44 28 21 21 21 24 24 24 23 21 20 21 26 30 33 35 40 47 61 69 68 76 82 77 76 72 68 63 63 64 31
64 50 58 63 63 58 63 47 56 60 62 68 48 58 32 25 23 22 20 21 22 23 23 22 21 21 25 30 38 46 55 66 72 77 74 72 72 67 62 58 55 45 29 36
66 68 73 72 62 55 64 51 54 56 62 66 59 84 36 31 31 26 21 19 18 19 19 21 24 24 24 30 43 55 62 68 73 74 70 72 73 66 57 55 46 36 31 31
56 55 60 55 52 53 53 62 65 60 69 89 56 70 42 29 25 22 20 18 17 17 21 23 23 27 28 34 55 61 65 68 71 72 71 73 72 58 53 42 37 31 33 34
66 64 60 59 68 62 66 95 75 87 92 64 34 50 47 25 26 24 21 21 20 23 21 21 26 32 36 37 61 66 65 67 70 71 72 76 69 63 46 39 34 31 31 31
78 75 64 68 66 59 74 71 69 65 52 43 40 54 33 23 23 21 24 28 38 36 34 25 24 30 38 48 59 65 64 65 67 69 72 71 67 51 39 35 32 31 30 30
83 81 62 61 56 58 88 96 60 84 64 77 49 32 24 22 24 25 31 42 38 42 42 36 29 32 38 49 59 64 63 64 65 65 59 51 50 43 37 35 31 30 30 29
66 86 58 58 63 63 76 59 89 95 77 65 41 37 35 27 28 41 40 42 47 50 45 42 34 35 44 50 60 64 63 62 62 58 51 47 46 44 41 29 31 31 28 27
60 66 68 75 82 66 83 96 99 70 73 69 57 37 21 22 22 35 42 45 55 57 53 49 39 43 52 58 66 67 64 61 58 53 48 46 46 44 35 31 30 28 27 28
54 71 79 75 44 45 40 52 63 94 80 84 72 59 24 34 42 46 36 41 50 58 60 59 53 54 62 67 69 65 62 57 54 49 46 45 42 32 29 29 28 27 27 27
57 87 86 74 68 55 70 58 55 83 83 92 86 53 24 29 38 33 36 42 47 60 60 61 64 63 63 66 65 62 57 51 47 44 40 34 30 28 27 28 27 27 27 28
57 71 77 65 70 70 98 76 90 98 96 71 73 58 37 31 30 26 25 30 46 62 64 64 66 63 63 63 60 55 49 48 40 35 31 30 28 28 28 28 28 29 28 29
64 100 80 82 68 78 88 84 88 99 92 94 57 49 40 34 34 30 29 44 48 64 66 71 65 61 59 58 50 46 42 37 33 32 31 30 30 30 31 30 30 29 30 32
68 91 91 96 71 71 90 92 95 96 95 95 82 70 42 38 37 38 47 44 49 69 59 72 62 58 56 50 43 39 35 34 36 34 34 33 33 33 33 32 31 33 35 36
74 95 99 95 69 74 90 96 96 89 81 78 95 62 44 45 44 50 52 68 68 68 61 69 60 55 51 43 38 36 38 39 39 35 34 35 34 34 33 31 32 35 36 37
77 96 91 95 82 94 88 73 85 87 82 78 68 58 51 49 60 73 75 83 76 64 62 64 54 50 45 43 38 40 37 36 35 36 35 34 33 32 30 30 33 35 36 37
68 79 94 98 97 70 67 78 92 91 87 64 74 66 68 69 75 74 80 70 67 61 62 55 51 42 40 38 34 33 34 34 35 34 35 33 32 29 28 31 33 37 38 38
78 78 90 80 97 78 62 74 70 64 75 50 59 63 58 54 89 79 75 76 70 61 56 50 46 42 38 35 33 33 32 34 34 34 32 31 28 27 30 34 38 40 38 38
92 95 94 96 98 67 48 51 65 59 54 52 55 59 55 63 70 72 71 74 67 62 54 46 41 37 35 33 32 32 32 34 35 34 31 29 29 30 35 40 41 41 39 38
76 79 87 88 93 82 46 54 61 50 52 54 57 63 84 66 84 71 72 71 68 64 53 45 41 38 35 33 32 32 36 36 34 31 30 31 34 38 43 45 45 43 41 38
79 56 57 59 52 46 48 48 46 54 57 57 65 60 68 68 75 76 66 61 57 52 48 43 40 37 34 33 34 36 36 34 32 31 34 37 40 43 46 45 47 41 42 38
64 61 65 65 48 52 50 50 55 60 64 68 69 65 60 62 62 62 58 56 52 48 45 42 39 37 36 35 36 36 34 32 32 34 36 38 40 42 44 44 48 44 41 39
59 68 67 66 52 47 51 54 56 65 64 64 63 63 59 57 59 57 55 52 49 46 43 40 38 38 37 36 35 34 32 32 33 35 38 43 44 43 45 47 49 48 49 58
63 59 57 48 48 51 50 58 62 65 67 60 61 61 56 55 56 51 50 47 46 44 42 41 40 37 36 34 34 33 33 34 35 37 38 41 43 46 46 46 43 43 40 45

GFSCGP_925_rhum_033.txt.gz
RH
49 56 60 45 44 40 37 45 42 34 32 38 37 35 30 25 24 26 25 26 24 23 21 22 24 26 22 22 25 26 26 30 36 43 52 57 67 72 80 81 83 78 69 66
67 77 44 37 38 42 45 49 46 36 32 37 37 36 28 25 24 24 24 24 23 21 19 19 21 23 26 25 26 27 27 30 38 45 54 58 77 86 85 85 81 68 64 65
61 46 42 44 48 53 48 52 50 51 43 37 38 38 25 19 19 20 21 21 21 20 18 16 16 19 24 26 26 28 28 32 41 48 56 69 83 85 86 83 75 70 67 62
55 40 48 48 52 46 54 37 42 47 54 53 40 51 29 21 19 18 18 17 17 18 18 18 17 16 18 24 27 30 30 35 46 54 63 73 80 77 78 80 72 71 63 56
59 56 56 58 50 43 54 44 49 49 54 61 51 63 35 24 25 22 20 17 16 16 16 16 18 20 19 19 28 34 36 40 53 61 63 75 68 71 78 78 70 64 49 36
46 43 49 50 46 46 48 50 54 53 62 84 50 42 34 23 19 16 16 16 15 14 15 16 17 17 19 22 25 36 41 46 56 63 69 67 65 69 69 68 60 48 42 38
61 55 49 46 56 50 54 74 68 79 88 63 26 40 39 22 21 19 18 17 17 18 23 25 21 18 22 24 27 39 48 52 59 68 64 64 70 63 67 58 51 49 43 36
78 75 53 58 58 56 59 62 65 58 47 39 28 42 27 17 18 18 18 17 18 25 27 31 32 24 21 30 31 40 51 54 60 63 64 66 68 67 58 57 54 47 44 37
69 72 48 52 47 48 65 87 52 70 54 64 40 27 20 18 17 16 17 20 23 30 34 34 35 31 20 25 35 43 52 54 58 63 65 70 68 62 50 48 47 38 34 33
57 78 50 51 49 50 57 51 84 93 81 60 36 32 29 21 18 18 20 32 32 35 35 38 37 33 25 27 34 47 51 54 58 62 68 68 59 44 44 41 35 32 32 30
51 58 65 61 70 58 69 77 77 64 74 63 55 39 19 21 21 19 31 31 35 39 39 40 43 35 30 33 38 48 52 55 58 62 56 51 49 48 44 40 38 34 30 30
49 56 78 64 41 39 41 59 61 91 63 78 78 64 26 23 22 31 30 29 30 35 40 43 49 44 43 44 49 53 55 56 58 52 49 48 46 43 41 39 34 29 30 29
50 72 79 81 55 44 54 50 47 67 85 93 86 57 24 27 25 24 30 26 24 32 42 45 50 52 51 54 57 57 56 55 51 48 47 44 40 38 35 34 32 29 28 28
48 60 73 68 79 67 97 69 64 95 98 72 66 56 39 32 31 33 27 28 23 27 38 52 56 54 52 56 57 56 53 51 48 45 41 40 37 34 32 30 29 29 28 28
57 99 70 70 63 71 79 74 74 98 95 98 69 66 53 46 39 33 32 28 28 34 43 59 58 56 58 57 56 50 47 46 43 40 38 32 30 30 31 30 30 29 30 30
61 86 85 90 56 57 67 55 75 93 95 96 95 94 70 52 38 38 36 33 36 37 39 59 60 56 58 54 49 48 46 40 37 34 33 32 31 33 32 31 31 33 36 33
71 92 88 75 61 60 78 95 96 94 91 95 99 68 49 46 42 44 62 63 57 54 54 61 60 56 54 46 44 38 39 42 42 40 39 40 42 41 42 34 35 35 34 35
72 78 83 86 67 83 57 50 65 86 85 79 83 72 63 60 65 61 78 81 81 69 66 62 56 53 45 39 38 45 51 51 51 48 49 45 35 34 33 33 35 34 35 36
66 68 76 83 70 57 51 50 66 89 94 61 73 78 76 79 77 86 81 76 66 56 58 54 50 44 40 43 47 50 52 54 54 63 70 51 37 32 32 33 33 34 36 36
67 65 80 68 91 73 53 51 50 61 82 52 51 60 62 72 96 96 86 69 62 56 51 45 43 38 42 48 53 57 57 59 62 50 34 30 29 30 32 34 36 36 36 37
98 100 98 95 91 56 37 44 57 66 55 52 53 65 63 77 88 83 71 65 63 59 52 48 50 52 68 77 80 76 64 58 48 33 29 29 30 32 36 38 39 38 36 35
69 78 88 92 98 83 39 42 60 49 47 49 52 64 83 77 68 74 71 65 56 50 43 44 43 40 39 38 33 32 34 34 32 30 30 32 34 37 40 40 40 39 37 35
66 47 57 57 57 37 38 46 43 46 53 51 58 54 80 86 92 67 74 62 57 49 43 38 35 33 32 33 34 35 34 32 32 33 34 37 41 45 47 46 46 38 38 34
50 45 57 57 42 41 40 40 44 52 56 58 59 57 67 60 62 61 57 53 52 47 42 37 34 32 34 36 36 34 32 32 33 35 36 38 39 40 41 43 44 40 37 33
51 58 56 54 46 40 45 48 50 54 54 55 57 57 55 55 57 56 55 51 46 43 40 37 35 36 36 35 34 32 32 33 34 35 36 39 41 39 41 42 44 43 42 44
47 52 58 50 39 46 45 50 53 56 57 55 56 56 52 52 54 51 50 47 44 42 40 39 37 35 34 33 32 32 33 34 35 37 37 37 40 40 41 41 40 41 34 29

GFSCGP_925_rhum_036.txt.gz
RH
72 79 87 71 60 56 54 49 47 41 31 37 42 39 35 30 29 30 30 30 28 28 26 22 21 23 21 19 19 25 26 28 32 41 54 60 61 65 63 65 68 70 72 74
62 76 49 43 45 52 46 50 52 42 34 39 43 44 36 31 28 26 26 26 26 26 26 24 22 23 24 25 24 21 27 29 30 33 43 56 65 77 64 74 77 78 77 68
63 51 45 48 47 51 52 57 54 51 44 42 45 47 36 26 27 26 25 23 23 24 24 24 23 22 24 25 26 26 25 28 33 35 42 62 73 84 85 84 84 81 73 66
60 44 44 48 54 48 61 42 45 47 58 68 47 76 42 30 26 22 23 24 26 25 23 22 22 21 20 24 26 26 27 27 30 36 50 67 80 89 86 83 76 65 65 62
63 52 57 58 50 44 52 47 50 52 62 64 59 77 49 28 30 25 22 22 21 23 23 23 25 21 18 18 25 26 26 29 32 38 55 74 82 82 85 84 76 72 68 60
51 41 47 50 44 45 48 51 53 58 62 89 70 62 51 28 25 25 22 22 22 20 22 24 23 21 21 19 19 21 33 30 36 46 61 77 81 79 84 84 75 68 65 48
62 59 49 47 56 50 52 68 94 97 92 89 34 56 42 27 23 25 23 22 20 19 23 29 34 40 32 21 21 22 27 37 38 56 65 76 73 74 78 81 73 66 54 45
84 77 59 52 58 62 65 65 93 82 85 64 41 53 39 23 21 19 18 20 22 20 29 39 41 45 40 32 23 25 29 44 50 64 72 73 71 73 76 76 69 59 51 44
77 69 47 53 48 54 65 82 55 77 63 87 58 34 26 22 22 21 20 22 24 23 42 39 43 44 40 35 29 29 34 47 56 69 68 68 71 71 70 63 60 57 49 43
62 70 51 54 44 46 57 51 91 95 96 82 55 47 40 28 26 22 24 32 33 41 38 43 45 47 44 36 27 32 39 51 60 67 68 70 68 65 62 60 57 52 48 38
49 60 67 66 71 69 69 74 71 71 81 86 78 55 28 32 29 30 30 34 37 46 46 45 48 50 52 40 33 37 47 54 61 66 71 70 63 56 53 48 43 41 35 33
49 62 89 78 48 51 52 65 64 88 78 79 90 70 32 32 29 30 31 42 45 38 41 45 50 54 54 49 43 47 51 57 66 66 60 56 47 46 45 40 39 34 33 31
53 76 90 86 61 49 60 56 54 64 84 90 93 65 28 32 33 31 32 32 30 32 41 51 56 60 61 59 56 52 58 64 55 55 52 49 46 44 40 37 37 35 35 32
50 64 82 92 87 80 94 76 62 74 98 81 75 65 49 42 43 43 45 32 35 34 34 60 61 63 61 60 69 62 58 51 51 50 48 46 45 39 37 36 36 35 35 28
61 98 78 77 65 70 79 78 73 98 95 98 78 78 67 68 72 62 56 42 37 36 34 66 64 66 62 64 63 54 52 48 46 46 43 41 36 36 35 35 32 30 29 30
61 97 83 90 67 66 77 65 64 70 93 96 92 91 66 62 62 54 58 64 62 46 41 70 63 60 69 60 50 48 46 44 44 41 37 36 36 39 40 40 41 47 37 30
78 96 94 87 66 68 81 68 82 93 85 92 98 92 77 75 72 84 87 83 79 73 71 66 63 62 50 49 47 43 41 40 37 36 36 39 42 41 41 43 42 34 34 34
93 89 86 96 79 95 67 65 66 74 72 74 79 71 70 77 79 88 90 92 88 83 71 67 62 49 45 40 42 43 44 43 44 48 51 53 55 61 62 49 52 57 41 34
84 90 93 95 80 67 50 52 61 76 78 71 63 61 74 81 89 92 85 78 72 74 64 58 47 41 40 46 49 55 59 67 72 84 80 74 77 80 78 58 40 36 36 34
84 83 85 90 95 83 54 52 50 68 89 58 64 76 77 84 94 97 90 75 52 48 47 42 43 45 52 55 64 67 69 81 90 94 92 89 87 72 42 35 35 36 36 36
98 94 97 96 96 72 44 51 60 88 74 59 56 79 81 92 96 84 74 82 57 48 43 44 51 59 63 76 78 84 86 90 90 87 78 59 39 35 35 35 35 34 34 33
85 92 92 97 99 92 43 48 62 61 55 57 54 71 88 79 84 80 69 66 88 91 88 86 88 93 97 93 92 96 97 94 82 60 44 38 37 37 36 36 36 35 35 35
73 60 70 71 74 47 48 47 49 57 62 62 63 62 88 89 80 74 67 59 48 50 79 94 96 99 100 93 85 76 55 35 34 34 36 37 39 41 39 37 37 37 36 34
56 50 69 60 50 50 49 50 55 59 63 62 61 62 72 88 70 63 70 73 60 43 36 35 37 37 38 36 35 35 34 36 37 40 42 43 43 43 42 40 39 37 36 34
65 61 64 66 58 51 52 55 56 60 57 58 59 61 67 65 65 62 59 54 49 44 39 38 39 38 37 35 35 35 35 36 38 38 39 41 40 39 40 42 42 41 43 36
60 68 73 74 50 53 58 57 56 62 61 59 63 64 63 62 62 57 54 50 46 43 41 40 38 36 35 35 35 35 35 35 38 39 39 39 40 41 42 41 39 38 36 33

GFSCGP_925_rhum_039.txt.gz
RH
83 89 95 85 80 67 63 67 60 48 39 41 48 51 45 38 40 36 34 37 36 32 29 26 24 22 20 18 18 20 29 55 61 69 75 74 72 68 63 63 63 63 62 64
75 83 64 60 60 63 70 69 60 50 40 44 49 48 40 38 36 33 32 36 36 32 31 30 26 23 24 23 23 22 27 46 56 64 69 75 71 69 66 65 64 63 65 66
78 56 49 55 56 60 55 61 60 59 52 49 53 56 48 40 36 33 30 28 27 28 28 30 30 25 22 23 24 24 26 27 51 56 64 69 77 82 84 81 67 69 69 71
63 48 50 57 60 53 65 50 54 56 64 76 55 87 65 39 31 27 35 36 30 28 29 30 30 27 23 21 20 23 24 26 30 35 45 58 73 89 87 81 73 74 74 75
75 58 58 57 55 48 60 52 57 60 69 71 69 80 67 49 34 30 26 28 30 32 29 27 29 25 21 19 18 20 25 23 26 32 38 45 81 82 82 86 82 78 75 73
57 46 50 57 46 50 50 53 56 63 72 97 76 74 62 38 28 25 26 23 26 25 27 26 25 29 30 26 23 21 20 28 31 29 45 56 76 82 90 87 82 79 77 72
63 61 50 48 61 51 61 70 95 89 91 89 60 80 63 34 29 27 27 25 24 24 28 35 42 47 43 40 37 33 26 23 25 37 52 71 70 77 84 85 79 74 68 56
88 88 67 56 62 70 72 69 91 91 98 83 54 66 48 32 27 27 22 23 22 26 40 44 46 48 42 39 38 40 36 27 23 50 67 72 76 83 87 86 81 75 69 55
89 78 53 52 51 57 71 86 62 82 75 94 71 49 34 27 28 27 27 27 28 28 49 47 46 46 43 42 46 47 38 33 27 64 78 80 81 82 84 86 84 77 69 57
62 79 63 58 50 55 60 59 85 94 96 93 74 63 47 34 32 32 34 35 40 46 46 49 50 49 45 43 49 48 35 36 44 76 79 81 81 80 81 80 75 70 63 52
51 62 76 62 69 74 72 66 64 78 91 93 96 73 39 36 33 34 37 37 45 51 51 51 50 50 48 44 50 54 43 43 71 83 79 77 77 75 74 72 68 63 51 47
51 70 94 80 60 57 63 68 73 93 76 93 94 72 36 35 37 36 35 33 32 40 48 53 57 55 54 52 54 61 51 67 82 76 75 75 74 70 67 64 59 53 45 45
57 78 93 83 69 59 73 67 64 70 84 91 89 67 36 36 38 37 41 52 50 38 44 59 63 60 63 60 69 70 77 75 72 71 67 61 60 58 55 48 46 46 44 38
51 75 80 86 83 82 89 77 68 77 98 81 76 62 51 47 50 54 61 67 60 49 40 65 69 64 63 72 67 65 62 63 65 59 56 51 50 46 43 43 43 41 43 39
67 88 81 78 75 80 77 78 78 87 80 97 68 71 63 63 72 74 71 73 59 58 48 72 73 71 76 72 63 62 66 61 58 58 54 52 44 41 41 41 40 37 32 33
68 96 91 92 74 77 86 72 73 74 73 77 80 94 66 63 65 75 82 80 80 75 75 72 71 81 67 61 60 57 58 57 54 57 47 45 40 40 42 43 40 37 37 37
80 94 98 96 71 75 87 70 66 78 85 84 97 80 64 70 78 87 93 91 87 84 76 71 71 61 55 52 51 57 52 50 49 46 42 44 47 51 53 45 45 58 70 73
85 93 93 95 83 94 64 58 62 75 77 77 79 72 71 81 84 86 89 84 73 70 86 74 60 53 47 46 48 45 45 46 47 47 53 58 63 68 68 76 82 75 61 64
79 84 97 96 95 70 54 57 64 82 78 67 78 67 81 78 85 90 86 53 54 65 65 53 46 46 50 50 51 57 65 67 64 74 81 77 74 89 94 79 77 89 88 63
85 83 98 97 98 88 57 52 53 73 93 60 61 74 88 82 96 97 86 51 47 50 45 47 51 56 59 65 70 75 77 80 88 91 94 89 90 93 97 96 78 56 36 35
100 100 98 91 97 82 55 47 64 83 69 60 57 71 84 92 93 76 80 76 55 53 54 59 64 66 75 79 82 90 94 99 100 100 99 100 97 89 60 43 37 35 34 33
90 96 99 97 99 93 46 57 69 61 61 61 58 73 84 87 82 69 74 86 84 82 80 80 79 90 95 92 94 99 100 100 100 96 92 73 59 44 39 36 35 34 34 35
88 74 80 80 77 52 48 51 58 59 66 66 67 72 83 84 77 67 59 75 88 92 96 98 97 100 100 100 100 100 100 95 93 78 58 51 42 38 36 35 35 36 34 35
58 53 66 69 57 58 52 57 58 59 61 61 62 76 90 85 75 79 68 47 60 64 73 84 80 81 90 94 96 94 87 56 45 45 45 42 41 41 40 38 38 37 35 36
74 70 71 76 66 59 58 58 58 61 58 62 66 69 84 71 70 71 68 59 46 42 40 40 40 39 38 38 39 38 38 37 41 43 43 44 42 39 40 40 39 37 36 27
72 73 81 81 59 58 61 58 58 60 61 62 66 70 68 67 65 58 56 51 46 44 42 41 39 38 38 38 38 37 36 35 38 41 40 39 40 41 40 41 45 46 39 39

GFSCGP_925_rhum_042.txt.gz
RH
91 90 95 86 73 63 62 66 70 60 41 44 48 52 47 39 42 43 38 40 40 38 32 31 28 26 25 23 21 22 24 52 74 85 89 88 85 78 73 71 72 65 63 57
96 93 76 75 78 72 70 70 66 54 43 44 52 52 41 37 36 35 33 32 34 34 33 34 28 25 25 25 23 21 23 26 65 81 66 77 81 83 74 71 72 65 63 59
79 63 56 61 65 72 62 65 62 62 55 48 56 43 41 39 38 35 30 31 32 33 30 28 35 28 25 24 23 24 26 25 38 72 77 75 84 86 88 81 79 68 64 67
67 48 56 62 62 55 64 53 54 59 64 79 58 78 65 46 44 36 32 41 40 35 31 30 29 31 25 22 22 21 22 28 28 54 74 75 67 85 84 77 78 71 67 69
72 62 58 61 59 50 62 53 56 59 70 72 71 82 63 48 37 29 25 26 30 33 37 35 35 30 25 24 23 22 21 20 26 33 64 76 71 72 64 82 82 78 79 76
58 49 53 55 52 50 52 57 67 72 76 92 71 75 63 42 30 26 25 28 28 28 29 32 28 34 38 37 35 30 24 24 28 30 40 56 79 81 79 90 92 88 85 83
65 62 52 51 64 54 58 70 90 89 97 81 63 83 71 47 36 29 29 30 28 26 28 38 44 49 41 38 36 35 36 34 29 31 40 48 76 76 75 80 89 87 83 80
88 89 62 54 62 71 66 67 87 74 97 88 62 78 49 37 34 29 27 30 26 27 36 50 49 50 44 38 32 34 37 40 36 31 28 50 62 73 82 81 83 83 83 77
88 77 57 56 55 58 72 84 63 83 79 95 75 59 36 31 32 32 36 36 46 36 42 47 48 48 45 40 37 38 42 43 39 34 32 54 74 80 78 80 84 86 83 79
67 91 63 58 53 54 59 61 85 92 91 88 75 70 47 34 33 36 40 44 44 50 52 54 56 48 42 41 35 37 47 51 45 39 52 70 83 83 78 83 86 86 81 75
53 74 80 65 68 76 75 76 74 80 87 91 94 72 47 36 36 42 43 42 43 47 48 41 52 49 46 42 38 39 44 53 52 61 72 82 89 92 93 90 86 84 78 71
53 78 93 77 60 57 63 70 72 93 70 96 92 79 42 43 38 40 39 43 47 47 55 52 47 55 54 48 48 49 54 57 64 82 84 90 93 95 94 90 87 84 74 64
57 80 93 83 70 68 76 70 69 74 88 95 91 72 39 44 36 37 49 58 60 61 65 58 52 59 59 60 63 69 71 80 88 89 89 90 89 89 84 78 72 64 59 52
58 76 75 87 75 80 85 77 75 76 98 87 84 63 50 45 44 50 64 68 71 67 71 58 59 67 71 81 69 70 71 77 77 80 82 81 80 76 71 63 52 47 46 46
64 85 85 81 76 83 79 76 80 88 75 93 64 71 61 56 54 68 75 74 74 78 77 79 76 83 84 72 67 66 63 64 66 67 64 56 50 51 48 48 47 46 47 46
70 84 92 90 73 80 88 78 76 72 69 70 72 78 54 55 60 80 87 87 84 83 78 73 79 79 74 69 62 66 71 76 74 66 64 60 64 66 53 51 55 52 55 61
78 95 96 98 70 78 93 80 73 72 73 67 87 74 63 66 78 92 94 82 71 65 74 78 72 63 61 58 60 63 65 63 62 60 62 61 61 64 67 62 58 60 63 71
89 90 95 97 81 96 68 52 56 63 66 76 78 74 68 73 86 88 81 66 60 52 67 84 64 55 52 55 55 66 76 81 81 82 78 80 72 78 74 66 68 78 84 89
72 82 97 99 97 71 58 60 64 78 72 66 79 74 66 81 87 92 78 50 54 48 49 54 54 52 54 59 64 64 73 79 84 87 84 79 64 68 76 88 95 94 92 93
82 82 96 97 98 83 55 49 62 68 93 65 65 69 75 83 93 94 82 52 52 53 54 57 60 67 72 73 70 72 76 78 85 89 88 86 91 97 99 100 99 100 97 83
100 99 94 90 97 81 57 50 67 80 69 60 61 65 82 84 89 80 76 72 69 67 66 71 76 80 90 80 77 87 97 100 100 100 100 100 100 96 95 95 91 74 52 40
91 87 92 90 98 94 47 67 70 63 65 63 62 73 86 89 76 68 83 85 82 87 82 87 92 95 96 95 96 100 100 100 100 100 100 99 98 95 80 57 40 36 35 36
83 80 82 82 76 53 47 54 53 60 69 65 69 77 86 89 74 66 80 88 87 89 92 96 99 100 100 95 95 100 100 98 98 99 86 61 50 44 38 35 36 36 36 35
66 57 73 71 59 56 50 56 56 59 62 62 65 81 83 83 70 59 60 80 83 89 92 93 95 98 100 99 98 95 97 92 73 57 54 46 40 38 37 36 36 35 36 38
81 70 69 74 70 59 58 57 57 60 59 63 66 83 89 78 78 67 58 61 58 58 58 55 57 61 70 78 90 90 77 52 48 45 42 41 42 40 41 41 40 34 31 28
77 77 77 70 60 64 65 55 57 61 60 63 71 76 74 71 74 66 59 52 45 45 44 42 42 42 43 43 43 43 43 42 40 45 46 44 42 42 42 44 54 54 53 46

GFSCGP_925_rhum_045.txt.gz
RH
90 97 94 83 73 62 67 71 72 64 47 46 52 53 47 41 43 46 43 41 43 40 34 32 29 27 29 27 28 27 26 28 66 90 100 100 100 96 90 84 76 70 69 64
99 94 81 81 78 80 71 75 72 58 47 47 56 56 44 40 38 36 35 34 34 33 36 35 30 26 25 25 24 26 27 28 51 78 87 91 92 90 76 80 80 75 73 73
80 75 73 80 84 91 77 76 67 64 56 51 61 53 44 36 37 36 36 34 32 33 31 29 33 30 25 26 24 24 24 26 38 67 82 91 88 88 98 92 86 79 75 76
63 50 71 68 78 70 69 52 56 61 64 79 59 80 63 46 45 41 37 35 38 39 37 35 33 32 29 26 24 24 24 26 29 57 89 90 90 91 93 79 71 77 78 77
73 61 69 72 62 51 62 54 59 61 72 68 69 83 63 43 34 27 27 27 28 30 34 36 38 33 27 26 24 23 23 24 26 33 77 86 89 82 78 83 76 80 83 82
61 51 51 54 57 51 54 58 68 79 75 88 67 72 57 40 31 35 30 32 32 33 34 34 31 33 38 34 30 27 25 23 22 23 34 73 86 85 80 87 91 81 88 86
68 65 53 54 66 58 59 70 86 80 93 80 73 79 59 44 40 37 39 36 37 34 33 41 53 53 46 41 37 34 34 33 34 34 31 37 58 86 77 74 88 93 92 91
93 93 62 54 62 71 66 66 82 64 89 84 70 84 50 40 35 31 34 37 49 53 47 56 57 54 49 42 36 36 37 35 32 34 37 39 40 59 77 79 79 76 79 90
84 76 59 56 56 58 74 85 63 84 80 95 72 57 36 35 40 39 42 43 45 46 50 49 51 46 43 42 39 35 31 31 31 35 38 37 40 55 62 63 78 82 87 85
65 91 64 60 54 59 61 65 85 93 66 82 65 70 46 34 35 41 42 43 45 44 48 50 48 45 41 42 42 42 39 37 35 38 42 42 43 55 62 70 86 89 87 89
61 74 83 66 69 80 74 83 84 82 84 86 89 59 50 38 37 44 47 47 52 62 66 62 57 52 49 47 44 46 46 50 43 45 50 52 67 87 83 88 93 92 91 88
56 80 93 75 62 59 64 71 76 86 74 94 87 81 45 47 41 44 40 45 53 59 64 69 68 62 58 54 54 52 67 66 61 60 71 79 86 95 100 97 96 93 89 84
57 80 92 83 67 68 73 71 70 76 85 97 90 70 43 46 42 42 46 52 65 66 69 72 74 69 62 67 74 73 71 74 79 93 96 98 100 100 100 98 94 87 80 73
58 74 73 84 74 81 89 80 76 78 99 89 86 75 48 47 48 48 50 76 75 70 70 70 82 81 79 79 72 68 66 72 78 89 96 98 99 97 94 89 86 79 70 61
63 85 84 79 73 84 78 74 85 84 76 89 65 70 56 49 48 51 78 78 76 75 72 74 78 90 87 72 69 72 75 71 74 77 78 77 82 81 72 67 66 63 60 57
69 91 91 87 71 81 89 80 79 82 77 77 72 73 49 44 49 72 85 82 76 67 62 58 74 71 72 69 68 72 72 76 74 74 76 67 63 62 64 63 64 66 65 58
74 92 92 97 71 80 89 80 79 72 72 62 76 61 56 65 66 84 90 78 64 60 54 64 72 62 63 64 68 74 71 67 70 71 77 79 83 86 82 74 71 72 70 66
84 89 93 98 78 94 61 59 60 63 61 65 66 63 59 71 76 86 80 64 58 57 53 62 59 60 59 64 74 79 83 86 85 84 85 90 92 94 93 90 85 84 80 83
68 83 94 98 98 72 58 52 69 72 70 63 70 69 72 66 87 93 75 51 56 56 54 55 60 60 63 63 74 85 94 96 94 100 100 96 94 90 95 99 98 98 95 98
80 81 93 96 97 89 59 56 62 66 83 60 73 70 69 81 92 87 81 64 61 59 62 68 73 72 70 72 75 79 84 89 94 100 100 100 100 100 100 100 100 100 99 100
100 100 97 81 91 80 55 49 70 79 73 60 62 68 70 89 82 84 76 73 71 71 74 83 87 91 93 90 91 100 100 100 100 100 99 100 100 100 100 100 100 100 96 74
94 96 91 92 98 91 49 69 70 62 62 63 67 65 79 81 76 70 86 82 82 83 85 90 92 98 95 91 90 100 99 100 100 100 100 100 100 100 99 84 64 46 42 40
96 81 84 83 77 53 48 50 53 60 67 63 68 69 83 87 77 70 87 88 84 86 92 98 98 99 99 96 94 99 100 100 100 99 99 94 82 60 46 40 37 37 38 36
74 65 75 79 63 62 57 60 59 56 60 62 67 72 86 85 71 62 83 89 88 90 91 93 96 99 100 100 100 99 99 97 89 66 52 45 42 40 39 37 36 36 37 39
83 74 73 73 69 64 57 57 57 58 60 62 68 72 86 82 74 58 68 73 75 76 70 80 84 90 92 99 99 94 73 75 61 49 44 43 40 39 40 40 36 30 30 29
76 74 84 86 65 66 69 63 58 62 62 62 69 78 85 78 75 63 58 58 52 52 54 56 57 60 64 73 75 62 54 47 42 45 45 42 40 42 43 45 58 60 62 62

GFSCGP_925_rhum_048.txt.gz
RH
84 95 94 77 77 66 72 72 71 65 52 49 59 58 51 42 45 47 45 42 38 36 36 34 30 28 28 27 27 28 28 27 62 100 100 100 100 100 100 96 89 81 78 74
97 94 85 74 69 68 72 80 77 61 50 50 58 60 48 41 41 41 39 38 36 36 34 36 32 29 27 27 27 28 29 28 33 80 92 99 97 99 98 95 88 88 82 79
87 86 79 81 84 83 85 81 75 69 56 54 64 57 45 37 37 35 36 38 38 38 36 33 35 31 29 29 27 26 27 27 28 59 82 100 96 100 100 100 98 87 88 84
66 77 84 90 89 84 97 60 59 60 65 80 61 82 61 47 42 37 37 35 34 32 33 36 38 36 31 26 25 25 25 27 28 38 86 97 94 96 98 97 80 85 83 86
87 84 92 95 82 68 64 56 61 64 72 67 68 79 56 42 34 33 34 39 40 36 36 42 42 36 33 32 29 27 26 27 27 30 67 87 97 94 89 90 94 98 90 85
65 52 55 58 62 52 57 60 68 75 75 87 66 68 47 36 38 40 40 45 50 47 45 47 49 46 46 44 44 42 32 27 28 30 34 79 90 94 94 88 90 92 92 94
71 65 54 54 65 56 58 72 90 73 87 75 71 76 55 46 43 40 39 44 51 53 53 55 56 55 44 40 38 36 39 39 38 37 33 38 67 90 90 85 88 95 96 99
93 92 62 55 60 70 67 67 83 59 79 70 73 87 44 43 37 39 40 42 44 47 53 52 52 50 45 40 38 40 39 36 39 38 38 40 39 47 72 90 87 85 82 73
85 81 60 56 57 57 72 84 62 87 81 92 68 56 30 41 40 39 45 45 48 48 49 55 57 53 50 44 49 48 45 42 36 42 43 42 45 43 43 46 67 87 86 82
65 93 66 62 56 63 62 66 82 90 71 68 55 63 39 35 38 47 47 47 49 55 64 67 68 61 57 58 57 53 49 48 43 49 50 47 46 47 47 49 59 76 86 93
64 73 84 65 69 78 73 86 83 80 82 73 68 41 48 41 41 49 49 50 56 66 74 77 77 69 68 66 63 58 58 64 64 65 61 60 64 66 68 77 84 90 98 98
60 78 94 78 63 61 64 73 75 82 82 90 90 73 44 46 43 48 50 51 58 68 75 79 80 76 77 71 76 78 69 66 69 71 76 86 90 95 99 100 100 100 100 98
59 80 94 85 67 67 74 72 71 76 83 98 94 60 45 50 46 44 51 58 80 75 79 79 80 86 88 79 74 70 74 64 64 71 81 99 100 100 99 99 100 97 95 91
58 72 72 84 73 82 90 82 76 78 95 86 89 74 50 47 50 46 52 79 76 70 73 62 66 89 89 72 76 81 73 69 75 84 94 96 99 100 100 97 90 86 82 76
63 85 80 76 70 85 78 75 86 83 77 86 69 77 57 53 51 49 57 79 74 68 62 62 62 73 72 70 74 71 76 75 75 75 74 81 82 84 88 89 81 75 71 73
67 98 91 88 70 84 91 82 83 84 77 81 72 74 50 45 47 62 84 82 74 60 61 52 69 74 64 72 74 70 68 74 74 73 75 74 78 78 80 81 81 78 78 76
72 92 90 89 74 81 90 83 80 82 76 69 85 60 51 62 63 74 88 79 66 60 55 59 65 64 67 77 79 80 78 79 82 81 80 82 81 86 87 83 87 92 94 89
81 86 91 99 78 92 51 62 64 63 59 64 60 56 54 62 67 85 78 65 59 58 57 58 56 59 64 73 82 89 92 90 90 94 99 94 90 89 87 81 89 89 89 93
64 84 91 94 100 74 57 69 70 70 63 61 62 61 62 66 81 93 73 55 56 58 59 62 66 68 70 75 82 87 91 97 99 99 100 100 100 100 100 99 100 100 100 100
81 80 85 95 85 93 56 59 62 61 84 57 72 76 74 77 90 87 80 65 64 63 69 74 78 79 79 83 84 94 100 100 100 100 100 100 100 100 100 100 99 100 100 99
95 99 96 80 81 82 56 50 67 89 76 60 63 70 71 82 85 83 74 73 74 78 81 89 91 94 94 92 88 100 99 100 100 99 100 100 98 99 100 100 100 100 99 98
79 88 92 88 94 93 51 70 76 64 60 62 65 64 72 79 78 80 83 81 84 89 89 91 94 98 96 90 92 100 99 100 100 100 99 100 100 100 100 99 99 70 52 45
95 86 88 78 78 55 51 50 51 62 60 60 65 64 70 83 80 83 88 84 83 90 93 97 96 98 98 98 99 99 100 100 100 100 99 99 99 93 73 47 42 40 38 38
78 67 80 80 66 70 61 64 62 60 61 59 64 67 72 84 80 73 88 89 86 89 89 93 96 99 100 100 99 99 99 98 92 77 63 51 43 41 40 39 38 37 39 42
78 71 75 76 68 69 59 59 58 61 61 62 64 70 78 86 79 67 86 88 88 88 90 89 92 95 100 99 98 89 87 72 49 44 44 43 40 38 38 36 33 29 30 30
83 79 89 89 75 85 81 72 75 70 67 65 66 70 83 85 82 62 77 69 78 66 67 75 81 84 90 92 83 67 71 54 43 44 42 42 44 45 45 53 65 67 66 70

GFSCGP_925_rhum_051.txt.gz
RH
87 90 88 80 73 62 65 71 71 65 53 52 60 60 50 43 44 43 41 38 35 32 32 31 29 28 30 30 30 29 30 29 77 100 99 100 99 100 100 98 94 88 85 81
97 87 70 67 65 66 69 76 76 62 52 52 57 56 46 41 43 42 40 38 38 36 32 31 31 30 32 31 30 29 29 30 33 82 89 93 97 99 99 100 100 97 91 89
97 90 66 69 77 75 80 78 76 68 56 55 60 56 45 38 35 35 33 34 33 34 30 32 35 35 32 32 31 30 29 29 30 47 85 98 97 97 98 99 98 99 96 94
94 90 84 81 78 72 92 72 63 59 65 71 60 66 53 45 32 36 41 43 39 36 34 41 49 48 46 45 35 30 30 30 30 31 81 96 88 89 93 96 97 100 100 99
89 97 93 91 89 72 83 58 61 62 69 66 65 65 43 36 37 38 41 46 48 44 44 47 52 51 44 42 42 39 34 29 30 34 51 95 94 85 89 95 99 100 100 100
65 57 66 88 85 80 58 60 66 70 70 81 64 65 38 38 39 40 40 42 47 48 49 50 52 52 52 44 39 38 36 37 37 33 39 71 98 98 100 98 100 100 98 100
95 75 57 68 87 64 57 73 86 68 82 77 72 74 49 41 41 40 39 41 44 46 49 53 55 58 58 54 47 48 48 41 38 41 42 37 55 99 100 98 98 100 100 100
94 95 65 56 64 74 67 68 84 56 65 58 72 73 41 44 38 36 40 42 45 49 49 54 57 62 63 59 55 53 50 50 46 44 41 47 47 46 67 91 94 99 99 88
81 92 61 62 59 58 68 80 60 83 79 81 59 53 32 42 42 41 45 49 48 51 57 63 65 67 67 66 65 64 59 57 52 49 48 53 53 51 49 45 52 64 83 95
66 94 70 64 56 61 62 65 79 85 73 58 46 50 32 42 41 45 46 48 49 55 68 71 68 72 74 77 77 68 64 60 60 66 62 61 66 70 65 63 56 55 64 84
64 72 84 65 71 76 72 79 80 72 73 57 45 31 40 39 44 49 45 47 51 69 75 72 71 76 81 80 76 74 73 72 67 61 61 63 66 73 80 80 80 82 86 94
62 79 94 81 65 62 63 73 69 80 81 91 84 50 42 43 44 47 45 48 56 73 70 72 74 78 86 82 72 72 70 72 75 77 77 75 78 94 100 99 99 98 99 99
59 79 95 87 71 68 75 73 68 72 82 97 79 42 44 50 46 44 47 52 76 69 66 62 60 63 83 74 77 78 78 76 75 76 83 89 91 97 98 100 96 100 100 100
56 71 71 80 72 81 90 82 73 76 90 80 82 61 47 45 48 48 49 65 74 67 59 59 57 63 73 70 76 80 80 74 72 71 78 88 91 96 98 93 94 94 93 89
62 84 79 73 68 82 79 81 81 82 76 81 58 72 51 49 52 46 49 78 74 63 57 55 66 73 65 70 74 71 72 74 73 72 77 82 83 93 92 85 79 78 76 72
67 97 88 85 72 83 89 79 82 77 75 75 71 72 48 46 49 58 80 80 71 59 57 58 60 65 67 77 84 78 80 83 83 87 90 89 87 89 91 90 90 87 88 87
71 90 87 84 75 79 91 83 79 82 78 67 83 62 52 54 60 66 85 76 64 60 58 57 56 59 69 81 89 92 91 91 91 95 97 96 93 92 95 96 97 96 97 94
77 84 88 96 76 90 49 62 65 66 64 69 66 59 52 55 62 86 76 66 61 58 60 59 63 65 70 82 90 94 96 98 98 99 99 100 98 99 100 100 100 100 100 100
61 83 93 92 94 70 62 73 71 71 65 57 59 56 60 68 82 92 74 58 59 63 62 68 70 72 75 79 83 89 95 99 100 99 99 99 99 99 100 100 100 99 98 100
78 74 81 92 81 86 54 61 59 60 87 62 65 70 76 75 81 84 76 65 68 68 75 79 81 85 88 93 93 99 100 100 100 100 100 100 100 100 100 100 99 100 100 99
99 98 94 82 84 77 59 52 64 94 79 59 64 66 69 77 79 82 71 73 76 84 86 88 90 92 95 95 98 100 100 100 100 100 100 100 100 100 100 100 100 100 100 98
77 83 89 89 89 89 50 72 80 68 63 60 63 64 68 73 81 79 79 80 82 89 90 91 94 96 98 95 100 99 99 100 100 99 99 100 100 100 100 99 94 69 51 47
90 80 88 78 71 54 52 51 52 59 67 59 63 64 66 76 85 83 84 83 83 93 95 93 94 100 100 100 98 99 100 100 100 100 100 100 96 70 48 41 41 41 41 42
80 72 82 82 68 70 64 58 61 60 63 66 63 63 66 76 84 83 84 84 84 89 93 92 95 100 100 99 99 99 100 99 98 88 61 46 41 41 39 38 38 38 41 43
77 74 76 80 72 72 67 67 73 79 78 70 68 66 72 79 86 79 86 86 88 90 91 90 93 97 99 99 98 99 94 79 53 46 46 43 39 38 36 34 31 29 30 29
88 80 85 82 75 85 83 76 80 80 77 75 69 71 72 85 87 75 87 85 87 84 88 90 91 94 96 96 79 82 74 47 42 44 42 41 41 45 52 63 69 71 71 70

GFSCGP_925_rhum_054.txt.gz
RH
76 97 81 60 45 40 39 46 40 43 44 44 42 44 39 34 32 31 27 25 24 23 23 26 27 27 28 29 31 31 30 33 43 65 94 100 100 100 99 99 88 86 86 85
88 95 52 47 50 50 46 43 43 54 46 45 45 45 36 33 32 32 30 27 26 25 22 23 25 25 25 27 28 29 32 33 35 45 68 87 91 97 98 99 99 99 92 92
95 78 54 53 56 55 53 48 53 48 48 44 45 40 37 33 28 30 27 25 23 24 28 33 34 34 31 32 33 33 33 35 36 37 47 65 74 83 89 96 98 100 100 96
95 75 59 58 56 47 64 56 54 54 54 49 46 33 38 28 34 32 32 32 33 33 33 36 36 38 40 45 50 44 38 36 37 41 43 55 69 74 75 76 88 97 100 99
96 89 85 65 56 49 66 55 52 51 53 55 50 47 34 28 36 35 35 36 38 40 42 41 43 47 48 52 52 48 43 43 40 40 41 45 63 65 65 71 79 80 92 100
93 89 86 90 92 61 50 51 52 53 56 71 53 48 28 28 32 36 35 36 38 41 43 44 47 50 49 53 54 53 49 44 46 48 44 45 48 62 70 75 78 82 87 98
96 83 86 85 96 76 52 61 85 79 86 60 54 54 29 30 32 37 40 39 39 42 45 48 49 52 52 54 54 52 50 48 48 47 46 47 46 55 71 73 75 80 86 97
99 97 82 83 76 75 73 62 68 59 53 43 56 42 30 29 29 30 35 39 40 43 49 52 52 54 54 55 55 54 54 52 52 52 49 48 52 52 52 58 68 70 72 78
96 96 56 53 50 52 62 74 49 62 61 59 36 37 33 31 33 33 38 41 43 45 55 53 51 55 57 61 63 62 59 55 54 56 59 58 58 62 61 59 57 60 66 70
59 92 62 57 50 50 53 47 69 78 65 49 34 32 25 38 37 33 38 42 42 48 54 51 52 56 60 65 64 64 64 65 65 69 70 71 76 78 79 79 75 70 66 69
51 59 80 59 64 61 58 61 59 50 51 34 21 23 25 33 31 35 36 39 42 55 56 52 52 54 63 65 62 62 62 63 66 70 72 76 83 85 90 95 98 97 94 89
54 60 80 75 57 54 52 53 46 60 67 66 52 27 31 27 32 35 37 40 46 56 55 49 50 53 62 61 62 64 64 64 66 69 73 79 82 85 87 91 96 98 100 100
50 67 85 84 66 61 67 59 52 57 70 80 44 30 34 34 33 32 40 41 52 58 51 48 49 52 60 59 62 64 66 67 68 68 72 76 82 87 91 90 93 96 98 98
47 58 62 60 72 69 86 68 57 76 85 54 45 37 36 33 33 37 39 46 59 56 50 50 56 57 58 60 62 62 66 70 70 71 74 78 82 88 88 86 85 87 85 84
51 89 72 61 62 78 71 69 67 82 64 76 41 44 30 31 36 38 41 61 63 54 52 54 58 56 57 62 65 68 73 75 74 76 79 84 90 95 93 89 88 84 82 81
56 92 81 78 63 68 78 62 64 62 57 58 53 54 34 34 36 43 51 66 62 54 52 53 54 55 58 63 70 74 76 78 79 78 81 86 87 96 99 99 97 92 90 86
58 75 77 74 66 66 73 62 60 59 57 55 66 46 37 40 45 51 62 67 59 54 53 53 52 52 58 68 76 78 83 87 88 85 82 85 93 99 100 100 100 100 100 100
60 66 70 75 67 80 50 51 50 54 53 52 50 45 40 44 49 62 67 61 56 54 55 54 55 57 64 70 74 84 91 91 92 96 97 99 99 97 99 99 100 100 99 99
48 60 79 79 72 56 51 61 61 61 55 44 48 43 46 53 62 68 65 55 53 53 54 59 62 66 70 74 81 86 94 96 97 100 100 99 99 99 100 100 99 100 100 100
63 55 64 79 77 59 57 60 53 50 90 53 46 50 58 60 68 67 66 58 57 58 62 65 71 79 78 84 82 89 95 98 100 100 100 100 100 99 99 100 99 100 99 99
78 79 78 68 67 53 41 42 56 96 81 56 58 55 58 62 55 68 60 63 66 67 70 73 73 75 81 84 87 95 99 99 100 100 100 100 99 99 99 99 99 98 98 97
64 69 79 71 73 74 43 62 74 67 52 53 56 56 60 58 63 66 65 70 73 74 75 76 78 81 87 92 98 100 99 100 100 100 99 99 100 100 99 95 86 71 59 58
67 54 58 54 51 42 48 52 50 54 58 57 58 56 59 60 67 68 70 73 76 82 80 80 80 95 99 100 100 99 100 99 99 99 99 96 74 58 51 47 46 41 40 40
69 58 63 67 50 48 45 52 56 62 65 63 59 58 58 61 62 65 67 69 77 84 81 78 88 91 98 100 99 99 99 99 94 75 57 45 41 42 41 40 42 39 39 38
58 65 65 64 57 58 60 63 67 63 62 62 60 59 59 63 66 64 66 69 74 82 86 82 85 87 98 97 98 96 98 81 56 46 45 44 42 37 36 37 34 32 37 32
61 57 67 62 49 54 56 64 64 65 65 62 62 61 59 66 67 65 64 70 76 85 89 86 87 87 92 88 82 79 74 54 46 44 42 42 45 50 53 56 62 73 71 67

GFSCGP_925_rhum_057.txt.gz
RH
88 93 92 56 37 29 26 31 24 25 37 38 33 32 25 25 27 26 23 21 18 17 16 19 23 24 25 25 26 26 25 25 27 34 48 86 92 96 99 94 75 72 71 72
95 96 64 41 34 33 36 32 32 34 38 38 31 35 31 28 26 23 23 22 21 20 20 20 22 23 22 22 23 25 27 28 28 30 34 55 83 89 96 97 97 89 76 75
71 75 71 73 46 42 37 40 33 39 45 38 38 39 33 31 27 26 24 22 20 21 22 26 29 30 29 32 36 31 29 31 31 32 32 37 62 72 79 88 93 97 97 89
82 62 80 76 53 39 43 31 34 47 46 36 36 24 37 31 31 28 25 23 25 28 30 32 33 36 38 44 48 42 39 34 32 35 37 36 40 53 63 65 69 76 86 95
94 78 89 61 51 38 39 44 47 48 48 48 44 40 32 28 34 32 30 31 34 34 35 35 39 42 44 51 52 50 42 38 41 37 36 36 38 43 54 60 63 65 69 86
93 87 89 65 68 47 49 49 49 48 51 68 44 35 35 30 29 32 32 33 35 37 38 39 42 44 44 50 52 51 47 42 42 42 41 39 41 41 46 56 60 63 67 73
99 98 89 78 82 62 52 60 88 88 86 59 42 49 29 21 26 30 33 34 36 38 40 43 43 45 47 50 51 49 46 46 44 44 44 40 43 43 45 49 56 60 64 72
100 100 98 91 84 92 74 58 67 64 64 50 44 43 28 24 29 31 34 37 38 39 43 45 44 47 48 51 54 54 51 49 47 47 47 45 44 45 45 45 46 56 61 61
95 99 93 86 82 71 88 76 46 48 44 44 35 31 30 26 29 29 35 38 40 41 47 45 44 47 50 53 55 57 55 54 55 56 56 52 53 56 59 57 54 50 49 52
60 94 69 68 67 59 64 46 69 78 64 43 34 27 24 34 33 30 34 38 38 41 46 45 44 47 52 56 56 56 54 55 56 59 59 62 66 69 70 72 72 74 73 70
45 53 80 55 59 56 54 57 51 49 45 35 23 23 23 28 30 33 35 38 39 46 48 45 44 46 54 55 56 56 55 55 57 59 60 64 69 72 74 74 77 82 88 88
47 54 77 70 50 47 46 45 42 63 58 53 46 34 23 24 27 31 36 38 40 49 49 44 45 47 53 53 55 56 57 57 59 59 61 66 71 76 78 79 81 84 88 90
42 62 83 78 58 53 60 49 43 47 71 78 40 37 25 24 29 30 37 38 45 51 46 44 45 47 51 51 54 55 58 61 63 64 66 69 75 79 80 81 79 78 78 84
41 50 60 61 78 61 76 58 51 76 85 47 37 37 34 30 30 34 35 37 49 51 46 46 51 51 52 53 56 58 62 65 66 69 72 76 81 85 88 88 86 85 84 80
44 88 69 55 53 79 70 63 61 91 61 74 34 33 31 26 32 34 35 47 54 51 47 48 52 50 52 54 57 63 67 69 70 70 74 77 83 90 95 97 96 92 89 90
50 87 76 80 54 58 72 55 56 58 54 48 44 44 28 29 32 39 42 55 58 50 48 48 50 50 53 56 62 66 70 74 76 74 73 78 82 92 99 100 99 99 100 98
52 68 76 69 58 58 67 54 52 52 48 48 59 40 32 37 41 46 51 60 53 50 49 49 49 48 53 60 67 70 75 80 82 82 82 82 89 98 100 100 100 100 100 99
53 58 59 68 60 79 57 44 41 46 44 43 42 38 36 40 43 46 56 55 52 49 50 50 50 53 58 61 65 72 79 85 92 96 92 92 98 99 100 100 100 99 99 100
41 48 64 70 61 48 39 50 54 54 51 40 43 38 40 44 51 53 55 49 48 48 48 51 54 60 66 66 71 74 82 91 100 100 100 99 99 98 99 100 100 100 99 97
52 47 60 66 72 59 57 53 42 44 68 40 37 42 48 52 63 64 58 51 51 52 54 56 60 66 66 69 71 75 81 92 99 100 99 99 98 98 99 99 100 100 99 100
67 66 72 63 65 48 36 52 50 88 85 51 49 49 52 58 56 63 55 55 56 58 61 64 63 64 69 73 76 86 95 100 100 99 99 99 99 99 99 99 98 97 97 88
60 63 63 59 72 71 36 44 66 67 52 52 51 52 55 55 52 58 56 60 62 65 66 65 67 70 75 82 91 97 99 100 100 99 99 99 100 100 99 93 83 65 57 52
57 45 50 47 49 41 45 51 51 51 54 57 59 54 56 56 55 58 62 63 65 70 71 73 71 84 91 94 99 99 100 100 99 99 98 90 74 58 51 48 44 37 36 35
48 42 53 59 42 40 44 44 47 54 61 61 59 57 54 57 54 57 59 63 64 74 72 70 79 87 94 98 99 99 99 99 93 78 60 44 38 38 38 39 40 35 34 30
46 53 54 50 43 49 50 47 54 56 55 57 56 56 56 56 57 58 58 60 64 72 73 76 74 80 89 96 100 99 93 87 67 47 40 39 39 35 35 38 35 31 40 36
44 51 57 53 41 41 49 56 57 58 60 58 59 58 55 57 60 57 59 58 63 70 79 81 79 83 86 90 93 90 85 71 46 42 39 38 39 42 47 53 64 63 70 55

GFSCGP_925_rhum_060.txt.gz
RH
68 85 87 74 59 45 41 48 49 34 36 39 42 44 34 28 28 30 31 27 24 23 19 17 22 23 24 25 25 26 26 25 26 27 36 73 84 85 83 87 90 83 73 72
85 89 64 54 48 45 36 39 42 30 40 42 40 38 31 29 31 31 31 28 25 23 20 25 25 24 23 23 24 25 26 27 27 27 28 36 64 81 79 78 80 91 87 76
79 66 57 57 50 46 40 44 36 41 44 39 39 42 38 32 28 27 27 28 25 23 24 30 33 31 34 43 41 36 30 29 30 31 32 32 34 78 82 87 86 85 90 86
85 71 71 80 69 42 48 34 33 46 55 57 42 43 41 38 34 31 30 27 27 32 38 38 40 41 44 50 50 46 40 38 32 30 32 36 37 43 68 74 80 82 84 85
93 86 80 94 73 44 40 36 48 51 56 52 51 59 41 37 39 36 33 36 39 40 40 44 44 43 48 52 53 52 48 42 40 42 36 35 37 38 39 41 59 64 68 71
94 75 80 82 82 76 44 53 53 50 57 88 58 47 49 41 38 37 36 40 42 44 46 47 45 45 48 51 52 51 49 46 44 43 43 42 40 39 39 41 49 60 61 65
97 96 87 91 87 63 56 67 86 94 96 84 45 53 50 31 34 36 40 42 44 44 51 50 53 51 50 52 54 54 51 50 49 46 46 46 42 44 45 44 45 50 58 62
99 100 97 93 82 82 64 65 89 73 92 70 44 62 37 32 38 39 39 43 42 42 54 52 49 50 51 53 56 57 56 54 54 53 52 51 50 51 53 54 52 50 50 51
100 100 94 90 78 76 86 96 48 64 42 78 53 38 31 39 40 38 42 43 48 48 54 50 46 50 51 55 56 56 55 55 58 59 60 61 64 66 67 66 66 69 66 66
68 98 96 92 79 78 78 57 73 94 70 66 47 45 42 42 41 36 47 49 48 46 52 50 49 48 53 56 57 56 55 56 58 59 61 65 69 72 74 76 78 80 78 73
53 71 98 92 97 98 93 96 64 62 57 65 51 42 28 34 37 38 43 44 43 48 56 52 49 47 54 55 56 57 57 58 59 60 62 68 74 77 78 78 79 82 85 88
50 67 94 73 51 52 62 55 62 94 72 71 65 54 26 31 37 41 42 43 44 55 55 50 48 47 53 54 55 56 58 61 63 64 68 72 76 79 80 80 78 77 79 85
48 74 93 78 63 53 62 52 48 65 82 86 79 56 28 34 36 36 40 42 52 56 51 48 50 50 52 54 55 57 62 65 67 71 74 78 82 85 86 86 84 84 82 80
46 56 73 87 82 74 82 63 56 84 92 71 58 47 36 36 36 37 42 44 56 56 50 51 56 55 54 54 58 63 68 69 69 73 76 80 85 91 93 90 88 84 84 83
55 84 78 58 65 94 80 67 66 90 74 74 53 45 39 35 34 40 37 54 56 55 50 52 57 56 54 56 60 66 70 74 74 72 76 80 88 96 98 99 96 94 90 87
56 86 82 86 54 64 76 62 64 65 64 60 51 50 33 36 38 42 43 59 60 53 50 52 52 51 56 60 64 68 74 77 78 76 79 84 92 98 99 100 100 100 99 99
62 82 88 86 58 60 80 62 59 62 56 58 68 49 38 38 43 46 55 62 56 53 52 52 52 52 56 63 67 74 79 83 87 86 86 92 99 98 99 100 99 100 100 100
57 66 74 89 70 93 62 46 46 53 52 49 47 44 37 41 45 48 58 62 56 53 52 52 54 55 59 62 68 75 82 88 94 94 94 98 100 99 99 99 99 99 99 99
46 58 72 89 88 60 58 52 54 55 56 46 48 41 39 50 52 59 62 52 56 55 53 55 56 60 65 67 71 78 87 92 98 99 99 100 100 99 99 100 99 100 97 98
52 51 70 79 84 78 68 51 41 43 74 44 44 46 50 56 79 84 61 56 56 54 54 57 60 65 66 69 73 78 85 90 98 99 99 100 99 99 99 99 99 100 100 97
72 68 83 73 79 64 60 55 47 84 86 57 48 56 58 67 74 72 60 59 56 58 61 62 64 65 67 73 77 85 92 99 100 99 99 99 99 97 97 98 100 92 73 74
68 76 76 72 82 84 45 47 68 71 59 57 61 60 61 59 57 64 63 67 66 67 66 64 66 70 78 82 89 99 99 99 99 99 100 99 98 98 96 82 68 61 52 50
64 54 56 58 64 48 45 65 57 57 64 65 63 58 57 58 58 59 68 71 71 71 69 68 71 80 85 91 94 99 99 99 97 99 98 94 81 64 51 45 40 38 37 36
47 43 59 63 49 49 56 50 58 61 64 63 61 59 56 60 57 58 66 72 74 73 73 73 80 87 91 92 95 97 99 96 91 85 69 49 41 40 40 39 38 35 33 30
56 54 59 58 50 55 49 56 62 62 59 60 57 58 59 60 62 61 65 72 71 75 73 71 79 88 90 94 95 95 94 92 82 64 42 39 39 37 35 35 34 31 32 35
54 63 72 65 53 50 62 70 61 63 63 62 63 63 59 59 65 64 68 64 68 75 73 76 77 83 90 94 94 92 91 83 63 42 40 38 35 34 44 48 47 52 50 40

GFSCGP_925_rhum_063.txt.gz
RH
77 88 90 71 69 57 68 61 55 51 39 44 46 47 40 36 31 34 34 32 29 26 22 24 25 24 24 24 25 25 26 27 37 75 79 84 82 81 70 71 74 70 72 81
93 89 70 62 62 63 53 62 60 41 39 42 46 53 45 41 34 33 34 34 32 27 29 31 27 25 29 30 27 25 27 27 28 29 35 68 76 80 76 73 73 72 69 67
85 71 62 65 65 66 61 52 52 48 46 43 43 47 45 36 32 32 30 30 26 24 37 42 43 43 40 40 39 37 33 29 28 30 31 33 36 78 83 88 90 86 77 68
82 68 69 69 65 59 70 40 39 53 58 66 41 58 44 42 39 33 32 32 28 44 46 48 49 51 49 50 48 48 45 40 38 33 30 31 35 40 45 69 80 77 72 77
96 84 87 82 70 63 54 37 54 55 57 56 53 60 48 46 43 39 35 32 38 46 50 52 49 50 52 53 54 52 50 46 45 43 40 38 36 37 38 39 41 50 76 74
95 76 82 78 79 81 72 55 60 62 67 90 65 60 50 52 41 41 42 50 50 55 58 56 50 53 54 53 54 53 51 49 49 47 46 45 44 42 43 42 41 42 47 64
98 96 85 84 79 78 75 69 95 93 94 89 51 64 49 38 40 42 49 50 53 57 60 62 59 56 54 57 57 57 56 54 53 51 50 51 51 50 50 56 58 55 52 54
88 100 97 89 88 92 83 62 87 85 98 85 49 69 47 36 39 40 43 49 54 62 63 60 58 56 57 58 57 56 56 58 59 60 62 64 65 66 67 67 67 68 68 68
90 94 91 88 89 84 91 86 56 67 55 83 64 41 37 48 51 51 54 53 53 63 64 59 58 56 58 59 58 56 56 58 59 61 64 69 72 71 73 75 73 74 74 73
86 97 93 91 92 81 83 63 73 90 62 76 67 52 50 54 51 48 50 54 57 62 63 60 59 55 59 58 58 57 58 59 59 62 68 72 74 75 77 78 78 79 78 76
67 78 99 94 98 96 84 88 72 70 70 66 61 53 31 44 42 46 51 54 57 61 65 60 57 52 59 58 59 59 60 61 62 65 68 69 73 75 74 72 72 72 76 80
56 77 99 99 77 74 82 79 66 87 76 74 68 60 32 39 39 43 52 50 55 66 61 59 54 53 59 59 58 60 62 65 68 70 72 74 76 78 78 80 80 81 80 80
53 80 96 96 73 69 94 82 71 64 82 84 78 58 37 47 47 45 49 49 62 64 58 57 57 59 61 58 59 64 67 69 72 73 75 80 84 86 88 87 84 83 82 81
50 67 73 83 73 75 83 73 60 72 84 68 71 47 47 47 44 42 46 53 66 59 56 59 63 64 59 59 62 68 71 72 74 74 77 83 90 96 98 94 87 84 87 82
62 80 74 66 78 86 76 69 73 80 66 72 52 46 41 42 41 41 48 64 64 58 56 59 63 64 62 64 68 72 74 76 75 77 82 88 95 98 99 99 99 92 93 99
64 90 78 84 65 70 69 68 70 68 64 66 62 58 37 33 43 48 54 65 66 59 55 58 59 60 66 68 71 75 78 82 80 82 88 92 98 98 99 99 99 99 100 100
71 83 91 88 61 65 74 69 71 69 65 60 73 54 44 45 49 54 64 68 66 58 56 58 58 61 67 69 74 79 84 87 87 88 94 99 99 99 99 99 99 100 100 100
73 74 84 91 76 92 46 48 53 60 60 60 53 47 44 47 52 59 68 71 61 57 56 57 58 62 64 70 76 81 86 89 92 94 98 99 99 99 99 99 99 100 100 100
57 72 82 91 94 60 64 54 56 64 63 55 55 47 42 58 58 60 61 58 58 58 58 59 60 63 67 70 78 82 88 95 97 99 99 99 99 99 100 100 100 100 100 99
58 60 76 87 92 88 66 51 43 52 82 53 50 50 46 63 84 88 63 59 60 57 58 61 61 65 69 73 79 84 88 98 99 99 99 99 98 99 99 99 100 100 93 81
77 73 84 70 89 70 57 55 48 84 73 56 48 51 66 74 73 77 64 61 59 61 63 63 66 68 70 74 78 87 90 95 100 99 99 99 98 97 98 98 96 74 79 83
72 75 78 76 86 86 57 51 74 72 61 65 66 63 69 67 73 70 66 69 71 71 68 67 70 73 79 80 80 87 98 100 100 99 99 96 94 94 99 81 68 59 55 55
67 61 55 70 72 52 48 60 59 63 64 64 63 60 62 63 62 68 71 72 73 72 69 69 72 82 86 88 91 99 99 100 99 100 98 99 98 93 56 49 48 48 47 43
54 52 60 59 54 57 66 61 62 64 68 66 63 62 60 61 59 61 71 75 77 75 74 73 79 86 89 92 92 93 99 92 96 99 95 84 63 52 48 43 39 37 36 33
65 57 63 65 55 53 60 60 70 68 67 66 61 60 61 61 62 62 67 76 75 76 74 76 82 87 91 92 92 92 95 91 89 85 69 48 40 40 39 39 36 34 34 34
64 67 77 80 61 59 68 69 69 70 68 68 65 65 64 61 66 64 69 68 73 76 75 76 81 84 90 93 95 91 92 88 87 81 47 39 39 37 36 39 49 46 40 29

GFSCGP_925_rhum_066.txt.gz
RH
94 92 88 78 70 64 67 62 65 56 45 50 56 50 44 38 33 39 41 36 31 28 28 26 27 27 25 26 27 28 30 40 63 82 83 79 76 73 72 71 72 73 73 75
99 89 68 68 67 64 66 66 65 46 44 47 50 50 44 40 40 36 37 36 34 29 32 33 30 31 30 31 29 29 31 30 30 35 64 83 88 84 79 75 71 72 65 66
87 77 64 66 74 76 67 68 63 52 48 43 51 60 51 46 39 34 35 34 32 29 39 47 49 45 42 40 38 35 33 33 34 31 32 35 43 62 84 74 73 73 80 78
82 69 71 76 77 68 75 48 49 52 60 74 45 76 46 47 44 40 39 37 35 40 48 52 53 53 50 50 49 48 46 43 41 42 37 33 34 39 42 53 62 72 78 80
97 80 79 81 72 56 60 43 50 58 63 57 56 60 51 46 52 45 43 40 36 54 58 59 57 56 57 54 52 51 50 48 48 45 45 44 41 40 39 40 40 40 43 56
92 80 84 79 84 74 71 58 63 66 70 88 64 64 58 52 44 39 39 41 45 57 62 62 58 58 57 55 53 53 52 52 51 49 49 49 49 46 47 48 49 49 46 57
96 94 86 83 78 71 69 69 96 94 98 91 60 68 52 39 39 41 49 60 65 68 70 68 67 61 60 57 56 56 57 59 59 57 57 58 58 57 62 66 65 62 61 64
92 98 95 86 84 86 82 62 88 87 94 82 54 80 55 42 42 39 46 53 64 70 70 67 64 61 61 60 58 57 59 60 61 64 70 71 69 70 72 73 74 72 73 76
94 98 90 85 82 86 94 93 60 69 69 86 68 55 41 50 50 52 55 61 66 70 70 67 65 61 63 61 59 58 60 61 62 69 72 72 74 74 77 78 77 76 75 75
82 98 85 87 84 86 92 66 74 89 71 81 71 61 57 58 58 57 60 63 63 69 68 67 66 63 64 61 60 59 60 60 63 67 71 74 75 76 76 76 74 73 73 74
76 78 94 91 97 98 96 86 73 69 69 70 67 62 42 52 48 53 54 56 59 71 70 68 63 62 64 63 61 61 61 62 64 68 70 71 73 74 74 73 75 76 77 76
66 82 96 90 82 77 82 80 65 87 75 76 67 56 37 43 46 48 51 53 58 67 66 65 60 64 66 64 62 63 64 66 70 73 74 76 78 79 79 80 80 80 79 79
60 85 97 97 82 82 97 88 78 71 81 86 76 48 42 44 44 47 54 54 63 68 65 65 64 68 67 64 65 66 68 71 73 74 76 80 84 87 88 85 83 81 81 81
54 72 73 84 70 81 88 91 78 80 89 82 80 49 45 50 51 52 52 52 68 64 61 65 70 71 67 64 68 70 72 73 74 76 78 83 91 99 98 94 89 86 87 89
57 80 75 72 78 82 74 86 78 82 75 82 61 51 44 49 48 44 47 59 72 64 62 64 70 74 66 69 73 73 75 76 77 78 83 90 99 98 98 98 98 98 98 99
69 89 76 82 70 64 65 72 74 68 61 63 62 60 42 39 37 47 53 69 68 63 60 60 64 67 70 73 76 77 80 80 79 83 89 96 98 97 99 100 100 100 100 99
69 85 87 82 65 66 73 69 71 69 65 58 68 53 42 45 50 55 63 71 70 64 59 61 63 66 70 73 76 79 83 86 87 89 94 98 99 99 99 100 100 99 99 99
76 75 84 94 72 78 44 50 54 63 64 62 55 49 46 48 52 54 63 71 71 60 58 59 60 64 70 74 78 82 87 89 89 91 98 99 99 100 100 99 99 99 99 98
63 78 85 92 94 65 58 56 62 68 64 62 59 53 46 55 60 65 65 67 62 59 58 57 56 62 69 75 78 83 90 92 93 96 99 99 99 100 100 99 100 99 99 95
62 67 76 92 92 90 60 53 47 52 79 57 56 56 60 70 81 76 61 60 61 58 58 60 62 66 70 77 81 85 93 96 98 99 99 98 98 99 99 99 100 99 78 76
74 74 82 83 91 77 52 55 51 81 69 60 56 53 68 74 70 75 66 62 60 60 60 60 63 68 72 78 83 87 93 100 99 98 97 99 95 94 92 99 93 86 89 83
79 83 82 76 82 88 57 56 71 69 64 64 65 66 69 73 78 70 66 68 70 69 68 65 70 72 73 78 83 91 94 96 99 96 96 95 91 92 100 75 70 73 71 66
72 60 68 71 72 50 53 53 57 64 63 62 64 65 69 69 72 73 72 71 73 72 72 70 72 78 82 83 84 92 98 99 97 99 96 93 94 95 89 66 63 62 55 49
57 57 62 61 54 55 61 61 62 64 65 66 64 62 62 62 63 66 71 73 74 74 74 73 77 87 91 89 91 94 99 95 97 99 95 99 99 95 65 52 46 43 41 40
68 60 63 67 57 53 58 66 67 70 69 67 64 62 62 60 62 62 70 75 74 75 75 76 80 86 87 91 93 93 96 97 99 99 98 96 80 64 51 45 40 38 36 33
72 70 76 76 60 57 58 62 72 73 71 68 66 65 65 64 66 65 72 70 74 76 76 80 80 83 84 89 93 92 92 92 94 92 89 74 52 47 41 43 42 35 36 33

GFSCGP_925_rhum_069.txt.gz
RH
95 97 81 80 82 68 66 69 67 56 47 55 57 52 45 40 38 44 46 43 40 33 30 30 29 26 27 30 32 39 60 71 76 83 82 80 82 82 81 79 80 81 80 80
99 97 64 71 70 66 68 68 68 52 50 53 54 56 46 41 42 38 40 44 41 32 36 34 36 32 34 33 32 30 31 32 36 56 80 86 83 80 80 79 81 82 83 85
97 86 67 70 77 75 72 70 66 59 50 46 51 58 52 48 45 38 38 38 38 38 39 46 48 44 42 42 41 38 35 31 30 31 34 43 59 72 78 82 81 80 84 86
92 68 73 80 82 73 77 54 53 58 59 73 48 84 56 53 51 46 44 42 40 34 45 53 55 55 50 50 49 49 49 45 41 39 35 32 33 36 42 53 50 52 59 70
97 79 81 82 77 60 64 51 53 55 61 58 57 68 60 45 61 47 44 46 42 45 56 61 61 59 59 54 50 50 50 50 50 49 47 44 40 38 39 40 38 37 40 44
91 85 79 79 81 60 63 60 64 72 70 89 65 66 68 51 45 38 45 47 42 60 65 65 63 62 60 57 54 53 52 53 53 52 52 52 51 49 49 53 54 52 50 56
90 94 88 79 80 73 63 70 96 96 96 92 66 68 52 43 40 39 40 46 45 66 74 77 76 67 62 58 56 56 58 60 61 60 60 62 62 61 62 67 68 67 67 66
99 99 93 88 78 80 72 64 89 86 96 85 62 81 60 44 42 42 43 47 64 76 79 76 72 66 64 61 58 59 61 61 64 68 70 72 74 74 76 77 77 76 78 79
93 100 88 87 84 81 86 88 58 75 75 88 71 60 43 45 44 46 61 70 73 75 78 75 70 66 65 62 60 60 60 62 67 72 74 74 76 77 78 78 78 77 78 77
76 98 86 91 75 82 86 75 78 89 81 89 73 66 52 49 54 58 66 75 75 73 74 74 72 69 66 63 61 61 61 62 66 70 72 73 74 75 75 74 72 72 72 73
74 78 93 91 94 82 97 93 78 74 69 72 71 58 47 42 50 58 58 63 74 78 74 74 72 69 67 65 63 63 63 64 67 70 71 72 72 74 75 75 77 77 78 78
67 80 91 95 80 74 80 84 74 89 79 82 69 62 35 46 51 54 60 60 64 72 75 75 68 72 70 67 65 64 65 66 70 73 74 76 79 81 80 81 81 81 80 82
68 84 97 97 83 83 98 88 75 74 79 87 79 60 40 46 50 54 58 58 58 70 70 71 71 78 73 68 67 67 69 71 73 75 76 80 84 88 88 87 86 84 84 84
55 77 74 83 70 82 99 96 87 77 89 84 77 55 39 44 50 54 55 56 62 68 67 69 71 74 72 69 71 72 73 74 75 77 80 84 92 99 98 95 93 92 94 92
57 81 77 74 76 79 80 83 86 93 73 80 61 64 42 39 50 53 56 59 73 70 67 68 71 73 73 72 74 75 75 77 78 79 83 91 99 97 95 97 100 100 99 100
69 87 75 79 70 66 69 74 88 85 79 79 69 64 41 37 42 48 52 62 70 69 66 65 68 72 72 73 76 77 79 80 80 83 88 96 98 98 100 100 100 100 99 99
69 84 83 76 72 64 65 66 78 79 67 66 76 56 43 44 47 50 54 66 68 68 64 62 66 67 69 72 74 79 81 82 84 88 94 97 98 100 100 100 100 99 99 99
74 74 82 95 70 80 48 51 55 66 65 65 60 50 46 44 44 48 57 67 72 69 63 61 62 64 68 72 77 81 86 87 89 92 96 99 99 100 100 100 99 99 99 96
65 79 90 92 94 68 52 60 63 66 60 60 63 55 48 52 60 62 64 67 68 67 60 57 56 61 70 74 77 83 90 92 92 94 99 99 99 100 100 100 99 98 98 98
68 70 78 94 93 87 54 55 50 52 78 59 63 62 54 71 79 73 68 64 63 58 56 59 59 64 69 77 81 86 91 93 94 97 99 99 99 99 100 100 99 93 82 74
78 78 86 86 95 76 55 54 56 76 62 70 60 60 72 77 69 66 68 63 61 61 60 61 63 66 69 76 81 85 90 96 95 98 98 99 100 99 96 99 100 74 66 69
80 83 91 85 90 86 52 58 67 63 67 65 60 60 72 72 76 71 67 69 69 68 65 63 67 69 72 77 82 86 92 93 96 99 98 98 95 97 99 99 88 85 83 79
74 69 76 73 72 51 51 58 54 69 66 62 63 67 73 80 75 73 72 71 72 70 70 67 68 73 75 78 82 86 88 94 99 98 96 96 96 93 100 79 73 69 65 60
61 60 66 62 53 57 55 59 62 62 63 67 63 66 62 64 67 70 72 70 71 71 74 72 74 78 81 81 83 83 90 96 99 100 97 93 94 96 97 71 67 62 58 54
66 63 66 70 61 58 55 67 63 70 70 70 66 64 65 63 66 70 84 89 87 77 73 73 76 78 79 82 87 90 95 97 100 98 92 93 95 100 90 62 48 42 40 38
74 70 75 75 58 56 55 56 70 76 72 70 67 67 69 66 68 66 70 70 74 76 74 78 78 78 79 82 88 93 94 97 99 100 99 98 99 96 72 52 45 41 38 40

GFSCGP_925_rhum_072.txt.gz
RH
81 97 90 87 78 70 78 75 79 58 64 66 78 72 50 84 84 66 49 45 42 41 31 30 26 24 26 26 37 52 70 82 84 85 88 89 86 83 82 78 78 81 82 83
97 100 75 76 75 68 71 75 72 55 58 62 61 68 61 58 60 48 38 37 42 38 32 35 34 33 32 32 32 35 44 55 62 79 91 91 87 85 83 83 86 86 87 88
89 90 70 74 81 78 73 79 72 66 58 48 62 74 80 59 56 44 42 40 41 44 39 41 50 43 40 39 38 36 34 32 32 32 41 56 71 84 87 89 90 88 89 92
94 82 74 79 83 72 82 60 56 60 66 85 53 89 66 56 48 43 38 48 44 44 40 46 55 56 50 49 47 44 41 38 36 35 34 32 33 37 41 52 60 55 52 59
98 93 91 83 79 61 67 57 57 56 64 60 59 73 59 48 54 44 37 46 47 43 46 54 60 59 61 57 52 51 50 48 47 46 44 42 40 40 39 40 39 41 42 47
95 75 82 80 75 65 61 63 66 72 68 89 67 70 72 57 46 41 43 46 43 43 54 64 65 65 62 59 56 56 56 56 55 52 51 51 50 50 48 50 52 53 54 57
97 97 90 75 84 74 60 73 98 97 96 92 66 72 56 45 41 39 36 42 48 52 70 80 84 73 66 60 57 58 58 61 64 63 62 63 63 64 67 71 72 71 69 67
100 99 92 88 75 82 68 64 90 88 96 86 67 83 57 44 44 40 39 41 48 70 81 82 80 72 66 61 60 60 60 62 68 70 72 75 76 77 77 78 79 78 77 78
96 100 86 88 85 76 85 91 59 80 78 89 75 61 45 42 44 46 47 60 61 79 84 84 78 72 66 63 61 60 60 64 69 71 73 74 76 77 77 77 77 76 76 75
77 98 87 83 77 86 78 69 79 89 84 90 74 68 58 41 41 47 56 73 77 84 83 83 80 74 67 63 62 62 62 63 67 70 71 72 72 72 72 73 72 72 73 73
69 78 97 82 89 92 95 94 80 74 71 77 76 60 49 41 38 45 56 74 83 82 83 84 80 73 69 66 64 63 64 65 67 69 70 71 71 72 73 74 75 77 78 78
68 76 95 84 79 78 76 86 75 90 83 86 74 68 34 44 48 52 61 70 77 78 81 83 79 79 74 69 67 66 67 68 70 72 74 75 78 80 81 82 82 82 81 82
70 85 97 94 79 83 95 85 80 75 82 88 85 67 37 50 50 56 65 68 73 78 79 80 80 84 78 72 70 69 70 72 74 76 77 80 84 88 88 89 89 89 89 89
60 78 75 86 70 84 98 87 83 85 94 87 78 60 48 42 43 52 59 63 69 78 76 78 78 83 77 73 71 71 72 74 75 77 80 85 94 99 98 96 98 99 98 95
59 82 77 71 76 84 85 84 86 97 80 88 66 65 48 44 41 49 58 62 72 76 75 74 74 79 77 74 73 73 74 76 78 80 84 90 98 96 97 99 100 99 99 98
67 83 75 79 73 78 76 80 88 86 82 77 73 77 47 40 42 52 57 63 72 73 72 71 70 72 76 73 75 76 77 79 81 84 86 93 98 98 100 100 100 100 100 99
69 82 81 79 75 68 71 70 78 82 77 78 92 66 50 45 47 50 59 65 67 70 71 69 70 71 69 70 72 77 79 81 82 86 92 98 98 99 99 100 100 100 99 98
75 73 78 89 71 83 49 50 56 70 73 74 68 55 52 47 43 47 52 62 65 67 68 66 63 63 65 68 74 77 82 83 86 92 96 98 99 99 100 100 100 99 99 95
66 79 90 93 93 69 49 61 65 64 58 62 67 61 55 45 56 56 56 58 56 70 68 61 57 59 64 68 74 80 87 88 91 94 97 99 100 100 100 100 100 98 95 94
72 72 77 94 93 80 47 60 52 53 74 53 64 65 66 71 73 64 70 71 68 66 60 59 59 61 67 75 79 85 91 93 94 94 96 99 99 100 99 100 99 99 98 76
82 80 86 87 96 81 57 54 56 74 63 69 66 65 63 77 64 64 73 67 65 63 61 60 61 63 67 74 81 87 90 92 91 95 99 100 100 100 100 100 99 90 76 71
84 87 90 87 92 93 48 62 68 61 69 67 65 59 69 70 77 72 71 71 70 68 68 65 67 69 71 75 81 87 91 89 95 98 100 100 100 100 100 99 93 75 70 67
79 72 80 77 76 52 50 62 53 69 73 64 65 68 69 80 73 74 74 73 70 69 68 65 67 72 75 78 81 85 83 91 97 99 99 100 100 98 96 99 85 82 79 73
65 64 68 66 54 60 56 57 63 65 64 67 64 68 68 70 76 72 72 72 74 71 73 70 72 77 79 78 81 81 83 90 96 98 99 99 100 100 98 98 74 67 61 57
66 67 69 72 62 61 58 63 61 70 70 69 66 64 65 69 71 74 82 83 82 84 85 84 84 77 75 76 79 82 85 91 97 98 98 97 97 100 97 88 63 60 55 50
74 70 72 71 57 56 55 56 67 78 75 73 70 69 72 70 71 67 73 72 74 77 76 76 76 76 74 76 78 82 87 92 97 100 100 96 94 93 98 99 72 55 43 40

GFSCGP_925_rhum_075.txt.gz
RH
79 98 95 84 73 65 75 74 70 76 74 76 82 73 68 68 77 69 56 57 50 42 35 31 28 26 52 51 59 75 76 80 85 86 86 85 81 77 74 73 73 74 77 84
90 100 80 77 70 70 70 78 75 58 70 66 78 76 60 74 70 71 65 59 49 40 35 32 32 32 33 32 37 45 61 80 87 88 90 90 86 86 86 86 88 92 95 96
82 92 82 77 79 75 74 73 74 67 73 58 67 72 74 65 66 69 65 57 48 37 36 34 40 38 37 38 38 38 40 46 51 61 77 90 95 94 93 94 96 97 97 96
84 89 90 81 81 70 80 64 63 68 76 87 62 79 76 67 67 70 64 51 47 39 40 37 45 50 48 45 44 42 39 37 37 36 34 34 36 40 44 52 64 67 59 59
98 95 94 84 78 62 72 59 61 63 66 62 63 73 62 61 70 62 62 52 42 41 40 39 49 52 57 55 51 48 46 44 43 42 41 40 39 39 39 40 42 44 45 48
94 82 90 73 78 62 61 65 67 73 69 92 69 71 67 54 59 53 45 40 38 39 39 44 52 61 65 60 56 54 51 50 50 50 49 49 50 50 50 53 57 60 63 65
97 95 91 79 81 68 62 73 94 94 96 86 67 74 57 46 40 38 36 35 36 42 41 55 72 74 67 64 61 58 56 59 60 58 59 59 59 60 62 67 69 69 70 70
97 100 95 83 77 76 65 64 84 87 92 82 70 79 53 43 41 42 38 36 39 47 50 62 70 74 69 65 64 61 61 65 65 65 66 70 71 72 73 73 74 73 73 73
99 100 89 90 84 74 78 89 59 80 79 80 68 60 43 39 39 40 42 46 48 49 63 70 77 75 69 64 61 58 60 66 68 69 71 72 73 75 76 76 76 76 74 73
84 99 86 86 77 82 72 65 80 86 83 82 68 64 48 37 35 35 37 49 57 70 79 78 77 77 68 64 63 62 62 63 67 69 70 71 72 72 72 72 72 72 73 73
70 78 97 76 86 90 88 86 79 70 68 70 72 54 47 40 35 40 40 48 65 76 77 76 78 77 71 67 65 63 64 65 68 68 68 69 70 71 72 74 74 76 77 78
67 73 97 98 78 80 82 84 72 86 84 81 69 60 34 37 46 47 53 61 73 75 78 78 80 82 75 70 68 66 67 67 69 71 72 74 76 78 79 80 80 81 81 82
70 83 96 91 74 80 93 90 75 76 81 89 79 64 37 44 47 55 59 66 75 77 78 78 81 82 80 74 70 69 69 70 71 74 76 78 81 83 84 86 86 87 87 88
60 77 73 82 70 83 95 93 85 85 98 82 73 63 48 44 45 42 54 62 72 76 76 76 79 83 81 74 71 71 72 73 74 77 79 82 89 98 98 95 99 99 96 95
62 83 78 67 67 88 90 86 89 91 77 83 65 67 52 47 45 41 43 59 69 78 78 75 75 79 83 78 74 74 74 76 77 79 82 86 93 95 94 96 99 99 99 99
66 85 79 80 79 81 83 82 88 86 81 73 68 71 48 48 44 46 47 59 67 71 74 73 72 74 80 77 74 74 75 78 79 81 84 90 95 96 98 100 100 99 99 99
68 79 82 81 75 67 71 68 77 83 79 74 84 63 57 59 59 53 49 59 59 62 66 70 68 68 72 70 68 73 74 78 81 83 88 93 97 99 100 100 99 100 100 100
75 72 75 85 69 83 50 51 56 67 64 74 73 65 60 59 55 51 51 56 61 64 67 67 66 67 64 65 70 72 77 80 83 87 91 96 98 98 99 100 100 100 99 97
65 77 88 88 90 66 52 62 67 67 58 62 74 67 64 59 53 56 51 53 56 59 64 62 60 60 63 65 69 76 83 84 87 90 92 95 97 99 99 100 100 100 96 91
73 72 75 92 93 76 42 61 53 53 75 52 64 68 69 65 75 59 52 63 65 62 63 64 62 62 65 70 74 80 86 88 90 91 93 95 97 99 99 99 99 98 94 90
84 82 87 78 87 81 58 52 58 77 61 59 71 71 68 80 63 66 73 70 70 67 64 64 63 65 67 73 78 84 87 90 87 90 94 99 100 99 100 99 99 98 96 74
85 91 92 89 96 92 52 66 72 57 64 69 68 63 64 70 76 72 73 73 72 72 70 66 67 69 71 72 77 84 87 83 89 92 96 100 100 100 100 100 99 100 81 72
81 71 80 76 77 54 50 62 55 68 73 66 67 67 64 78 72 72 75 73 72 69 67 66 66 70 73 76 78 83 80 86 91 96 100 100 100 100 99 99 93 83 73 70
70 66 67 65 54 62 57 55 61 62 70 66 64 69 76 75 76 73 73 74 71 71 71 67 69 73 74 74 75 76 79 84 92 98 100 100 100 100 100 98 100 80 79 77
66 68 68 71 63 62 59 63 59 65 69 69 67 64 64 69 72 71 73 71 70 72 76 74 73 71 71 73 75 76 81 85 94 99 99 100 99 100 99 98 95 75 64 53
71 68 71 71 54 55 53 60 62 75 75 74 70 70 72 70 72 72 77 75 79 85 86 90 89 92 90 89 81 76 81 85 93 100 100 100 100 100 99 97 97 68 62 58

GFSCGP_925_rhum_078.txt.gz
RH
88 96 90 56 42 35 47 54 59 54 68 61 60 57 51 42 42 38 34 33 34 37 33 32 28 29 58 63 71 80 83 82 82 85 83 84 84 86 88 86 89 87 84 82
95 100 74 53 49 44 46 51 51 52 56 55 54 56 45 40 44 43 38 30 33 36 33 30 29 30 35 48 50 60 73 82 85 84 84 85 86 85 81 90 92 93 95 98
90 90 67 59 58 50 47 47 50 50 59 54 53 56 49 42 46 43 40 37 34 34 38 31 27 29 36 37 42 46 57 65 75 88 91 92 92 93 95 98 100 97 97 98
79 81 82 66 53 43 63 44 47 54 56 57 47 44 41 41 51 48 38 36 39 37 36 34 32 30 37 42 56 50 49 49 48 50 53 57 59 59 63 70 73 77 77 73
96 94 95 69 54 44 45 50 47 46 44 51 57 57 34 42 45 42 40 35 37 36 35 32 32 36 46 59 61 57 55 52 41 41 44 44 44 46 47 48 52 54 49 49
90 75 88 55 62 52 49 50 53 54 56 68 46 50 36 39 40 35 33 36 38 39 35 32 32 46 54 65 66 65 61 62 56 52 49 54 55 54 55 63 64 70 75 67
96 96 83 72 66 53 49 52 82 83 82 60 51 57 38 31 32 31 34 35 33 33 34 30 37 50 58 64 65 64 62 66 64 58 62 63 64 67 70 73 73 73 76 81
97 99 95 67 67 63 54 44 57 61 62 48 55 55 37 30 31 32 30 27 30 30 29 30 33 46 55 62 64 61 64 68 69 69 66 68 71 75 74 76 78 76 77 79
90 97 88 73 71 60 65 66 46 60 59 57 44 40 29 25 25 28 29 32 32 28 31 36 36 48 56 61 62 61 66 71 72 72 71 72 73 73 75 73 73 74 74 72
75 96 84 81 75 62 57 47 65 74 74 57 45 41 26 25 24 24 24 26 29 35 37 42 50 54 56 58 62 64 65 68 71 71 71 72 71 70 70 70 71 70 70 69
61 65 94 68 75 62 63 63 60 50 52 46 41 30 25 26 27 31 32 36 37 40 45 51 57 61 60 61 63 62 64 68 69 71 73 73 72 70 71 75 74 76 77 77
57 64 92 97 68 65 64 60 49 62 65 60 49 34 24 25 28 36 34 42 50 49 50 50 57 62 65 64 62 62 64 65 69 73 74 77 81 81 82 84 84 84 87 86
53 67 89 94 68 66 70 64 58 56 66 77 54 34 27 28 33 38 36 41 48 52 57 56 58 58 57 60 61 62 64 65 71 74 75 79 82 83 86 90 92 92 91 90
50 56 58 63 63 59 78 69 66 71 95 56 52 37 32 32 32 32 31 35 44 50 57 56 55 56 57 58 59 61 65 69 74 76 76 79 82 84 89 97 98 99 95 92
52 80 68 55 54 77 75 70 69 93 70 73 46 39 34 29 26 29 32 32 39 49 54 56 56 55 58 60 61 63 66 71 75 76 79 81 85 87 92 96 99 99 99 98
52 80 75 79 64 68 73 60 61 64 62 58 54 54 36 32 34 38 36 36 39 46 52 53 54 55 58 59 62 66 70 74 79 78 80 86 88 91 96 99 99 99 99 99
55 64 71 68 62 62 65 54 56 56 55 57 68 49 39 42 43 44 42 41 39 36 41 50 51 53 55 59 62 65 68 74 78 78 82 87 90 93 100 99 99 99 100 100
55 56 58 64 61 75 42 44 44 46 45 44 52 48 44 45 44 42 41 43 39 36 36 43 49 52 54 58 62 64 70 77 79 80 83 87 93 98 99 99 99 100 99 100
48 51 63 67 63 46 38 53 52 52 42 42 46 46 47 47 52 53 43 36 32 34 37 41 46 51 56 60 64 70 75 77 82 83 86 91 95 99 99 99 100 100 100 96
58 53 54 70 73 57 37 54 47 47 57 48 55 56 54 55 58 43 44 42 40 43 47 52 56 59 59 63 70 72 74 77 80 82 87 92 96 99 99 99 100 99 97 90
69 67 72 64 66 52 40 44 48 57 49 49 59 56 58 60 52 56 59 60 60 58 58 61 61 60 61 70 73 74 76 79 81 89 91 96 100 100 100 100 100 99 96 92
60 64 68 66 72 74 44 55 56 40 49 54 56 56 53 52 58 63 61 61 61 63 64 62 62 66 74 79 78 78 82 88 92 94 98 100 100 100 100 100 100 100 96 87
62 49 52 54 50 41 41 45 43 49 50 53 59 56 53 55 62 61 60 57 56 59 64 68 64 70 77 82 81 82 84 90 91 93 97 100 100 100 100 100 100 100 96 74
58 53 55 54 38 44 41 38 41 45 48 51 57 57 60 59 60 59 57 58 56 59 59 62 64 66 73 79 82 80 79 84 89 90 94 100 100 100 100 100 99 92 84 69
51 57 55 54 48 44 42 43 43 47 52 59 59 57 59 65 67 64 65 64 64 68 73 69 67 68 69 74 77 79 82 84 91 89 94 100 100 100 100 100 99 94 78 67
56 52 58 56 42 43 42 46 56 55 62 62 61 62 67 67 71 73 72 77 80 79 84 83 81 83 85 85 82 83 83 86 93 90 93 99 100 100 100 99 100 99 85 65

GFSCGP_925_rhum_081.txt.gz
RH
88 97 99 52 35 25 28 31 30 28 41 52 51 49 41 39 41 41 35 30 28 28 30 29 27 29 52 74 70 73 74 74 69 74 76 74 74 75 74 70 71 75 75 74
95 99 83 42 32 40 34 50 50 47 46 48 41 41 35 34 38 35 31 29 28 26 30 29 27 27 31 55 62 68 70 76 76 74 74 72 73 72 72 77 79 81 83 83
94 91 66 54 43 50 40 41 43 45 46 44 38 41 40 34 32 30 30 28 25 26 28 31 28 28 28 38 46 50 61 72 79 80 82 86 89 91 90 88 88 92 92 97
71 81 68 56 42 32 43 29 35 44 55 60 42 36 30 33 34 33 34 32 31 26 26 31 31 28 28 31 42 44 50 58 63 74 79 80 76 71 69 75 84 78 80 82
98 93 80 59 43 34 35 33 36 41 45 34 45 48 28 29 32 32 31 31 28 26 28 31 32 31 31 41 56 50 48 49 52 49 45 45 43 42 47 48 51 55 60 53
83 73 79 58 41 40 42 44 41 39 40 61 41 40 26 28 29 26 25 26 28 26 29 30 30 33 40 56 60 57 52 53 54 53 51 50 48 47 49 55 54 60 68 74
94 95 82 69 59 49 41 47 71 71 75 55 35 37 30 26 25 27 26 25 23 25 30 32 31 36 43 59 63 61 56 58 60 59 57 59 61 59 59 62 62 63 65 73
98 98 92 60 57 59 42 39 50 54 52 41 42 46 31 24 25 25 26 24 25 26 30 34 30 35 43 56 62 59 57 59 60 63 65 67 68 67 68 71 69 68 69 73
81 98 78 70 59 54 52 57 40 50 43 45 39 31 24 20 20 22 24 26 27 25 27 31 33 32 40 53 57 56 58 61 63 64 64 65 67 70 71 70 70 70 71 70
59 97 90 63 64 53 58 38 50 68 65 44 38 32 25 23 24 23 22 22 21 25 26 27 32 34 43 51 55 56 58 61 62 63 62 65 68 69 69 69 70 71 70 72
53 58 88 64 95 69 60 60 50 44 48 43 31 26 18 25 27 28 28 31 30 27 31 32 38 43 49 53 56 58 58 60 62 63 66 66 68 67 67 69 70 72 74 75
50 59 93 75 57 54 56 46 44 62 55 44 46 33 20 23 26 30 30 36 37 37 38 38 44 49 51 55 57 56 58 59 62 63 64 66 71 72 73 74 77 77 78 80
47 66 93 89 63 53 60 50 47 42 68 72 49 31 22 22 25 31 30 30 35 39 43 42 46 51 53 56 55 56 57 57 62 64 65 69 72 73 74 78 82 83 83 82
48 52 59 65 60 51 64 52 49 64 93 54 48 36 26 26 28 30 27 25 27 38 44 45 48 49 50 51 53 55 57 59 64 65 66 68 71 73 76 83 86 88 86 83
50 75 65 53 48 72 68 57 51 78 69 69 43 35 27 24 23 22 24 28 30 34 42 46 48 46 48 50 52 53 56 61 66 68 69 70 72 74 78 84 89 93 94 91
47 77 70 75 51 57 66 53 50 52 52 56 51 47 31 28 26 27 29 30 30 31 36 43 46 46 47 50 51 54 58 62 66 68 70 73 76 78 83 88 92 98 97 98
51 58 65 63 51 51 58 50 48 46 44 47 59 44 33 33 33 34 34 36 36 34 30 38 42 45 46 49 52 55 58 64 69 68 70 75 77 80 87 92 96 100 99 99
49 52 54 63 53 71 37 36 36 40 37 37 38 37 36 36 35 35 34 36 37 36 34 32 34 42 46 48 52 54 58 63 68 68 70 74 79 84 91 97 99 100 100 100
42 43 52 62 54 40 33 35 42 44 36 31 35 36 41 41 44 44 36 36 37 32 28 30 29 37 45 49 53 56 60 65 70 71 74 76 82 88 96 100 99 99 100 99
50 47 52 58 64 58 38 48 41 43 49 44 46 48 48 47 54 40 46 46 41 33 37 40 39 43 48 51 56 59 62 65 68 72 76 80 86 90 95 100 100 99 99 98
63 58 67 61 65 45 31 43 41 56 50 42 46 49 52 52 44 48 51 49 53 51 50 50 50 49 51 55 60 62 62 66 68 74 78 84 89 92 95 100 99 99 100 95
49 53 55 53 61 69 42 45 47 41 41 41 42 45 53 46 44 54 56 58 59 59 57 55 55 57 62 65 66 67 68 74 77 82 86 88 94 98 99 100 99 100 99 96
57 40 43 42 42 38 36 34 35 37 44 42 47 48 53 46 49 55 55 53 53 56 62 62 62 68 72 73 71 73 80 85 85 86 90 91 98 100 100 100 100 100 99 90
44 39 51 48 34 34 32 31 32 31 37 39 39 49 53 52 52 54 52 53 51 54 54 56 58 62 69 72 75 74 85 85 85 84 85 89 99 100 100 100 100 99 99 89
45 48 48 48 41 39 37 35 35 34 38 42 46 52 53 55 57 57 60 59 59 60 64 63 60 60 63 70 72 73 82 84 86 85 81 89 98 100 99 99 98 98 92 85
49 51 53 54 37 41 38 38 46 52 48 46 50 57 58 62 63 60 63 74 82 84 85 77 74 74 76 77 77 76 77 80 87 92 90 91 98 100 100 100 99 99 92 81

GFSCGP_925_rhum_084.txt.gz
RH
94 99 100 82 55 44 51 46 54 47 55 64 66 62 54 55 52 53 47 44 37 35 37 31 30 33 63 65 68 69 73 72 70 71 76 75 75 72 69 64 67 69 72 74
97 100 83 64 47 37 38 46 55 64 54 55 58 57 50 42 52 48 46 42 39 34 37 32 30 31 37 71 72 70 73 74 71 70 71 73 71 72 70 68 68 74 75 75
98 94 78 71 64 54 37 40 73 72 58 48 45 53 44 36 36 39 39 38 35 32 36 36 31 29 28 44 60 67 72 73 71 73 77 77 79 78 80 83 84 79 80 83
90 80 88 80 64 50 60 36 41 47 58 72 47 60 43 37 42 40 40 38 38 32 28 36 34 31 29 30 44 47 58 76 82 83 83 75 82 82 82 84 81 83 90 87
95 83 76 64 54 44 53 45 45 50 59 56 57 65 38 36 43 41 38 37 39 37 34 35 37 29 30 33 39 44 48 58 67 74 78 78 72 51 60 65 70 58 53 52
90 69 79 84 52 47 52 55 43 41 48 80 50 54 42 40 34 32 33 34 36 36 34 35 37 30 36 38 42 48 48 49 50 50 46 44 43 42 41 46 50 57 64 65
92 95 76 71 65 50 45 54 87 89 91 79 39 50 48 31 29 27 26 27 31 34 34 36 46 42 52 52 48 52 50 52 53 52 51 51 51 49 51 58 59 62 66 73
96 96 88 69 72 60 54 52 83 65 77 63 39 52 38 27 30 30 28 28 28 31 36 38 45 45 52 61 62 55 54 58 58 58 58 58 57 59 61 63 64 66 68 72
90 94 80 73 73 65 59 70 43 67 41 75 56 39 28 24 25 30 30 28 30 27 31 41 44 46 52 60 62 59 58 59 61 63 61 61 61 62 61 62 65 67 66 66
57 97 83 81 72 58 62 47 62 86 73 48 50 38 38 31 28 24 25 27 28 25 27 37 38 44 53 56 60 57 59 61 63 62 63 63 62 63 62 65 64 64 66 65
54 67 93 75 83 73 69 68 55 53 60 70 56 43 30 35 33 37 40 37 33 28 35 37 38 43 52 56 56 58 61 62 62 62 62 62 58 60 61 60 61 62 64 66
52 71 93 77 64 55 61 73 54 88 68 65 60 56 29 35 34 36 41 41 41 39 40 43 46 51 55 58 60 59 59 60 60 60 60 63 63 62 63 65 67 68 72 72
53 79 97 87 66 60 70 59 56 59 78 76 75 49 26 30 27 34 36 32 44 42 44 51 56 58 56 59 59 59 61 62 64 62 61 62 64 68 70 71 72 74 76 78
58 59 68 90 70 67 72 59 54 72 97 72 71 54 31 28 30 35 36 32 32 48 50 54 60 61 56 58 56 57 58 60 62 63 64 67 70 71 73 76 78 80 82 82
58 79 71 61 47 76 74 63 59 79 70 82 59 50 37 32 30 31 33 32 32 33 51 55 61 65 56 56 56 58 58 61 63 64 66 68 70 73 76 80 84 85 86 88
52 91 79 84 54 56 73 62 57 56 56 65 63 63 44 39 36 37 37 36 36 36 35 53 58 58 56 54 54 55 58 62 63 66 67 69 72 75 78 83 87 91 92 92
59 71 78 81 52 54 72 57 59 55 50 54 68 54 44 44 41 41 42 43 40 41 40 42 56 56 52 51 52 55 59 62 65 68 70 72 75 78 82 87 90 96 95 94
56 58 66 86 62 85 50 37 38 44 43 44 46 46 42 41 42 45 44 45 45 42 41 42 49 49 47 49 52 55 59 63 67 68 70 73 76 79 84 90 94 97 97 98
46 57 67 80 76 57 41 44 43 45 45 32 37 36 41 44 49 53 52 52 54 48 43 39 35 39 45 48 52 55 60 65 68 69 69 72 76 82 87 94 98 99 98 99
53 52 69 78 83 70 54 49 41 44 64 51 47 48 50 53 73 63 59 54 59 55 46 42 41 38 46 50 53 56 61 65 69 70 72 74 78 85 88 95 99 100 100 99
72 67 83 79 85 74 42 46 41 64 66 43 47 50 54 66 61 53 60 59 59 57 56 54 51 53 53 53 55 60 63 67 68 71 74 78 83 88 87 93 98 99 100 100
67 72 75 76 82 88 43 47 52 52 43 43 47 50 55 59 52 49 58 60 64 65 61 58 62 63 60 58 59 64 65 67 68 73 76 82 87 90 91 97 100 100 100 99
65 49 64 53 57 44 45 46 40 42 48 51 48 52 57 62 54 56 60 56 59 63 66 64 66 68 67 66 66 69 74 72 75 79 83 87 91 96 98 100 100 100 100 99
49 44 62 56 40 41 42 39 39 38 41 43 45 47 55 64 58 56 59 60 62 59 60 61 67 73 74 72 72 73 78 78 80 84 87 90 93 99 99 100 100 100 99 98
68 59 60 61 52 62 51 50 54 54 51 48 48 51 60 62 63 59 64 62 63 65 63 61 61 63 69 71 72 75 76 78 81 82 84 89 93 99 99 99 98 99 97 95
59 62 80 96 59 60 65 52 51 55 61 59 56 57 60 63 68 63 69 70 75 81 84 77 73 73 72 72 72 74 77 78 82 85 85 88 94 99 99 99 100 100 96 95

GFSCGP_925_rhum_087.txt.gz
RH
95 98 100 94 89 79 59 62 62 61 69 78 80 74 68 60 55 56 53 51 47 47 44 30 39 61 75 76 76 78 82 82 83 84 77 74 73 63 67 71 70 68 69 74
98 99 83 73 68 68 57 63 63 59 60 60 74 74 62 59 57 54 53 52 50 44 45 38 32 34 50 73 73 72 77 77 75 70 73 70 69 69 66 69 70 73 75 76
91 96 77 76 68 57 64 61 80 62 75 75 70 72 60 53 56 54 53 50 49 47 45 42 38 33 36 60 76 71 72 72 71 70 70 73 72 73 71 70 74 77 74 69
98 80 78 77 67 61 67 58 74 71 72 95 63 76 57 52 50 56 57 54 50 46 44 42 37 34 30 47 60 70 73 71 69 71 73 69 64 68 75 72 73 82 78 80
99 93 89 84 69 61 63 59 72 78 67 73 62 68 51 46 52 48 50 51 48 45 43 44 39 34 29 37 51 52 66 81 77 79 68 73 71 74 78 85 87 82 83 81
94 84 87 86 72 68 72 61 58 65 67 79 66 67 60 53 42 45 45 46 43 43 42 42 36 33 32 34 41 46 49 60 75 80 82 81 75 67 71 70 69 61 50 52
83 90 79 74 67 73 80 66 95 90 87 79 50 62 58 35 35 37 39 44 42 44 43 44 50 46 53 53 43 42 46 50 54 55 50 54 55 49 46 44 47 56 63 67
93 83 91 77 82 78 78 56 82 83 90 68 48 62 44 33 33 33 32 32 31 31 44 46 52 47 53 52 51 54 51 51 51 49 49 49 47 46 49 55 59 63 67 70
95 93 78 75 81 73 64 78 48 73 56 80 63 48 33 34 36 34 32 29 30 32 34 47 52 49 54 54 53 53 55 57 60 58 57 57 56 56 58 60 61 62 64 64
70 98 81 80 71 60 61 55 65 85 68 58 66 48 44 33 32 30 31 31 32 28 37 45 56 56 55 53 54 55 56 59 63 62 61 59 61 58 58 60 60 61 61 62
62 75 94 78 87 80 72 70 61 60 69 71 62 51 38 38 40 46 46 44 42 40 39 42 48 57 59 59 58 59 61 62 62 61 60 58 59 63 63 60 61 62 64 64
57 81 86 80 65 64 65 74 69 86 70 73 69 58 32 42 44 46 47 45 43 41 45 47 50 58 61 62 62 62 62 61 60 58 58 52 52 52 53 61 63 67 67 69
60 85 97 85 72 65 73 69 69 68 76 79 77 55 31 40 41 44 47 48 50 49 48 55 61 68 67 65 63 64 65 66 65 64 57 54 58 60 64 64 67 69 69 72
59 69 72 84 70 74 80 66 64 74 90 77 78 57 39 33 33 34 42 36 47 53 56 62 68 69 64 64 62 63 64 63 63 64 68 71 69 68 68 69 67 69 75 77
64 81 76 61 56 77 76 66 66 83 72 80 60 61 45 44 34 32 34 39 37 53 60 63 69 75 64 64 62 62 63 63 64 64 65 64 66 68 69 71 74 78 81 83
61 87 81 78 60 60 68 67 67 68 66 72 68 68 47 48 46 46 43 41 42 40 53 60 63 68 68 63 62 61 61 63 62 62 64 66 70 72 74 76 79 82 84 87
68 76 83 90 56 58 66 57 64 63 58 60 76 57 50 53 51 44 44 45 46 46 46 46 62 64 64 63 59 60 60 61 62 63 66 70 72 74 77 80 84 88 89 91
62 66 76 89 69 88 53 39 41 56 54 54 54 51 49 47 45 49 56 54 57 56 52 49 50 59 58 57 58 57 59 62 64 66 68 71 72 76 80 84 88 91 92 93
54 64 75 84 85 65 48 46 48 48 52 50 41 54 54 54 51 54 57 56 57 62 63 56 42 40 53 55 55 56 62 63 65 68 70 73 75 78 84 88 92 97 98 97
57 64 78 86 86 82 50 49 43 46 63 53 54 60 60 59 80 72 58 63 65 63 60 61 57 49 44 55 57 61 67 67 68 68 70 72 74 77 84 88 93 99 99 96
80 77 86 83 92 79 56 47 43 54 52 46 50 53 55 69 71 58 58 64 64 65 63 60 62 65 58 58 62 68 70 71 65 67 70 72 75 78 84 88 94 99 99 100
74 84 85 85 86 90 48 44 47 47 49 47 49 51 57 65 66 58 60 61 64 69 68 69 69 70 68 69 64 68 69 66 68 70 73 75 78 84 88 89 90 99 100 100
60 58 66 65 69 49 47 43 40 44 50 53 52 55 57 65 66 60 66 60 63 64 67 70 71 71 68 64 62 67 68 68 69 72 76 80 85 89 89 91 97 100 100 100
71 62 65 60 50 70 64 54 58 57 54 53 48 51 55 62 68 66 65 66 68 65 64 67 70 74 74 72 71 69 71 71 72 76 81 85 89 91 94 98 100 100 100 100
79 70 74 73 70 74 76 68 63 63 62 62 55 57 60 64 73 72 71 70 66 66 63 63 67 72 72 71 73 76 77 77 79 81 84 89 90 95 97 99 98 99 99 97
64 75 93 93 72 83 76 66 66 78 78 79 75 71 64 67 70 69 71 73 73 76 74 72 69 68 69 69 72 73 76 80 81 84 87 89 91 96 98 99 100 100 99 97

GFSCGP_925_rhum_090.txt.gz
RH
92 93 99 97 93 85 64 67 73 77 82 73 84 76 73 77 82 77 61 54 55 53 45 52 72 79 83 80 76 79 78 82 84 87 78 74 79 76 67 64 67 64 69 72
99 96 84 90 82 75 63 66 68 69 66 69 83 81 69 84 81 71 61 60 55 48 45 41 51 74 79 80 80 84 78 78 79 79 81 80 76 77 66 66 69 75 74 76
99 89 75 83 85 75 67 66 64 80 79 74 75 81 63 70 66 58 57 54 52 52 49 46 41 40 56 78 76 79 78 77 76 84 86 78 74 71 70 71 70 71 77 78
98 81 77 90 74 57 70 57 53 76 90 100 79 89 68 52 57 58 53 64 59 53 50 47 42 39 37 56 69 73 71 72 73 80 82 78 74 76 70 70 71 84 82 76
98 87 84 82 77 60 68 61 61 72 82 95 93 94 55 48 58 54 59 58 59 56 54 49 45 35 32 36 66 71 79 76 72 72 72 73 68 67 69 71 74 83 76 78
93 81 89 91 77 68 68 72 75 81 90 96 74 79 53 58 58 48 47 53 55 52 49 49 39 35 33 33 53 68 72 80 82 74 75 71 68 72 73 80 81 82 83 80
91 95 85 79 77 70 69 82 99 98 98 77 60 73 57 43 39 44 45 48 49 49 48 49 50 47 39 36 52 59 68 76 86 83 91 90 82 75 77 82 84 78 69 57
94 96 86 76 89 93 86 81 85 90 89 69 58 76 51 34 33 34 36 38 42 44 45 47 52 48 44 37 47 52 54 55 61 75 71 78 74 74 70 67 62 59 52 53
92 92 75 77 79 82 81 76 51 73 69 76 61 48 35 37 38 34 34 32 32 33 35 47 51 49 52 49 48 46 48 52 57 59 59 58 56 52 50 54 56 60 66 66
74 98 80 78 67 62 58 53 66 83 70 64 67 59 46 37 38 33 32 32 33 33 39 49 59 55 56 56 51 54 53 54 57 59 60 57 55 58 58 61 63 63 63 64
66 76 85 75 82 86 72 67 68 66 70 65 68 58 40 37 40 44 46 43 40 40 42 45 58 58 58 60 58 58 57 57 62 62 61 56 57 52 46 50 52 55 56 55
69 78 89 80 67 65 66 75 68 83 68 79 72 55 39 38 45 50 50 43 42 41 48 48 49 62 63 62 64 62 64 65 64 64 60 63 48 54 54 50 52 52 57 58
63 86 89 80 66 64 72 68 69 72 78 82 79 54 34 43 47 47 47 48 51 47 46 56 66 68 70 68 68 66 68 67 66 65 62 61 66 62 55 48 52 59 61 63
60 76 69 86 71 75 78 71 69 76 90 76 80 56 40 37 39 37 37 41 42 54 55 59 66 73 68 67 66 66 67 66 66 66 66 63 61 65 63 66 66 68 70 71
68 85 75 64 59 76 76 72 71 84 74 81 58 65 53 45 43 40 43 40 42 42 55 63 67 73 69 68 66 66 66 67 67 65 64 60 63 71 71 71 70 71 75 77
66 89 77 75 61 62 67 66 68 72 69 74 70 72 48 48 52 56 51 45 45 45 46 60 65 68 71 68 66 66 67 66 66 64 64 65 68 70 71 73 74 78 80 81
70 78 83 88 67 59 70 57 62 64 61 63 74 54 50 54 54 55 48 47 48 49 50 50 51 61 62 61 63 66 65 66 67 65 64 65 68 71 76 77 77 78 81 85
75 76 82 90 70 87 53 43 44 59 57 54 60 55 53 53 48 50 55 55 57 58 59 60 60 54 49 57 63 61 64 65 66 66 66 69 72 74 76 79 82 86 87 89
61 75 81 86 87 66 49 46 48 45 48 55 55 60 57 57 54 54 58 57 59 62 68 66 61 60 50 56 60 62 66 65 67 67 68 70 72 75 79 83 86 89 92 94
66 71 76 90 87 82 50 51 46 44 69 48 54 59 60 61 70 64 53 60 66 65 66 65 60 60 60 51 65 66 69 72 71 67 67 68 72 75 79 82 87 92 97 98
81 82 86 86 84 80 59 52 44 60 52 49 50 56 59 69 70 61 63 64 64 66 66 67 69 72 68 62 67 70 73 73 64 65 66 69 73 75 78 84 90 93 96 99
76 87 90 88 89 91 50 47 51 45 55 51 54 57 62 65 67 71 68 67 70 69 67 69 73 74 74 73 76 76 76 69 68 66 69 72 74 77 82 87 90 94 99 99
66 66 69 74 75 59 58 52 59 63 62 60 68 64 64 66 67 69 68 71 70 66 68 70 73 73 73 75 76 80 79 71 69 70 72 74 76 81 85 89 92 93 98 100
73 69 70 66 62 74 72 70 65 64 68 69 70 72 68 70 63 65 73 73 71 66 68 71 76 77 75 72 69 68 69 68 69 72 76 79 82 87 89 91 92 94 100 100
77 71 82 81 75 77 75 69 76 80 82 81 78 77 76 84 87 75 68 76 72 67 66 68 72 75 76 73 73 73 72 72 75 76 80 84 86 91 92 94 94 99 98 98
78 79 86 90 80 88 86 78 83 85 84 82 81 81 79 80 92 88 76 73 70 75 71 70 70 72 71 71 70 74 77 76 78 83 88 89 91 95 95 95 99 99 99 99

GFSCGP_925_rhum_093.txt.gz
RH
86 100 98 100 95 87 66 81 95 88 82 86 88 89 78 81 82 76 75 60 63 70 67 67 82 89 89 80 79 73 70 65 72 78 72 77 77 64 79 66 67 68 66 70
98 98 85 83 89 92 75 76 77 82 85 76 86 94 83 83 86 78 73 68 59 54 50 46 53 80 89 82 82 68 71 71 72 74 60 77 78 76 77 74 72 72 69 72
89 83 78 87 96 97 77 72 74 82 83 77 80 90 84 79 82 68 72 68 58 56 52 51 43 60 79 84 89 83 80 84 75 72 82 89 89 80 81 75 72 75 77 79
90 84 87 97 95 71 79 68 75 84 93 99 83 94 80 66 71 66 65 66 65 58 53 49 48 42 49 68 79 74 65 66 66 71 83 88 94 90 80 70 73 73 71 66
98 92 98 98 91 69 75 64 78 79 93 94 95 81 66 59 62 56 58 65 64 63 58 53 49 41 36 35 39 76 87 61 64 68 67 72 93 84 78 76 73 85 90 88
93 82 88 92 79 70 69 75 83 94 90 96 96 88 68 59 56 47 43 53 58 59 58 56 46 41 38 35 34 39 73 86 67 63 72 74 70 77 83 90 93 98 99 92
91 96 80 83 79 71 75 76 98 96 97 88 73 87 68 49 45 45 47 51 49 53 57 55 53 49 41 39 34 35 58 75 78 80 79 69 64 77 86 92 98 99 91 84
97 92 92 79 88 86 86 72 87 91 95 76 68 78 59 35 40 39 39 39 43 48 52 52 52 47 44 39 38 37 56 75 85 85 86 88 79 79 86 90 94 95 89 80
92 99 74 78 80 82 74 87 54 71 68 78 74 53 38 38 39 38 38 37 39 39 38 42 55 49 43 41 40 39 55 64 67 75 77 81 84 88 89 87 84 83 84 69
75 94 78 75 69 73 67 50 66 81 74 57 68 63 49 40 39 35 34 35 36 34 42 47 60 58 54 57 56 51 56 57 59 61 63 66 74 78 77 68 65 67 67 64
68 75 82 70 82 85 70 68 71 69 70 63 73 59 41 39 36 36 38 42 40 39 43 49 52 62 63 63 62 58 56 56 59 60 62 62 62 62 61 55 52 47 51 54
71 78 96 85 71 68 69 77 67 80 69 84 70 55 41 44 38 44 46 46 48 47 50 57 59 62 67 68 65 62 60 60 62 66 65 64 64 66 63 56 47 50 53 60
62 83 91 77 66 64 70 70 75 74 79 82 75 50 39 48 47 48 48 47 49 51 53 57 63 66 64 67 66 63 62 62 64 66 66 65 63 59 60 65 65 65 65 60
63 77 68 81 66 73 77 72 72 75 90 78 79 56 43 38 39 38 38 41 44 44 52 58 62 66 62 63 65 65 64 66 66 67 66 64 64 62 64 61 59 59 63 63
68 84 77 66 64 75 74 73 76 87 73 82 64 66 52 50 47 41 44 51 49 46 46 55 61 67 65 67 69 69 68 69 70 68 66 64 61 61 59 59 64 69 70 72
72 93 76 77 66 66 67 65 66 74 73 76 76 77 49 48 49 52 54 55 49 48 47 48 58 66 65 62 63 69 71 70 71 70 68 66 64 62 66 71 70 72 75 78
73 79 83 86 74 61 68 52 60 63 64 63 72 59 52 57 57 57 55 55 51 52 55 58 57 57 53 53 53 60 64 71 72 72 70 68 66 70 72 72 74 77 79 79
75 80 83 92 72 75 49 48 48 58 54 61 60 57 54 57 57 56 55 55 57 57 58 59 61 60 54 52 51 56 63 70 72 72 70 70 72 71 73 75 77 80 83 85
68 78 88 87 88 65 50 47 48 50 52 53 61 63 60 61 58 54 58 60 60 62 65 65 62 60 59 58 56 64 70 70 73 72 72 70 70 73 76 79 80 84 88 89
70 73 73 90 89 81 50 52 48 45 69 44 56 62 67 68 78 62 48 58 63 63 63 66 65 66 67 58 64 73 76 76 76 70 69 67 67 70 75 78 83 85 88 89
83 84 86 87 83 77 58 54 45 64 56 63 63 68 69 76 73 62 67 73 66 63 64 64 68 73 70 69 74 80 79 80 66 69 68 68 70 73 74 78 83 86 90 95
76 88 90 89 90 91 54 49 55 62 69 66 67 71 77 75 70 69 68 69 72 73 67 63 72 72 70 72 79 84 83 70 76 72 70 70 71 75 77 79 85 91 94 95
72 70 77 76 75 66 65 55 63 68 76 76 82 81 84 83 79 76 74 69 68 69 69 65 73 75 72 73 78 87 84 82 78 74 73 74 75 78 79 83 88 96 98 97
72 71 74 69 66 72 72 69 73 82 89 91 85 85 83 88 82 84 81 77 75 70 70 64 71 78 78 74 76 79 82 81 76 77 78 78 79 84 86 86 88 92 95 98
78 72 81 79 71 70 80 71 87 90 82 77 76 80 76 72 77 82 80 80 80 83 77 68 73 76 75 76 79 77 77 78 78 80 87 88 86 90 90 91 91 92 91 92
83 80 80 78 78 82 83 83 87 83 80 74 70 75 69 71 76 82 78 76 82 90 88 74 73 74 75 74 81 81 77 76 77 83 88 91 94 95 93 93 95 94 96 96

GFSCGP_925_rhum_096.txt.gz
RH
96 100 98 88 84 80 81 82 90 85 86 87 90 95 86 81 80 80 70 65 60 66 75 94 91 72 64 83 77 71 63 61 72 84 92 82 55 81 77 83 76 69 66 66
96 99 79 83 85 88 80 90 85 96 84 85 88 92 89 79 86 77 73 65 58 55 53 51 75 100 84 73 72 72 68 63 75 67 60 86 89 85 83 79 78 72 68 66
97 85 78 97 96 96 80 85 92 91 89 85 88 90 88 85 71 80 72 71 64 55 53 50 51 80 97 94 90 86 77 76 73 66 77 70 73 76 84 78 80 78 74 70
99 79 77 100 93 73 92 71 82 90 96 99 84 93 90 85 77 69 69 68 66 62 54 50 49 45 72 83 88 73 73 69 70 68 72 75 75 88 77 62 69 86 87 89
98 96 97 100 94 76 82 74 76 83 92 91 94 95 76 84 80 67 58 64 63 61 58 53 50 44 40 40 56 78 72 60 61 65 63 61 78 72 74 64 89 99 100 100
98 97 95 95 84 78 71 73 84 87 85 91 94 83 74 62 58 51 50 52 56 60 60 57 47 44 40 39 39 37 43 63 69 67 67 68 62 67 69 95 97 100 100 100
89 93 84 89 81 79 75 76 97 92 92 87 84 80 59 50 44 42 44 46 50 55 59 59 57 52 43 40 39 39 38 42 64 86 81 81 71 76 77 89 98 98 99 99
93 96 96 82 95 95 89 74 89 91 94 80 78 84 56 36 40 42 44 44 48 52 55 54 55 51 45 39 38 40 40 44 64 80 87 89 91 90 94 93 96 98 97 94
95 99 72 83 83 80 86 83 56 76 68 88 81 61 37 37 41 42 42 42 46 48 49 47 54 54 48 42 40 44 47 54 73 85 83 82 87 88 91 94 95 96 92 85
76 93 74 74 67 71 63 53 68 84 75 58 66 61 55 45 44 40 43 47 45 43 47 50 56 64 58 54 49 48 52 56 65 67 70 72 76 86 92 97 99 92 88 88
68 77 81 69 89 87 76 71 72 71 72 64 67 50 41 48 44 38 52 54 56 54 53 55 58 59 66 67 64 60 59 60 60 59 59 63 69 81 91 91 90 83 72 64
73 81 99 90 74 72 71 81 66 79 71 85 70 54 38 56 50 51 52 54 52 51 55 57 61 60 62 68 68 65 62 59 58 60 62 64 65 70 74 71 70 69 64 60
61 83 90 76 66 62 73 75 75 76 79 82 69 52 41 50 52 46 48 46 48 46 46 53 56 59 64 66 69 69 67 64 61 63 65 68 70 69 69 70 68 64 65 64
63 78 67 82 69 74 75 74 75 76 89 78 77 52 46 50 46 43 41 43 51 52 49 52 58 60 57 60 65 70 70 71 71 71 68 66 66 66 64 60 57 63 66 63
67 86 80 71 71 74 74 73 78 86 72 81 65 69 57 54 55 53 44 46 53 52 48 48 51 58 59 58 57 62 67 69 71 72 72 69 67 66 65 65 64 60 63 67
73 94 75 80 72 69 68 64 68 75 75 78 76 80 59 56 55 55 58 59 59 53 51 52 54 57 58 58 57 58 60 65 71 72 72 71 69 68 68 64 66 70 70 68
75 79 81 88 76 62 65 53 59 64 65 64 66 55 61 55 56 57 57 57 58 56 57 58 59 60 55 52 51 51 51 62 71 73 74 73 71 68 67 69 74 72 70 70
76 82 84 92 67 59 47 48 50 57 56 57 63 58 66 63 66 68 62 60 61 59 57 58 58 59 57 56 55 56 57 62 70 74 75 75 75 72 72 75 74 73 75 76
74 79 88 87 88 58 54 51 50 52 52 59 70 73 70 72 66 54 52 62 66 67 66 64 60 62 63 61 59 62 63 67 76 78 76 75 76 75 77 77 76 78 79 80
71 76 78 88 87 71 48 56 50 46 66 71 74 80 81 79 88 81 68 70 68 65 66 65 61 64 64 59 68 74 72 77 83 78 75 74 75 75 76 75 77 80 82 82
84 85 87 84 83 77 58 60 49 66 60 74 72 80 82 90 84 74 74 77 72 69 65 62 65 69 65 64 73 81 81 87 68 79 79 76 74 74 72 74 78 82 84 90
79 88 89 90 92 89 62 54 57 73 75 80 80 86 93 91 87 85 82 82 80 79 74 72 72 69 62 68 75 81 87 74 82 81 79 77 74 75 76 77 83 86 91 95
74 68 78 77 76 66 68 74 73 77 84 87 97 92 91 90 88 82 80 80 83 83 80 79 78 73 65 68 74 84 76 84 86 84 81 79 78 77 77 81 86 94 97 95
72 74 75 68 65 76 68 79 82 86 92 88 85 84 87 84 66 67 64 65 66 71 73 81 87 82 77 69 72 77 80 87 90 87 87 88 86 88 87 87 88 92 98 99
79 77 80 79 70 66 80 82 85 87 81 82 79 80 75 74 80 80 80 79 80 81 75 83 86 86 82 73 75 79 83 89 93 92 92 91 89 90 92 90 89 90 89 88
87 81 83 80 72 70 70 81 83 88 90 88 81 83 76 71 76 76 85 92 96 92 88 89 87 90 83 85 81 84 83 88 88 94 95 94 97 96 94 95 98 98 95 92

GFSCGP_925_rhum_099.txt.gz
RH
91 100 99 89 80 77 100 69 68 74 81 77 82 87 82 80 80 79 83 86 88 81 87 86 81 88 86 76 65 71 55 48 58 78 98 96 93 81 99 85 80 74 74 74
95 100 95 66 69 80 96 77 81 75 78 75 85 84 85 85 82 79 79 82 77 80 86 92 93 88 99 86 71 68 74 62 62 86 92 71 67 83 86 80 72 77 79 78
96 89 92 95 84 87 85 82 87 80 86 81 82 88 84 75 86 76 72 73 75 70 66 71 91 99 100 98 88 85 92 80 72 90 91 80 74 72 68 71 66 67 72 86
100 96 96 96 89 92 93 75 69 85 88 98 88 88 87 86 90 79 59 62 66 64 60 57 60 67 88 100 84 88 93 87 77 72 73 72 77 81 65 60 81 90 83 88
99 96 100 95 85 81 75 76 78 84 87 87 88 88 80 80 88 75 55 53 56 59 59 60 54 48 49 58 79 83 72 74 74 73 84 88 76 78 75 72 91 97 92 94
99 92 89 91 87 78 71 81 84 82 79 89 84 66 59 72 75 63 47 51 53 59 58 53 50 48 45 42 42 50 68 62 62 65 62 67 64 74 94 79 80 98 100 99
100 98 90 89 86 81 74 72 91 83 88 79 69 71 60 52 58 52 47 41 40 46 52 51 51 50 45 43 43 41 41 46 65 81 85 85 89 93 90 85 96 100 100 100
96 98 94 85 90 88 85 69 80 85 87 82 78 73 55 41 45 46 47 48 52 50 50 49 50 50 48 45 44 44 43 44 48 66 81 89 95 99 100 99 98 100 100 99
89 99 79 86 84 85 79 79 58 73 68 84 74 57 34 40 41 40 43 44 51 52 51 50 57 60 55 48 43 44 45 48 53 68 80 82 84 87 92 98 100 98 98 97
72 98 85 74 81 75 65 54 64 80 71 71 61 59 54 46 43 43 52 54 52 50 49 50 50 62 65 61 56 49 48 50 57 77 83 80 77 78 82 90 99 100 100 100
67 77 82 70 89 97 80 74 72 69 68 58 57 52 41 50 49 45 55 56 56 55 54 54 56 57 62 66 64 60 60 60 66 70 68 65 67 75 85 95 100 100 100 96
73 81 98 90 73 74 74 82 65 76 68 80 60 53 40 54 54 52 52 51 49 49 52 54 56 56 54 60 67 69 67 64 64 65 62 63 67 77 94 100 100 100 99 93
63 81 87 74 60 59 79 79 75 74 73 80 61 52 43 50 50 43 43 44 48 49 49 47 50 54 57 57 60 64 66 66 65 66 65 66 68 73 80 87 89 86 78 71
62 80 67 77 68 76 75 79 79 75 80 76 64 50 44 56 58 57 54 46 48 50 52 49 49 51 55 56 57 60 61 65 67 67 66 65 66 69 71 72 72 70 65 61
66 86 81 78 74 74 75 77 78 86 72 74 69 65 60 65 65 60 54 55 56 54 51 52 52 53 56 58 59 59 60 61 66 70 70 68 68 70 72 72 70 67 68 68
74 93 75 82 70 68 68 65 71 75 76 76 75 72 60 55 56 61 61 62 60 58 56 58 58 56 56 55 55 56 59 67 71 69 69 70 71 71 70 68 67 67 64 64
76 79 78 85 75 59 64 57 62 66 67 65 64 59 68 70 70 69 68 67 67 64 62 61 61 60 58 57 58 58 58 61 69 79 77 75 73 71 70 69 69 68 71 73
78 82 84 90 58 53 48 50 49 56 64 66 66 78 77 78 73 68 66 71 70 68 65 63 63 65 62 59 58 60 60 60 65 72 80 83 79 76 74 73 72 75 77 75
75 79 86 83 82 49 55 55 52 50 70 79 78 83 80 80 72 59 70 72 73 71 67 67 65 65 65 63 62 66 64 66 71 73 74 80 82 80 77 77 77 79 77 80
70 74 76 88 82 51 43 57 54 45 69 76 77 86 89 85 77 75 75 74 74 72 71 74 72 74 73 65 68 73 71 72 75 70 71 77 83 83 78 75 78 78 78 77
84 86 87 84 89 75 59 58 52 66 52 77 78 87 90 95 85 80 81 83 79 79 83 82 81 81 78 71 72 80 77 79 64 74 78 81 83 83 79 78 79 79 83 85
78 86 90 90 93 76 63 57 64 69 76 78 87 91 95 89 84 84 81 74 70 70 69 72 76 85 82 80 84 84 84 67 71 78 86 86 86 86 84 81 82 84 87 92
77 68 75 75 73 61 70 70 82 79 80 89 94 86 89 89 89 78 69 65 64 60 61 63 69 76 81 84 84 88 76 73 77 85 91 90 90 90 85 84 85 92 93 98
71 74 75 67 65 78 78 85 83 85 86 82 84 86 86 90 75 67 69 70 71 75 80 88 90 84 83 81 85 87 76 74 84 92 96 95 96 96 89 87 86 94 100 100
75 79 78 78 70 69 80 82 81 89 81 85 87 82 78 74 75 70 72 73 77 83 92 96 96 95 92 83 80 84 78 83 92 97 98 98 99 100 99 96 95 98 95 88
89 82 83 74 70 68 74 87 86 79 80 86 79 76 73 78 80 77 78 79 86 89 95 97 97 98 97 94 91 86 86 90 96 100 100 100 100 100 100 99 100 97 86 90

GFSCGP_925_rhum_102.txt.gz
RH
58 100 94 96 73 60 82 50 45 47 39 54 56 62 61 62 63 64 61 66 71 82 71 75 96 92 87 80 87 85 90 87 83 85 94 99 94 97 92 82 82 80 79 81
92 97 75 64 63 60 99 68 51 55 54 48 65 65 60 60 69 66 64 67 70 87 93 94 94 90 98 95 88 78 84 70 79 84 87 94 93 98 97 96 80 85 86 81
95 82 93 88 66 68 86 67 50 63 68 61 61 70 73 62 67 61 63 60 68 81 95 94 89 92 93 96 93 85 78 69 53 86 94 95 81 92 99 93 89 83 89 86
100 91 98 92 69 68 69 53 50 62 63 74 75 75 63 72 72 69 71 64 67 68 76 91 85 92 90 91 77 78 69 75 66 75 95 86 79 76 72 71 78 78 77 73
99 92 95 93 71 62 50 50 62 63 63 62 68 62 77 80 84 76 71 60 61 60 59 72 84 94 98 86 87 90 86 90 86 93 88 87 90 86 78 68 67 66 79 81
96 83 91 78 55 64 68 76 71 60 64 82 72 68 85 88 89 87 61 53 54 58 58 54 54 57 65 88 99 99 94 91 89 78 84 94 93 90 78 74 80 86 92 96
100 97 85 80 73 71 71 89 92 79 81 78 60 59 73 61 60 76 64 53 33 43 45 44 44 45 47 54 54 69 93 99 100 98 87 96 90 70 76 80 81 91 100 99
93 97 97 82 77 67 62 55 64 65 60 66 60 91 75 44 34 49 60 45 41 41 40 43 43 44 45 51 52 51 50 54 68 86 97 100 97 85 97 98 100 100 100 99
72 100 88 73 72 69 59 64 51 58 57 54 56 46 41 33 33 35 38 39 41 40 39 40 44 52 55 53 52 49 49 51 58 71 85 96 98 100 100 100 100 100 100 100
66 99 88 79 64 61 54 48 56 62 58 58 48 44 48 39 38 36 38 37 37 36 36 38 40 48 57 62 66 62 55 55 62 73 81 86 89 96 98 99 100 100 100 100
56 60 88 70 74 77 59 53 53 48 46 37 40 46 37 38 38 41 39 40 39 38 36 36 37 45 52 59 65 66 66 66 66 79 84 85 84 87 94 99 100 100 100 100
57 59 86 73 62 60 62 61 49 52 50 55 34 49 38 41 40 38 38 38 36 36 37 34 36 38 41 50 58 65 67 68 72 75 70 68 74 79 89 98 100 100 100 100
50 58 70 62 53 51 62 62 56 53 55 64 41 50 38 36 38 40 39 34 33 35 37 33 33 35 37 43 50 57 64 68 72 74 72 73 72 79 90 96 100 100 100 94
51 58 56 57 66 66 63 59 57 62 77 44 42 49 45 44 41 37 38 38 38 37 38 39 38 37 39 43 48 51 57 66 74 76 74 71 73 77 82 89 96 95 90 88
51 74 72 63 61 65 62 62 58 81 58 55 52 48 48 45 47 47 45 45 44 44 44 45 44 40 40 40 42 45 49 59 71 74 76 75 75 76 78 80 81 81 78 74
53 74 65 64 51 52 56 54 56 57 60 58 55 58 52 48 46 45 50 49 49 48 47 45 44 44 44 44 47 51 51 52 59 68 74 76 79 78 79 79 78 77 76 75
57 59 60 69 55 46 48 50 51 54 54 55 47 59 54 52 54 53 54 52 53 52 50 48 46 47 49 50 52 51 53 56 59 58 60 72 79 79 78 79 79 79 79 80
56 60 61 60 42 47 46 43 44 51 58 55 62 63 62 63 56 51 57 54 46 46 46 46 48 52 54 56 56 57 57 59 62 65 64 65 76 81 81 81 79 80 81 82
51 52 58 50 44 46 50 49 47 46 56 64 64 64 61 57 51 48 54 46 45 47 49 51 53 55 58 60 59 59 63 62 64 68 67 68 73 81 82 85 84 85 87 87
53 49 45 62 49 32 42 52 48 41 48 65 62 61 60 51 48 38 38 44 46 51 54 56 56 60 61 57 58 62 60 65 64 66 70 73 76 79 81 85 87 90 90 86
62 62 59 56 57 44 41 48 48 54 40 62 59 58 55 46 38 42 48 52 56 57 57 57 57 56 57 60 65 66 67 70 70 73 77 82 85 84 82 85 86 92 91 94
53 56 59 67 67 51 48 53 51 50 62 54 59 53 54 52 53 57 60 60 57 64 69 72 72 74 73 76 72 69 70 74 76 78 81 84 91 92 92 90 92 93 95 96
56 47 45 51 41 50 54 51 60 52 48 60 57 49 59 64 66 66 60 56 55 59 63 68 73 75 83 86 90 83 78 72 75 79 80 83 89 94 96 97 98 96 96 98
55 54 52 54 47 54 61 65 59 56 52 58 57 63 66 71 62 60 59 58 63 68 73 76 79 87 95 87 90 96 91 77 77 80 78 80 91 96 97 97 96 90 94 97
46 60 54 54 53 60 62 62 60 63 62 60 62 64 60 59 60 63 67 70 73 77 79 79 84 95 96 98 99 99 100 93 82 85 87 91 96 98 97 95 94 89 88 87
58 52 50 41 41 45 51 59 62 60 54 57 62 59 55 62 65 69 73 76 77 78 81 81 91 97 97 100 99 100 100 97 93 88 92 98 99 99 99 97 99 95 93 93

GFSCGP_925_rhum_105.txt.gz
RH
51 87 81 65 65 79 69 51 45 39 20 44 39 48 42 40 50 50 52 51 49 60 60 72 90 84 82 74 92 84 84 75 80 80 91 91 90 84 80 78 74 73 76 80
86 90 56 89 78 91 96 62 53 37 36 39 38 45 37 40 45 44 47 49 52 66 78 94 99 98 87 97 91 99 96 86 84 81 78 86 90 87 88 85 82 76 76 76
95 74 87 96 73 70 63 63 53 95 43 36 35 48 50 51 53 50 51 47 52 66 93 97 96 97 94 83 99 92 89 89 84 81 82 81 86 76 92 95 93 87 83 83
100 80 93 95 73 51 50 37 73 81 52 67 42 65 63 66 67 53 43 50 62 75 92 94 97 97 95 93 100 91 91 83 91 92 84 86 81 81 82 81 79 74 80 86
94 83 92 88 57 44 55 42 50 58 53 64 80 95 77 69 76 65 65 55 68 77 89 93 95 94 85 92 99 93 86 87 83 93 88 92 82 81 72 77 79 79 73 73
85 74 81 69 53 48 55 59 93 90 79 64 64 68 90 90 91 85 65 63 68 76 79 85 95 98 99 92 90 94 99 93 76 82 78 92 91 76 97 87 93 97 91 84
97 87 73 71 66 74 98 97 93 88 92 72 60 63 100 79 72 84 83 51 70 70 71 75 71 67 67 90 99 90 89 83 77 74 78 79 72 65 74 72 75 81 100 94
88 94 96 67 80 93 98 71 78 92 82 71 58 93 98 70 67 85 78 47 52 52 48 47 47 47 50 55 58 73 87 84 72 78 76 80 76 69 76 77 88 83 100 99
94 99 71 61 60 61 57 60 47 53 39 57 75 85 70 38 53 72 66 44 46 43 45 45 46 48 48 48 50 52 51 55 63 80 91 89 85 80 86 80 78 85 99 100
69 93 69 62 54 51 49 42 57 60 52 57 75 91 86 48 40 48 47 41 39 37 36 38 40 45 52 56 59 58 51 48 51 58 68 74 87 97 99 99 99 99 100 100
57 69 77 56 62 71 56 50 42 44 40 36 47 54 38 38 37 37 39 38 37 36 33 34 36 39 44 51 57 58 59 58 58 66 69 76 78 86 90 98 99 99 100 100
47 56 75 67 50 47 53 52 42 59 39 38 35 55 35 36 36 33 35 34 34 36 33 32 33 34 37 42 48 55 60 60 64 69 74 75 76 82 84 88 98 100 100 99
46 50 75 59 48 43 48 42 40 43 59 54 42 55 32 34 34 34 36 34 35 35 35 34 33 34 36 38 42 45 52 60 65 68 67 67 72 76 80 87 99 100 100 100
50 51 54 64 70 60 55 47 42 61 72 42 47 50 40 37 39 39 38 35 36 39 40 40 38 35 35 36 37 39 43 50 60 67 69 68 67 70 74 84 94 100 100 100
43 65 70 52 50 58 50 49 46 67 44 54 44 49 46 44 40 40 40 40 40 41 40 40 39 37 36 36 38 41 45 46 49 57 65 69 70 70 71 77 85 91 94 95
42 64 60 53 42 44 45 42 42 46 45 45 45 56 42 40 38 41 42 42 43 43 42 40 39 38 39 40 42 45 43 44 48 52 52 60 69 72 73 74 76 80 82 80
45 50 55 61 43 39 43 47 44 46 46 47 44 53 43 47 48 47 48 44 41 38 37 36 36 38 42 45 48 48 48 49 50 51 53 53 58 71 73 74 76 76 76 74
42 46 49 50 40 53 46 39 39 44 48 47 52 53 52 52 45 40 48 46 40 32 32 33 35 37 40 41 41 44 49 51 54 56 58 59 58 62 74 75 75 76 77 78
42 40 44 46 33 37 44 44 44 44 44 48 50 53 50 45 40 37 45 35 33 33 37 41 44 46 47 47 48 48 48 47 50 52 56 59 62 64 66 77 79 78 79 80
45 40 39 44 42 27 35 44 40 37 42 50 50 51 49 45 40 32 31 32 36 43 46 50 54 56 53 53 55 55 54 55 55 54 57 62 65 67 70 72 82 83 83 84
47 46 48 38 45 31 38 44 40 48 48 50 48 47 45 44 35 32 33 39 46 48 50 54 56 59 61 62 66 70 75 71 66 64 68 70 73 73 75 76 78 86 89 89
42 42 43 46 50 48 39 48 46 48 47 47 49 44 42 37 36 40 44 49 48 49 51 54 59 62 65 68 74 81 84 85 84 79 75 71 73 77 79 85 84 87 93 92
46 37 38 39 37 41 38 42 48 42 46 48 44 38 39 44 46 47 50 46 48 52 59 66 71 74 76 78 87 90 81 86 89 88 84 75 68 73 76 85 92 89 92 89
41 42 44 47 33 40 45 47 47 44 44 45 41 42 46 50 47 45 45 48 53 59 65 70 74 70 72 82 87 95 100 100 100 99 97 84 73 74 75 83 93 92 90 89
35 47 42 41 36 44 44 47 49 50 46 44 45 47 49 48 46 46 50 53 58 65 70 73 74 73 78 89 91 98 100 100 100 100 99 93 85 82 85 91 93 92 88 88
40 37 43 31 28 35 39 43 48 54 52 42 43 44 43 45 50 48 49 51 56 61 70 74 77 80 82 90 92 97 99 100 100 99 98 95 91 94 98 100 98 97 94 87

GFSCGP_925_rhum_108.txt.gz
RH
56 92 94 77 69 61 62 83 74 53 32 39 34 63 64 58 64 62 58 57 53 56 58 64 81 87 86 87 87 83 98 90 83 64 73 71 72 74 77 82 84 86 83 84
91 96 64 53 66 75 86 86 78 57 48 41 55 61 44 41 48 55 57 60 55 55 67 94 100 99 93 100 96 94 97 84 82 58 69 75 79 76 74 73 74 77 82 82
100 77 73 87 87 80 81 74 68 81 76 45 62 81 54 41 41 43 47 49 47 58 84 94 96 99 94 93 96 99 95 87 78 65 66 67 75 86 83 82 79 76 73 74
97 73 87 86 80 65 74 48 58 85 89 95 72 85 52 59 70 62 56 57 56 76 94 91 94 95 98 95 95 97 100 98 89 86 86 86 69 64 80 73 74 76 78 78
95 89 74 77 63 50 53 56 94 83 98 73 59 85 98 78 76 69 61 54 78 88 95 97 96 94 84 91 92 100 100 95 94 94 84 83 85 86 80 80 80 73 79 79
94 70 82 69 63 58 55 84 95 100 100 98 90 98 100 100 94 82 66 71 82 94 97 96 93 89 90 86 97 97 87 96 91 88 82 75 79 78 84 83 84 82 78 79
90 87 74 69 81 74 94 100 98 97 98 98 90 93 100 93 83 86 79 68 92 93 95 97 98 97 97 93 89 96 93 86 85 90 66 78 88 82 86 85 74 77 80 76
94 86 93 70 85 100 97 97 99 96 97 98 67 97 100 90 87 85 77 81 86 91 90 86 71 68 65 73 94 90 96 84 84 85 73 83 82 82 86 84 77 79 80 76
100 93 67 73 68 69 75 95 67 100 57 85 100 99 88 87 87 73 77 78 92 86 72 55 57 56 53 52 54 64 76 86 92 89 76 76 77 86 91 81 81 83 85 78
63 88 63 60 58 62 66 48 74 95 88 95 97 98 98 100 98 64 60 64 84 68 47 49 53 54 58 60 59 57 52 49 50 54 71 79 85 91 83 75 72 72 75 83
56 76 67 55 67 72 63 64 51 50 48 52 79 96 64 84 82 76 49 45 44 44 44 44 47 46 48 52 59 60 60 60 60 63 69 70 74 81 94 95 98 99 92 96
48 63 84 67 48 45 56 49 47 87 70 66 75 88 40 44 42 41 45 44 44 45 44 43 42 40 42 44 47 54 60 63 65 68 70 74 76 80 83 86 94 98 100 99
55 65 89 66 58 48 51 47 53 50 79 61 80 88 37 43 44 43 46 46 46 46 46 46 45 44 41 40 40 43 48 56 63 65 66 66 67 70 77 81 89 96 98 99
64 62 73 90 76 66 65 54 53 74 79 66 73 59 51 50 52 51 49 48 48 47 46 48 48 46 40 40 41 44 45 46 48 53 62 67 67 67 69 74 84 86 94 98
53 72 72 51 51 58 50 53 54 63 54 70 57 64 58 50 52 51 48 46 47 46 45 48 50 50 44 45 46 48 47 47 48 49 51 53 61 65 68 71 77 85 90 96
45 71 58 53 42 41 52 49 53 54 51 57 61 65 48 45 45 50 50 48 46 42 40 39 39 39 42 41 42 43 46 49 51 53 53 53 53 60 68 69 71 79 89 92
50 61 71 72 50 45 58 51 49 50 52 53 65 58 49 52 50 50 54 50 44 38 35 36 39 40 43 45 47 48 48 48 47 49 53 57 58 59 60 69 72 75 81 86
50 49 59 76 49 66 53 41 39 49 50 56 59 57 54 53 48 45 52 50 44 37 40 43 45 47 48 48 48 49 50 52 54 55 54 52 54 59 61 64 73 75 77 79
47 51 56 72 49 39 45 48 47 47 56 48 59 57 52 45 47 63 40 36 34 41 47 48 51 55 57 58 61 63 67 69 71 68 62 61 59 61 65 65 66 75 78 78
49 48 56 54 58 43 45 46 39 38 60 54 52 54 51 50 56 57 36 36 45 48 49 52 53 55 58 60 62 64 65 68 71 75 79 78 74 71 72 73 74 71 79 79
56 56 64 63 66 46 48 48 39 58 60 56 50 51 48 52 48 41 42 47 49 50 51 55 62 66 69 72 75 79 80 79 77 83 82 82 81 80 78 76 76 76 78 84
49 54 64 55 57 63 50 51 55 57 54 54 50 47 45 42 43 46 50 54 53 55 58 64 69 72 73 71 72 78 82 83 88 91 98 98 92 86 81 79 76 80 85 93
61 49 57 48 58 46 50 50 47 49 54 49 52 42 39 45 50 51 54 51 54 57 62 67 70 73 73 72 76 82 88 92 93 96 99 100 100 99 96 83 69 71 84 94
44 47 58 50 43 51 47 50 50 44 49 53 41 40 44 52 53 52 51 56 59 60 66 69 73 75 74 75 79 82 86 90 98 99 100 100 100 99 98 85 83 82 89 88
47 54 54 52 44 44 46 53 57 52 51 46 44 46 49 52 54 52 56 57 56 57 60 64 71 72 73 78 79 82 89 88 93 97 98 100 100 99 99 96 88 83 87 88
54 55 57 56 40 50 48 53 57 60 58 50 50 50 51 50 53 52 58 54 55 57 59 61 72 72 76 78 78 83 88 89 96 97 98 98 99 98 99 98 96 94 94 92

GFSCGP_925_rhum_111.txt.gz
RH
69 96 97 88 84 72 74 82 81 67 60 63 59 51 42 36 51 68 63 38 61 58 56 61 69 80 85 80 79 88 90 86 100 99 100 95 73 62 58 58 59 64 68 67
91 95 74 66 61 69 98 94 84 66 57 61 65 56 47 41 59 64 73 68 66 54 61 86 92 98 96 96 88 87 99 89 87 100 100 93 79 71 73 73 72 69 80 79
97 81 78 86 92 95 87 87 84 85 67 63 59 72 53 41 60 61 64 61 64 61 69 95 95 100 96 94 89 91 100 94 88 84 89 87 82 68 70 82 86 78 80 82
93 71 81 84 89 82 91 62 78 94 83 97 70 94 67 61 56 53 58 66 63 70 92 94 97 100 94 94 95 86 91 94 91 86 89 80 70 65 60 68 75 77 79 84
83 88 93 77 69 64 73 54 76 93 98 85 68 95 92 92 75 87 77 67 69 87 95 94 97 94 88 95 97 100 98 94 91 88 84 83 82 86 80 73 72 72 77 77
96 71 85 73 62 63 66 80 87 100 98 98 78 89 100 100 97 84 76 77 91 96 94 96 97 90 96 93 100 96 100 100 98 95 90 85 84 82 86 84 84 81 79 73
93 88 80 71 86 79 92 100 97 97 97 98 100 98 99 98 88 87 91 75 96 96 97 96 97 99 97 93 96 99 98 100 98 97 99 93 82 86 90 90 87 86 86 82
91 77 85 74 83 100 100 100 99 96 97 98 92 98 100 94 77 79 80 94 97 96 92 93 93 90 80 92 94 95 97 95 94 90 84 91 84 86 86 80 87 89 79 79
90 85 68 74 72 83 91 100 85 100 94 91 98 100 90 91 88 88 96 94 91 84 82 83 73 66 62 58 65 81 87 92 91 88 90 81 90 92 88 81 74 85 87 79
74 96 66 60 67 67 84 61 84 96 96 96 97 98 99 99 98 88 93 84 85 72 66 62 58 60 66 64 62 59 52 54 56 64 71 74 73 80 85 84 90 86 83 75
63 79 71 58 66 73 77 70 57 58 66 90 93 98 99 100 88 71 89 87 72 52 47 47 49 50 51 56 60 64 66 68 68 68 73 74 80 82 89 91 99 99 98 93
55 71 89 67 53 47 55 62 56 86 71 78 87 99 61 87 82 52 53 51 50 50 49 48 49 47 47 47 47 49 51 56 62 65 67 70 74 78 82 83 83 85 90 97
59 77 90 74 60 58 69 53 58 61 75 83 88 99 48 52 53 53 56 53 50 50 51 52 52 53 51 50 51 50 50 50 50 50 55 60 63 65 67 75 82 95 93 96
63 68 76 90 74 72 69 60 59 70 90 83 85 78 63 62 62 59 58 55 54 52 50 49 50 55 51 51 48 45 47 49 50 52 52 52 53 59 66 67 71 83 89 94
58 73 72 57 55 54 55 60 64 71 64 76 73 74 60 60 60 57 55 52 48 44 42 43 44 47 46 46 46 46 46 47 47 47 51 55 56 56 57 64 69 73 81 81
55 73 63 59 44 46 53 56 57 62 63 69 70 69 53 54 56 57 54 49 46 41 39 41 44 46 50 51 51 51 52 52 52 52 52 50 50 54 56 58 61 72 74 82
57 69 79 77 55 48 61 51 53 52 60 64 70 63 57 58 58 60 59 51 46 39 41 48 51 55 59 60 61 65 65 66 68 68 66 64 62 60 59 58 64 62 70 74
60 58 72 83 53 59 55 42 43 55 58 61 63 62 59 56 53 56 49 45 42 45 54 57 63 63 62 62 64 65 66 68 70 72 75 78 78 78 74 69 65 67 72 74
56 61 61 70 69 42 54 50 53 57 57 60 65 61 55 51 60 48 40 40 51 58 57 57 53 54 57 61 69 71 72 71 72 72 76 81 83 85 87 85 81 76 71 72
53 58 65 62 57 47 40 49 40 41 60 57 62 65 56 52 81 79 40 46 55 51 52 52 54 58 64 70 70 71 72 75 76 78 88 84 85 92 94 89 84 82 82 82
62 65 68 70 75 56 48 50 42 55 42 61 61 60 57 59 56 48 46 50 51 52 53 58 65 69 71 70 71 71 74 76 80 84 80 88 92 98 97 99 96 88 84 86
57 70 70 68 64 63 55 52 49 44 61 60 59 55 54 48 42 46 52 53 53 57 62 67 71 73 73 73 73 71 78 79 86 86 91 93 95 97 98 99 99 99 96 89
58 54 54 58 60 46 59 47 51 58 62 60 60 51 50 47 50 51 55 51 57 59 64 67 71 75 76 75 74 76 76 80 86 86 86 90 97 97 97 99 98 98 97 84
50 54 56 48 41 54 57 54 55 54 57 56 52 48 48 47 53 54 55 59 60 60 62 64 71 76 76 74 77 76 76 78 84 82 84 90 93 94 97 98 97 98 97 88
52 56 59 62 52 45 51 59 61 54 59 51 47 48 50 53 56 53 60 60 59 59 59 64 69 76 74 75 79 80 78 80 83 86 90 90 92 93 96 95 98 99 98 98
64 58 53 56 50 48 48 54 63 62 60 54 53 53 52 54 59 52 61 59 60 63 64 65 69 73 74 76 80 81 81 84 88 95 93 92 91 94 96 97 97 99 99 97

GFSCGP_925_rhum_114.txt.gz
RH
78 94 98 92 88 70 71 84 89 73 59 66 70 69 59 52 49 48 47 55 53 48 39 46 71 73 72 67 77 81 84 77 91 95 100 100 99 88 88 89 83 74 78 78
83 91 76 74 74 81 85 91 82 71 61 64 70 72 58 52 48 48 56 61 71 55 63 72 86 84 86 95 86 89 87 81 87 86 100 100 99 92 83 80 74 75 82 74
78 73 71 78 80 85 80 86 86 90 68 71 75 80 66 48 52 51 52 71 71 71 68 83 93 88 89 97 99 98 97 94 97 94 100 100 96 98 98 88 71 65 63 62
88 72 80 84 83 71 87 66 74 80 96 95 59 92 71 87 80 54 55 54 68 72 68 90 93 95 95 96 97 93 88 88 73 93 100 98 92 91 89 81 73 64 65 64
81 91 90 95 74 68 76 62 70 80 99 97 82 94 82 82 93 92 87 87 72 73 88 95 93 90 95 98 99 98 99 92 81 92 97 95 93 95 93 88 81 71 72 83
92 77 85 79 63 58 63 91 87 96 99 100 82 86 99 99 98 89 85 87 87 80 94 93 90 83 93 93 91 99 100 100 88 96 94 91 92 92 91 85 79 78 80 70
86 88 79 75 87 82 96 100 97 97 97 96 100 97 100 99 93 86 88 84 90 95 96 97 98 99 99 98 99 100 100 100 94 100 100 97 93 92 92 92 88 84 83 80
88 85 87 75 92 100 100 100 98 96 97 96 99 98 99 96 90 88 94 94 94 97 96 96 93 95 95 95 96 100 100 100 100 99 98 100 100 94 91 88 88 86 81 79
88 86 63 70 71 90 91 100 94 100 99 88 98 98 97 93 91 89 92 90 97 96 94 94 92 87 79 72 78 86 91 96 99 96 95 95 97 98 87 83 85 90 84 79
70 92 66 60 69 74 84 75 95 98 94 96 88 98 98 98 100 96 94 92 90 87 78 71 72 70 67 71 72 72 71 75 77 81 85 100 95 85 87 91 92 90 88 85
66 79 74 60 62 70 72 77 65 64 89 97 96 98 99 100 98 97 87 79 74 66 63 58 52 54 55 55 55 57 60 63 66 69 73 78 86 93 96 95 91 98 100 100
58 74 91 65 56 52 57 64 64 80 71 81 92 97 81 89 86 79 59 54 54 55 55 55 55 56 56 57 56 56 54 54 56 55 54 60 65 68 71 76 81 89 100 100
58 79 89 54 48 56 72 60 62 67 76 90 86 96 55 72 61 60 60 58 54 51 51 50 52 52 52 51 50 48 48 49 46 46 52 55 57 57 59 67 71 75 88 96
61 72 74 76 66 70 72 65 66 70 91 87 89 84 67 66 67 63 63 58 52 48 46 47 49 52 53 52 52 52 53 54 54 51 49 48 50 51 54 57 59 66 72 86
57 68 70 63 62 58 55 65 73 73 68 74 76 75 68 70 69 62 57 49 44 43 45 48 52 58 58 60 60 61 61 61 60 58 57 60 60 57 53 53 56 61 64 70
60 69 66 62 51 49 52 53 58 64 68 74 72 66 54 56 61 59 53 48 47 44 47 53 57 63 66 66 66 64 64 64 64 66 67 67 68 72 72 69 66 62 60 64
60 71 81 78 59 54 60 51 54 55 61 69 70 58 60 61 61 61 60 52 46 44 54 61 65 64 62 63 66 69 69 70 70 72 73 76 80 78 72 69 71 72 71 70
61 66 76 83 52 59 44 45 45 52 59 63 63 64 62 61 58 57 48 47 43 50 57 60 65 66 67 72 77 77 74 73 77 77 82 88 87 86 87 87 86 80 77 82
59 66 67 62 68 42 49 50 56 50 44 64 68 66 62 55 64 49 39 43 53 58 63 63 65 68 72 78 77 75 73 76 77 80 88 86 88 93 89 88 90 92 95 87
61 63 62 71 51 47 27 45 44 37 50 60 66 70 64 57 44 57 44 52 59 58 59 62 64 64 64 67 64 66 70 74 80 83 88 88 90 92 92 92 93 94 96 97
64 69 70 70 80 62 41 51 41 40 24 64 64 65 62 55 54 51 50 57 53 54 57 63 62 67 67 62 68 74 74 78 78 80 82 86 88 89 91 94 95 96 96 96
53 72 76 74 70 58 56 52 52 41 63 61 63 62 61 52 47 46 52 53 53 56 58 59 65 64 56 55 67 72 75 72 75 78 82 83 84 84 88 90 94 93 95 94
64 56 54 59 58 43 58 44 50 60 64 61 62 57 58 55 50 55 58 53 57 58 61 63 66 68 69 72 76 73 75 76 73 74 84 84 80 84 88 91 89 89 91 92
50 56 60 50 38 52 53 56 53 61 58 59 58 55 53 48 53 56 57 59 62 56 59 57 64 74 74 73 75 77 80 81 82 78 79 85 91 92 91 90 90 88 88 88
52 56 60 65 58 54 52 60 59 58 59 55 52 51 50 50 61 61 63 65 61 61 62 64 69 72 73 73 75 79 82 85 88 85 89 91 92 93 91 88 92 94 91 94
67 60 59 46 46 47 42 48 63 63 65 59 54 54 52 56 62 59 65 59 60 63 66 70 71 72 74 75 77 78 87 87 82 85 88 89 87 87 90 91 92 90 92 99

GFSCGP_925_rhum_117.txt.gz
RH
82 94 97 79 84 74 76 84 87 71 60 69 74 74 62 52 58 60 56 45 43 53 45 36 35 29 51 71 64 54 63 71 84 90 100 100 100 95 98 84 77 100 100 99
78 91 77 75 79 84 92 86 78 68 63 68 69 70 60 60 59 55 59 50 52 58 58 51 43 68 74 67 60 83 80 81 82 94 100 100 97 99 99 96 82 100 98 93
90 73 70 80 80 83 80 81 77 83 74 75 82 86 63 68 58 52 53 53 61 68 68 67 87 87 81 69 77 87 98 92 86 91 98 100 99 100 100 95 95 97 99 99
86 72 84 89 88 80 78 61 69 81 94 96 61 94 69 84 88 78 83 80 64 68 72 73 89 90 83 80 89 93 92 100 93 90 100 95 98 96 94 99 98 98 98 90
78 90 84 93 84 73 80 59 73 96 99 100 91 96 75 87 88 86 82 88 90 90 74 78 90 83 88 86 89 94 92 89 90 91 99 92 100 100 100 99 100 100 99 94
95 75 86 84 70 61 57 75 86 93 99 99 80 92 91 98 97 92 81 88 94 97 76 87 87 96 96 92 96 99 96 94 97 98 99 93 95 100 100 97 94 95 94 89
82 85 83 82 92 80 88 100 97 95 96 93 99 98 100 97 94 92 90 90 95 95 97 96 95 95 95 98 97 98 100 97 99 100 97 96 95 98 98 98 100 100 95 89
88 78 89 83 91 98 100 100 99 98 96 92 89 97 100 96 90 89 89 90 92 96 96 97 98 97 98 99 99 99 100 100 99 100 100 99 97 97 97 97 96 99 94 95
94 87 58 71 76 85 92 100 96 100 96 92 97 94 96 93 96 90 89 90 97 98 95 94 90 93 92 94 96 99 98 98 100 100 99 99 100 100 99 94 97 90 88 86
74 93 65 62 69 82 83 78 98 97 97 93 91 97 98 98 99 99 96 94 94 91 88 81 76 69 63 67 69 70 69 73 81 86 94 100 100 97 89 93 93 87 82 86
71 82 74 59 60 67 75 77 80 72 89 93 95 97 98 100 99 99 95 87 78 68 65 59 55 52 50 49 52 52 52 52 55 57 60 64 75 84 94 98 100 100 98 99
62 77 95 68 53 57 59 64 68 87 69 89 87 96 78 84 86 83 62 57 52 52 52 50 50 51 52 54 56 58 55 53 50 47 48 51 53 54 57 59 65 69 79 89
61 81 88 52 46 55 68 61 66 71 76 87 85 88 59 71 79 63 61 55 49 46 47 52 55 57 60 61 61 62 64 63 58 54 53 52 52 51 52 53 56 58 64 72
61 74 69 76 61 66 74 65 70 71 89 86 86 80 68 71 71 66 58 49 47 48 50 53 60 65 65 65 64 61 60 61 58 58 61 62 64 64 63 58 54 53 55 60
60 66 70 66 70 65 59 60 72 76 71 70 69 82 72 74 71 66 55 45 45 49 52 59 65 71 67 66 65 65 63 62 59 62 66 70 75 74 69 66 63 58 56 57
63 65 70 70 56 58 57 54 56 60 69 74 76 72 59 63 61 61 54 49 48 49 57 61 66 69 71 72 72 68 66 63 64 70 75 81 83 75 73 78 82 83 81 78
64 71 80 75 66 58 51 54 53 57 63 70 81 60 65 68 67 64 62 53 47 47 56 62 68 68 68 72 73 69 69 69 73 78 83 88 86 88 92 90 89 89 91 90
64 67 77 84 53 38 30 49 46 54 56 68 66 63 66 63 62 61 55 59 47 50 56 62 67 69 70 74 74 75 75 76 81 83 87 90 91 93 87 87 87 89 90 91
63 68 65 61 66 40 37 52 58 57 45 60 68 62 64 62 60 56 41 42 50 52 57 63 67 72 75 77 75 75 77 78 80 84 85 87 89 92 88 89 89 88 90 94
68 66 63 72 54 31 20 43 47 36 45 42 65 70 73 65 68 52 47 49 55 56 61 68 73 74 74 67 66 71 78 78 80 80 80 83 86 88 85 84 86 90 91 93
69 73 77 70 76 54 41 49 43 23 16 54 66 70 73 66 56 49 52 57 56 59 64 68 69 66 60 56 55 65 71 77 76 74 73 75 81 82 82 84 86 87 87 85
54 66 76 76 70 53 55 47 45 31 55 59 66 65 68 57 54 55 60 60 58 60 60 58 59 59 57 58 60 67 74 71 72 74 75 73 74 77 81 84 86 86 87 86
62 56 53 61 57 42 57 50 46 53 56 57 64 64 64 60 55 51 53 52 56 58 59 59 60 60 55 58 65 71 70 79 80 85 82 80 79 82 83 83 81 82 82 82
53 59 62 50 41 54 52 53 60 57 58 56 58 62 61 53 51 48 56 58 61 58 58 60 60 65 66 64 71 73 75 81 88 86 88 81 82 86 87 88 84 83 87 87
52 61 62 67 53 54 50 55 53 60 61 60 60 59 58 52 55 54 61 62 61 60 59 60 66 69 70 69 74 75 78 87 90 90 87 87 88 89 88 85 86 88 89 90
66 59 62 55 47 41 39 37 53 64 66 64 61 55 53 50 54 60 62 59 59 60 61 68 70 75 76 75 78 77 82 91 92 91 90 92 94 94 91 90 86 86 90 90